<?xml version="1.0" encoding="UTF-8" standalone="no" ?>
<gpx xmlns="http://www.topografix.com/GPX/1/1" xmlns:xsi="http://www.w3.org/2001/XMLSchema-instance" xsi:schemaLocation="http://www.topografix.com/GPX/1/1 http://www.topografix.com/GPX/1/1/gpx.xsd" version="1.1" creator="VisuGPX - https://www.visugpx.com">
  <metadata>
    <name>Pointe du raz 2</name>
    <desc><![CDATA[2eme jours: Beuzec Cap Sizen - Douarnenez]]></desc>
  </metadata>
  <trk>
    <name><![CDATA[26-MAI-17 07:27:19 PM]]></name>
    <trkseg>
      <trkpt lat="48.07764" lon="-4.51504">
        <ele>80.89</ele>
        <time>2017-05-26T08:58:15Z</time>
      </trkpt>
      <trkpt lat="48.07768" lon="-4.51508">
        <ele>81.37</ele>
        <time>2017-05-26T08:58:20Z</time>
      </trkpt>
      <trkpt lat="48.07783" lon="-4.5151">
        <ele>82.81</ele>
        <time>2017-05-26T08:58:34Z</time>
      </trkpt>
      <trkpt lat="48.07793" lon="-4.5151">
        <ele>83.77</ele>
        <time>2017-05-26T08:58:47Z</time>
      </trkpt>
      <trkpt lat="48.07817" lon="-4.51515">
        <ele>85.21</ele>
        <time>2017-05-26T08:59:03Z</time>
      </trkpt>
      <trkpt lat="48.07822" lon="-4.51516">
        <ele>86.18</ele>
        <time>2017-05-26T08:59:08Z</time>
      </trkpt>
      <trkpt lat="48.07832" lon="-4.5152">
        <ele>86.66</ele>
        <time>2017-05-26T08:59:15Z</time>
      </trkpt>
      <trkpt lat="48.07856" lon="-4.51525">
        <ele>87.62</ele>
        <time>2017-05-26T08:59:33Z</time>
      </trkpt>
      <trkpt lat="48.07873" lon="-4.51529">
        <ele>88.1</ele>
        <time>2017-05-26T08:59:47Z</time>
      </trkpt>
      <trkpt lat="48.07892" lon="-4.51534">
        <ele>87.62</ele>
        <time>2017-05-26T09:00:02Z</time>
      </trkpt>
      <trkpt lat="48.07894" lon="-4.51534">
        <ele>87.62</ele>
        <time>2017-05-26T09:00:03Z</time>
      </trkpt>
      <trkpt lat="48.07903" lon="-4.51536">
        <ele>87.14</ele>
        <time>2017-05-26T09:00:11Z</time>
      </trkpt>
      <trkpt lat="48.07905" lon="-4.51536">
        <ele>87.14</ele>
        <time>2017-05-26T09:00:13Z</time>
      </trkpt>
      <trkpt lat="48.07914" lon="-4.51539">
        <ele>87.62</ele>
        <time>2017-05-26T09:00:32Z</time>
      </trkpt>
      <trkpt lat="48.0792" lon="-4.51539">
        <ele>87.62</ele>
        <time>2017-05-26T09:00:37Z</time>
      </trkpt>
      <trkpt lat="48.07936" lon="-4.5154">
        <ele>88.1</ele>
        <time>2017-05-26T09:00:47Z</time>
      </trkpt>
      <trkpt lat="48.07964" lon="-4.51548">
        <ele>90.5</ele>
        <time>2017-05-26T09:01:03Z</time>
      </trkpt>
      <trkpt lat="48.07987" lon="-4.51559">
        <ele>91.46</ele>
        <time>2017-05-26T09:01:19Z</time>
      </trkpt>
      <trkpt lat="48.08007" lon="-4.51571">
        <ele>87.62</ele>
        <time>2017-05-26T09:01:36Z</time>
      </trkpt>
      <trkpt lat="48.08026" lon="-4.51581">
        <ele>87.62</ele>
        <time>2017-05-26T09:01:52Z</time>
      </trkpt>
      <trkpt lat="48.08047" lon="-4.51591">
        <ele>83.29</ele>
        <time>2017-05-26T09:02:09Z</time>
      </trkpt>
      <trkpt lat="48.08071" lon="-4.5161">
        <ele>80.89</ele>
        <time>2017-05-26T09:02:29Z</time>
      </trkpt>
      <trkpt lat="48.08091" lon="-4.5162">
        <ele>78.97</ele>
        <time>2017-05-26T09:02:45Z</time>
      </trkpt>
      <trkpt lat="48.0811" lon="-4.51631">
        <ele>79.93</ele>
        <time>2017-05-26T09:03:01Z</time>
      </trkpt>
      <trkpt lat="48.08132" lon="-4.51646">
        <ele>78</ele>
        <time>2017-05-26T09:03:19Z</time>
      </trkpt>
      <trkpt lat="48.08156" lon="-4.5166">
        <ele>78</ele>
        <time>2017-05-26T09:03:36Z</time>
      </trkpt>
      <trkpt lat="48.08174" lon="-4.51673">
        <ele>78.48</ele>
        <time>2017-05-26T09:03:52Z</time>
      </trkpt>
      <trkpt lat="48.08179" lon="-4.51675">
        <ele>78</ele>
        <time>2017-05-26T09:03:56Z</time>
      </trkpt>
      <trkpt lat="48.082" lon="-4.51689">
        <ele>79.45</ele>
        <time>2017-05-26T09:04:14Z</time>
      </trkpt>
      <trkpt lat="48.0822" lon="-4.51701">
        <ele>80.41</ele>
        <time>2017-05-26T09:04:31Z</time>
      </trkpt>
      <trkpt lat="48.08244" lon="-4.51714">
        <ele>81.37</ele>
        <time>2017-05-26T09:04:50Z</time>
      </trkpt>
      <trkpt lat="48.08265" lon="-4.51728">
        <ele>80.89</ele>
        <time>2017-05-26T09:05:07Z</time>
      </trkpt>
      <trkpt lat="48.08285" lon="-4.51741">
        <ele>81.37</ele>
        <time>2017-05-26T09:05:24Z</time>
      </trkpt>
      <trkpt lat="48.08307" lon="-4.51755">
        <ele>82.33</ele>
        <time>2017-05-26T09:05:43Z</time>
      </trkpt>
      <trkpt lat="48.08327" lon="-4.51766">
        <ele>81.37</ele>
        <time>2017-05-26T09:06:00Z</time>
      </trkpt>
      <trkpt lat="48.0835" lon="-4.51779">
        <ele>81.37</ele>
        <time>2017-05-26T09:06:17Z</time>
      </trkpt>
      <trkpt lat="48.08369" lon="-4.51791">
        <ele>83.77</ele>
        <time>2017-05-26T09:06:32Z</time>
      </trkpt>
      <trkpt lat="48.08384" lon="-4.51798">
        <ele>85.21</ele>
        <time>2017-05-26T09:06:44Z</time>
      </trkpt>
      <trkpt lat="48.08399" lon="-4.51805">
        <ele>83.77</ele>
        <time>2017-05-26T09:06:57Z</time>
      </trkpt>
      <trkpt lat="48.08418" lon="-4.51811">
        <ele>83.29</ele>
        <time>2017-05-26T09:07:12Z</time>
      </trkpt>
      <trkpt lat="48.08438" lon="-4.51821">
        <ele>82.81</ele>
        <time>2017-05-26T09:07:28Z</time>
      </trkpt>
      <trkpt lat="48.08454" lon="-4.51835">
        <ele>80.89</ele>
        <time>2017-05-26T09:07:44Z</time>
      </trkpt>
      <trkpt lat="48.08462" lon="-4.51841">
        <ele>81.37</ele>
        <time>2017-05-26T09:07:52Z</time>
      </trkpt>
      <trkpt lat="48.08472" lon="-4.51843">
        <ele>81.85</ele>
        <time>2017-05-26T09:07:59Z</time>
      </trkpt>
      <trkpt lat="48.08477" lon="-4.51847">
        <ele>82.33</ele>
        <time>2017-05-26T09:08:03Z</time>
      </trkpt>
      <trkpt lat="48.0849" lon="-4.51859">
        <ele>81.85</ele>
        <time>2017-05-26T09:08:17Z</time>
      </trkpt>
      <trkpt lat="48.0849" lon="-4.5186">
        <ele>81.85</ele>
        <time>2017-05-26T09:08:18Z</time>
      </trkpt>
      <trkpt lat="48.08491" lon="-4.51862">
        <ele>81.85</ele>
        <time>2017-05-26T09:08:20Z</time>
      </trkpt>
      <trkpt lat="48.08499" lon="-4.51869">
        <ele>81.37</ele>
        <time>2017-05-26T09:08:27Z</time>
      </trkpt>
      <trkpt lat="48.08501" lon="-4.5187">
        <ele>81.37</ele>
        <time>2017-05-26T09:08:29Z</time>
      </trkpt>
      <trkpt lat="48.08503" lon="-4.51871">
        <ele>81.85</ele>
        <time>2017-05-26T09:08:31Z</time>
      </trkpt>
      <trkpt lat="48.08509" lon="-4.5187">
        <ele>80.89</ele>
        <time>2017-05-26T09:08:36Z</time>
      </trkpt>
      <trkpt lat="48.08519" lon="-4.51865">
        <ele>79.93</ele>
        <time>2017-05-26T09:08:44Z</time>
      </trkpt>
      <trkpt lat="48.08524" lon="-4.51865">
        <ele>78.97</ele>
        <time>2017-05-26T09:08:48Z</time>
      </trkpt>
      <trkpt lat="48.08541" lon="-4.51872">
        <ele>78.97</ele>
        <time>2017-05-26T09:09:04Z</time>
      </trkpt>
      <trkpt lat="48.08547" lon="-4.51872">
        <ele>78.48</ele>
        <time>2017-05-26T09:09:10Z</time>
      </trkpt>
      <trkpt lat="48.08563" lon="-4.5187">
        <ele>75.6</ele>
        <time>2017-05-26T09:09:26Z</time>
      </trkpt>
      <trkpt lat="48.08569" lon="-4.51869">
        <ele>75.6</ele>
        <time>2017-05-26T09:09:32Z</time>
      </trkpt>
      <trkpt lat="48.08578" lon="-4.51872">
        <ele>75.12</ele>
        <time>2017-05-26T09:09:40Z</time>
      </trkpt>
      <trkpt lat="48.08586" lon="-4.51878">
        <ele>74.16</ele>
        <time>2017-05-26T09:09:48Z</time>
      </trkpt>
      <trkpt lat="48.08596" lon="-4.51883">
        <ele>73.2</ele>
        <time>2017-05-26T09:09:55Z</time>
      </trkpt>
      <trkpt lat="48.08608" lon="-4.51889">
        <ele>71.27</ele>
        <time>2017-05-26T09:10:07Z</time>
      </trkpt>
      <trkpt lat="48.08623" lon="-4.51902">
        <ele>68.87</ele>
        <time>2017-05-26T09:10:22Z</time>
      </trkpt>
      <trkpt lat="48.08625" lon="-4.51904">
        <ele>68.87</ele>
        <time>2017-05-26T09:10:24Z</time>
      </trkpt>
      <trkpt lat="48.0864" lon="-4.51915">
        <ele>67.43</ele>
        <time>2017-05-26T09:10:37Z</time>
      </trkpt>
      <trkpt lat="48.08648" lon="-4.51924">
        <ele>65.99</ele>
        <time>2017-05-26T09:10:46Z</time>
      </trkpt>
      <trkpt lat="48.08651" lon="-4.51927">
        <ele>64.55</ele>
        <time>2017-05-26T09:10:50Z</time>
      </trkpt>
      <trkpt lat="48.08662" lon="-4.5194">
        <ele>63.58</ele>
        <time>2017-05-26T09:11:04Z</time>
      </trkpt>
      <trkpt lat="48.08676" lon="-4.51954">
        <ele>61.66</ele>
        <time>2017-05-26T09:11:18Z</time>
      </trkpt>
      <trkpt lat="48.0868" lon="-4.51958">
        <ele>60.7</ele>
        <time>2017-05-26T09:11:23Z</time>
      </trkpt>
      <trkpt lat="48.08682" lon="-4.51962">
        <ele>60.22</ele>
        <time>2017-05-26T09:11:26Z</time>
      </trkpt>
      <trkpt lat="48.08682" lon="-4.51971">
        <ele>58.78</ele>
        <time>2017-05-26T09:11:32Z</time>
      </trkpt>
      <trkpt lat="48.08685" lon="-4.51987">
        <ele>55.89</ele>
        <time>2017-05-26T09:11:44Z</time>
      </trkpt>
      <trkpt lat="48.08697" lon="-4.51998">
        <ele>52.05</ele>
        <time>2017-05-26T09:11:58Z</time>
      </trkpt>
      <trkpt lat="48.08705" lon="-4.52007">
        <ele>48.2</ele>
        <time>2017-05-26T09:12:11Z</time>
      </trkpt>
      <trkpt lat="48.08709" lon="-4.52019">
        <ele>46.28</ele>
        <time>2017-05-26T09:12:24Z</time>
      </trkpt>
      <trkpt lat="48.08726" lon="-4.52024">
        <ele>45.32</ele>
        <time>2017-05-26T09:12:40Z</time>
      </trkpt>
      <trkpt lat="48.08726" lon="-4.52025">
        <ele>44.84</ele>
        <time>2017-05-26T09:12:41Z</time>
      </trkpt>
      <trkpt lat="48.08734" lon="-4.52037">
        <ele>43.4</ele>
        <time>2017-05-26T09:12:54Z</time>
      </trkpt>
      <trkpt lat="48.08751" lon="-4.52038">
        <ele>40.99</ele>
        <time>2017-05-26T09:13:07Z</time>
      </trkpt>
      <trkpt lat="48.0876" lon="-4.52038">
        <ele>39.55</ele>
        <time>2017-05-26T09:13:15Z</time>
      </trkpt>
      <trkpt lat="48.08768" lon="-4.5204">
        <ele>39.07</ele>
        <time>2017-05-26T09:13:22Z</time>
      </trkpt>
      <trkpt lat="48.08788" lon="-4.52037">
        <ele>38.11</ele>
        <time>2017-05-26T09:13:37Z</time>
      </trkpt>
      <trkpt lat="48.08796" lon="-4.52034">
        <ele>36.67</ele>
        <time>2017-05-26T09:13:44Z</time>
      </trkpt>
      <trkpt lat="48.08817" lon="-4.52021">
        <ele>36.19</ele>
        <time>2017-05-26T09:14:00Z</time>
      </trkpt>
      <trkpt lat="48.08821" lon="-4.52011">
        <ele>35.71</ele>
        <time>2017-05-26T09:14:06Z</time>
      </trkpt>
      <trkpt lat="48.08805" lon="-4.51995">
        <ele>33.3</ele>
        <time>2017-05-26T09:14:22Z</time>
      </trkpt>
      <trkpt lat="48.08797" lon="-4.51991">
        <ele>33.3</ele>
        <time>2017-05-26T09:14:29Z</time>
      </trkpt>
      <trkpt lat="48.08787" lon="-4.5199">
        <ele>33.3</ele>
        <time>2017-05-26T09:14:37Z</time>
      </trkpt>
      <trkpt lat="48.0877" lon="-4.51972">
        <ele>32.34</ele>
        <time>2017-05-26T09:14:53Z</time>
      </trkpt>
      <trkpt lat="48.08762" lon="-4.51953">
        <ele>33.3</ele>
        <time>2017-05-26T09:15:08Z</time>
      </trkpt>
      <trkpt lat="48.08762" lon="-4.51951">
        <ele>33.3</ele>
        <time>2017-05-26T09:15:09Z</time>
      </trkpt>
      <trkpt lat="48.08763" lon="-4.51943">
        <ele>32.82</ele>
        <time>2017-05-26T09:15:14Z</time>
      </trkpt>
      <trkpt lat="48.08764" lon="-4.51937">
        <ele>33.3</ele>
        <time>2017-05-26T09:15:17Z</time>
      </trkpt>
      <trkpt lat="48.08768" lon="-4.51914">
        <ele>33.3</ele>
        <time>2017-05-26T09:15:30Z</time>
      </trkpt>
      <trkpt lat="48.0877" lon="-4.51909">
        <ele>32.82</ele>
        <time>2017-05-26T09:15:34Z</time>
      </trkpt>
      <trkpt lat="48.08775" lon="-4.51887">
        <ele>31.86</ele>
        <time>2017-05-26T09:15:47Z</time>
      </trkpt>
      <trkpt lat="48.08781" lon="-4.5186">
        <ele>31.38</ele>
        <time>2017-05-26T09:16:01Z</time>
      </trkpt>
      <trkpt lat="48.08785" lon="-4.51849">
        <ele>31.86</ele>
        <time>2017-05-26T09:16:11Z</time>
      </trkpt>
      <trkpt lat="48.0878" lon="-4.51826">
        <ele>32.34</ele>
        <time>2017-05-26T09:16:25Z</time>
      </trkpt>
      <trkpt lat="48.08781" lon="-4.51825">
        <ele>32.34</ele>
        <time>2017-05-26T09:16:26Z</time>
      </trkpt>
      <trkpt lat="48.0878" lon="-4.51811">
        <ele>32.82</ele>
        <time>2017-05-26T09:16:39Z</time>
      </trkpt>
      <trkpt lat="48.0878" lon="-4.51805">
        <ele>32.34</ele>
        <time>2017-05-26T09:16:45Z</time>
      </trkpt>
      <trkpt lat="48.08775" lon="-4.51791">
        <ele>31.86</ele>
        <time>2017-05-26T09:16:56Z</time>
      </trkpt>
      <trkpt lat="48.08776" lon="-4.51789">
        <ele>31.86</ele>
        <time>2017-05-26T09:16:57Z</time>
      </trkpt>
      <trkpt lat="48.08775" lon="-4.51783">
        <ele>31.38</ele>
        <time>2017-05-26T09:17:01Z</time>
      </trkpt>
      <trkpt lat="48.08774" lon="-4.51763">
        <ele>30.9</ele>
        <time>2017-05-26T09:17:12Z</time>
      </trkpt>
      <trkpt lat="48.08775" lon="-4.51742">
        <ele>28.5</ele>
        <time>2017-05-26T09:17:25Z</time>
      </trkpt>
      <trkpt lat="48.08784" lon="-4.51715">
        <ele>28.5</ele>
        <time>2017-05-26T09:17:40Z</time>
      </trkpt>
      <trkpt lat="48.08783" lon="-4.51708">
        <ele>28.98</ele>
        <time>2017-05-26T09:17:43Z</time>
      </trkpt>
      <trkpt lat="48.08782" lon="-4.51699">
        <ele>28.98</ele>
        <time>2017-05-26T09:17:50Z</time>
      </trkpt>
      <trkpt lat="48.08786" lon="-4.51694">
        <ele>28.5</ele>
        <time>2017-05-26T09:17:54Z</time>
      </trkpt>
      <trkpt lat="48.0879" lon="-4.51687">
        <ele>28.98</ele>
        <time>2017-05-26T09:17:58Z</time>
      </trkpt>
      <trkpt lat="48.0879" lon="-4.5168">
        <ele>29.46</ele>
        <time>2017-05-26T09:18:03Z</time>
      </trkpt>
      <trkpt lat="48.08785" lon="-4.51665">
        <ele>29.46</ele>
        <time>2017-05-26T09:18:14Z</time>
      </trkpt>
      <trkpt lat="48.08778" lon="-4.51648">
        <ele>29.94</ele>
        <time>2017-05-26T09:18:22Z</time>
      </trkpt>
      <trkpt lat="48.08778" lon="-4.51633">
        <ele>29.94</ele>
        <time>2017-05-26T09:18:30Z</time>
      </trkpt>
      <trkpt lat="48.08774" lon="-4.51619">
        <ele>29.46</ele>
        <time>2017-05-26T09:18:39Z</time>
      </trkpt>
      <trkpt lat="48.08767" lon="-4.51592">
        <ele>28.98</ele>
        <time>2017-05-26T09:18:54Z</time>
      </trkpt>
      <trkpt lat="48.08758" lon="-4.5157">
        <ele>27.05</ele>
        <time>2017-05-26T09:19:08Z</time>
      </trkpt>
      <trkpt lat="48.08753" lon="-4.51561">
        <ele>26.57</ele>
        <time>2017-05-26T09:19:21Z</time>
      </trkpt>
      <trkpt lat="48.08757" lon="-4.51558">
        <ele>26.09</ele>
        <time>2017-05-26T09:19:39Z</time>
      </trkpt>
      <trkpt lat="48.08758" lon="-4.51558">
        <ele>26.09</ele>
        <time>2017-05-26T09:19:40Z</time>
      </trkpt>
      <trkpt lat="48.08776" lon="-4.51566">
        <ele>24.65</ele>
        <time>2017-05-26T09:19:55Z</time>
      </trkpt>
      <trkpt lat="48.08797" lon="-4.51581">
        <ele>24.65</ele>
        <time>2017-05-26T09:20:10Z</time>
      </trkpt>
      <trkpt lat="48.08801" lon="-4.51582">
        <ele>25.13</ele>
        <time>2017-05-26T09:20:13Z</time>
      </trkpt>
      <trkpt lat="48.08812" lon="-4.51585">
        <ele>26.57</ele>
        <time>2017-05-26T09:20:20Z</time>
      </trkpt>
      <trkpt lat="48.08829" lon="-4.51598">
        <ele>26.09</ele>
        <time>2017-05-26T09:20:35Z</time>
      </trkpt>
      <trkpt lat="48.08835" lon="-4.51603">
        <ele>25.61</ele>
        <time>2017-05-26T09:20:39Z</time>
      </trkpt>
      <trkpt lat="48.0885" lon="-4.51612">
        <ele>22.73</ele>
        <time>2017-05-26T09:20:54Z</time>
      </trkpt>
      <trkpt lat="48.08858" lon="-4.51607">
        <ele>22.25</ele>
        <time>2017-05-26T09:21:06Z</time>
      </trkpt>
      <trkpt lat="48.08852" lon="-4.51585">
        <ele>27.05</ele>
        <time>2017-05-26T09:21:21Z</time>
      </trkpt>
      <trkpt lat="48.08851" lon="-4.51584">
        <ele>27.05</ele>
        <time>2017-05-26T09:21:22Z</time>
      </trkpt>
      <trkpt lat="48.08847" lon="-4.51574">
        <ele>28.5</ele>
        <time>2017-05-26T09:21:28Z</time>
      </trkpt>
      <trkpt lat="48.08844" lon="-4.51566">
        <ele>29.46</ele>
        <time>2017-05-26T09:21:33Z</time>
      </trkpt>
      <trkpt lat="48.08843" lon="-4.5156">
        <ele>29.46</ele>
        <time>2017-05-26T09:21:35Z</time>
      </trkpt>
      <trkpt lat="48.08844" lon="-4.51554">
        <ele>29.94</ele>
        <time>2017-05-26T09:21:39Z</time>
      </trkpt>
      <trkpt lat="48.08846" lon="-4.5155">
        <ele>30.42</ele>
        <time>2017-05-26T09:21:42Z</time>
      </trkpt>
      <trkpt lat="48.08848" lon="-4.51548">
        <ele>30.42</ele>
        <time>2017-05-26T09:21:44Z</time>
      </trkpt>
      <trkpt lat="48.0886" lon="-4.51541">
        <ele>31.86</ele>
        <time>2017-05-26T09:21:54Z</time>
      </trkpt>
      <trkpt lat="48.08866" lon="-4.51515">
        <ele>33.78</ele>
        <time>2017-05-26T09:22:09Z</time>
      </trkpt>
      <trkpt lat="48.08862" lon="-4.51505">
        <ele>35.23</ele>
        <time>2017-05-26T09:22:22Z</time>
      </trkpt>
      <trkpt lat="48.08852" lon="-4.51491">
        <ele>39.07</ele>
        <time>2017-05-26T09:22:37Z</time>
      </trkpt>
      <trkpt lat="48.08845" lon="-4.51485">
        <ele>40.51</ele>
        <time>2017-05-26T09:22:48Z</time>
      </trkpt>
      <trkpt lat="48.0884" lon="-4.51483">
        <ele>41.47</ele>
        <time>2017-05-26T09:22:56Z</time>
      </trkpt>
      <trkpt lat="48.08834" lon="-4.51468">
        <ele>42.92</ele>
        <time>2017-05-26T09:23:08Z</time>
      </trkpt>
      <trkpt lat="48.08829" lon="-4.51454">
        <ele>45.8</ele>
        <time>2017-05-26T09:23:22Z</time>
      </trkpt>
      <trkpt lat="48.08829" lon="-4.51446">
        <ele>46.76</ele>
        <time>2017-05-26T09:23:30Z</time>
      </trkpt>
      <trkpt lat="48.08829" lon="-4.51424">
        <ele>48.68</ele>
        <time>2017-05-26T09:23:42Z</time>
      </trkpt>
      <trkpt lat="48.08829" lon="-4.51395">
        <ele>50.13</ele>
        <time>2017-05-26T09:23:57Z</time>
      </trkpt>
      <trkpt lat="48.08832" lon="-4.51359">
        <ele>51.57</ele>
        <time>2017-05-26T09:24:11Z</time>
      </trkpt>
      <trkpt lat="48.08835" lon="-4.51334">
        <ele>50.61</ele>
        <time>2017-05-26T09:24:26Z</time>
      </trkpt>
      <trkpt lat="48.08838" lon="-4.51327">
        <ele>50.13</ele>
        <time>2017-05-26T09:24:30Z</time>
      </trkpt>
      <trkpt lat="48.08845" lon="-4.51311">
        <ele>48.68</ele>
        <time>2017-05-26T09:24:39Z</time>
      </trkpt>
      <trkpt lat="48.08853" lon="-4.51299">
        <ele>47.24</ele>
        <time>2017-05-26T09:24:46Z</time>
      </trkpt>
      <trkpt lat="48.08859" lon="-4.51292">
        <ele>44.84</ele>
        <time>2017-05-26T09:24:54Z</time>
      </trkpt>
      <trkpt lat="48.08864" lon="-4.51282">
        <ele>44.36</ele>
        <time>2017-05-26T09:25:00Z</time>
      </trkpt>
      <trkpt lat="48.08882" lon="-4.51265">
        <ele>41.95</ele>
        <time>2017-05-26T09:25:16Z</time>
      </trkpt>
      <trkpt lat="48.08882" lon="-4.51265">
        <ele>41.95</ele>
        <time>2017-05-26T09:25:17Z</time>
      </trkpt>
      <trkpt lat="48.08898" lon="-4.5127">
        <ele>37.63</ele>
        <time>2017-05-26T09:25:30Z</time>
      </trkpt>
      <trkpt lat="48.08899" lon="-4.51263">
        <ele>38.11</ele>
        <time>2017-05-26T09:25:36Z</time>
      </trkpt>
      <trkpt lat="48.089" lon="-4.51254">
        <ele>39.07</ele>
        <time>2017-05-26T09:25:42Z</time>
      </trkpt>
      <trkpt lat="48.08898" lon="-4.51227">
        <ele>40.03</ele>
        <time>2017-05-26T09:25:57Z</time>
      </trkpt>
      <trkpt lat="48.08894" lon="-4.51196">
        <ele>38.11</ele>
        <time>2017-05-26T09:26:10Z</time>
      </trkpt>
      <trkpt lat="48.08895" lon="-4.51168">
        <ele>38.59</ele>
        <time>2017-05-26T09:26:24Z</time>
      </trkpt>
      <trkpt lat="48.08902" lon="-4.51145">
        <ele>36.19</ele>
        <time>2017-05-26T09:26:38Z</time>
      </trkpt>
      <trkpt lat="48.08913" lon="-4.51138">
        <ele>33.78</ele>
        <time>2017-05-26T09:26:52Z</time>
      </trkpt>
      <trkpt lat="48.08913" lon="-4.51128">
        <ele>33.3</ele>
        <time>2017-05-26T09:26:57Z</time>
      </trkpt>
      <trkpt lat="48.08916" lon="-4.51108">
        <ele>33.3</ele>
        <time>2017-05-26T09:27:06Z</time>
      </trkpt>
      <trkpt lat="48.08919" lon="-4.51095">
        <ele>30.42</ele>
        <time>2017-05-26T09:27:17Z</time>
      </trkpt>
      <trkpt lat="48.0892" lon="-4.51076">
        <ele>29.46</ele>
        <time>2017-05-26T09:27:28Z</time>
      </trkpt>
      <trkpt lat="48.08921" lon="-4.51071">
        <ele>28.98</ele>
        <time>2017-05-26T09:27:32Z</time>
      </trkpt>
      <trkpt lat="48.08922" lon="-4.51056">
        <ele>28.5</ele>
        <time>2017-05-26T09:27:40Z</time>
      </trkpt>
      <trkpt lat="48.0892" lon="-4.51048">
        <ele>28.02</ele>
        <time>2017-05-26T09:27:45Z</time>
      </trkpt>
      <trkpt lat="48.08914" lon="-4.51038">
        <ele>28.5</ele>
        <time>2017-05-26T09:27:52Z</time>
      </trkpt>
      <trkpt lat="48.08892" lon="-4.51023">
        <ele>28.98</ele>
        <time>2017-05-26T09:28:07Z</time>
      </trkpt>
      <trkpt lat="48.08879" lon="-4.50997">
        <ele>28.5</ele>
        <time>2017-05-26T09:28:22Z</time>
      </trkpt>
      <trkpt lat="48.08866" lon="-4.50983">
        <ele>29.94</ele>
        <time>2017-05-26T09:28:36Z</time>
      </trkpt>
      <trkpt lat="48.08847" lon="-4.50962">
        <ele>28.98</ele>
        <time>2017-05-26T09:28:53Z</time>
      </trkpt>
      <trkpt lat="48.08842" lon="-4.50958">
        <ele>28.98</ele>
        <time>2017-05-26T09:28:58Z</time>
      </trkpt>
      <trkpt lat="48.08847" lon="-4.50921">
        <ele>28.98</ele>
        <time>2017-05-26T09:29:12Z</time>
      </trkpt>
      <trkpt lat="48.08847" lon="-4.50916">
        <ele>28.02</ele>
        <time>2017-05-26T09:29:20Z</time>
      </trkpt>
      <trkpt lat="48.08855" lon="-4.50899">
        <ele>26.57</ele>
        <time>2017-05-26T09:29:31Z</time>
      </trkpt>
      <trkpt lat="48.08859" lon="-4.50881">
        <ele>27.05</ele>
        <time>2017-05-26T09:29:44Z</time>
      </trkpt>
      <trkpt lat="48.08868" lon="-4.50871">
        <ele>28.5</ele>
        <time>2017-05-26T09:29:57Z</time>
      </trkpt>
      <trkpt lat="48.08869" lon="-4.5087">
        <ele>28.02</ele>
        <time>2017-05-26T09:29:58Z</time>
      </trkpt>
      <trkpt lat="48.08879" lon="-4.50858">
        <ele>29.46</ele>
        <time>2017-05-26T09:30:06Z</time>
      </trkpt>
      <trkpt lat="48.08889" lon="-4.50846">
        <ele>29.94</ele>
        <time>2017-05-26T09:30:17Z</time>
      </trkpt>
      <trkpt lat="48.08897" lon="-4.50835">
        <ele>30.42</ele>
        <time>2017-05-26T09:30:24Z</time>
      </trkpt>
      <trkpt lat="48.08903" lon="-4.50829">
        <ele>30.42</ele>
        <time>2017-05-26T09:30:30Z</time>
      </trkpt>
      <trkpt lat="48.08908" lon="-4.50804">
        <ele>30.9</ele>
        <time>2017-05-26T09:30:43Z</time>
      </trkpt>
      <trkpt lat="48.08917" lon="-4.50778">
        <ele>28.98</ele>
        <time>2017-05-26T09:30:58Z</time>
      </trkpt>
      <trkpt lat="48.08921" lon="-4.50768">
        <ele>26.57</ele>
        <time>2017-05-26T09:31:13Z</time>
      </trkpt>
      <trkpt lat="48.08921" lon="-4.50768">
        <ele>26.57</ele>
        <time>2017-05-26T09:31:38Z</time>
      </trkpt>
      <trkpt lat="48.08922" lon="-4.50765">
        <ele>27.05</ele>
        <time>2017-05-26T09:31:56Z</time>
      </trkpt>
      <trkpt lat="48.08921" lon="-4.50765">
        <ele>27.05</ele>
        <time>2017-05-26T09:32:33Z</time>
      </trkpt>
      <trkpt lat="48.08921" lon="-4.50765">
        <ele>27.05</ele>
        <time>2017-05-26T09:33:08Z</time>
      </trkpt>
      <trkpt lat="48.08922" lon="-4.50765">
        <ele>27.05</ele>
        <time>2017-05-26T09:33:45Z</time>
      </trkpt>
      <trkpt lat="48.08921" lon="-4.50765">
        <ele>27.05</ele>
        <time>2017-05-26T09:34:23Z</time>
      </trkpt>
      <trkpt lat="48.08921" lon="-4.50765">
        <ele>27.05</ele>
        <time>2017-05-26T09:34:58Z</time>
      </trkpt>
      <trkpt lat="48.08921" lon="-4.50765">
        <ele>27.05</ele>
        <time>2017-05-26T09:35:33Z</time>
      </trkpt>
      <trkpt lat="48.08921" lon="-4.50765">
        <ele>27.05</ele>
        <time>2017-05-26T09:36:13Z</time>
      </trkpt>
      <trkpt lat="48.08921" lon="-4.50764">
        <ele>26.57</ele>
        <time>2017-05-26T09:36:42Z</time>
      </trkpt>
      <trkpt lat="48.08921" lon="-4.50764">
        <ele>26.09</ele>
        <time>2017-05-26T09:37:19Z</time>
      </trkpt>
      <trkpt lat="48.08921" lon="-4.50764">
        <ele>25.61</ele>
        <time>2017-05-26T09:37:40Z</time>
      </trkpt>
      <trkpt lat="48.08921" lon="-4.50758">
        <ele>25.13</ele>
        <time>2017-05-26T09:37:52Z</time>
      </trkpt>
      <trkpt lat="48.08919" lon="-4.50749">
        <ele>25.61</ele>
        <time>2017-05-26T09:38:06Z</time>
      </trkpt>
      <trkpt lat="48.0891" lon="-4.50737">
        <ele>26.57</ele>
        <time>2017-05-26T09:38:17Z</time>
      </trkpt>
      <trkpt lat="48.08908" lon="-4.50735">
        <ele>26.57</ele>
        <time>2017-05-26T09:38:26Z</time>
      </trkpt>
      <trkpt lat="48.08905" lon="-4.50731">
        <ele>27.05</ele>
        <time>2017-05-26T09:38:30Z</time>
      </trkpt>
      <trkpt lat="48.0889" lon="-4.50719">
        <ele>28.02</ele>
        <time>2017-05-26T09:38:44Z</time>
      </trkpt>
      <trkpt lat="48.08873" lon="-4.5071">
        <ele>28.98</ele>
        <time>2017-05-26T09:39:00Z</time>
      </trkpt>
      <trkpt lat="48.08857" lon="-4.50699">
        <ele>28.5</ele>
        <time>2017-05-26T09:39:14Z</time>
      </trkpt>
      <trkpt lat="48.08852" lon="-4.5069">
        <ele>28.02</ele>
        <time>2017-05-26T09:39:21Z</time>
      </trkpt>
      <trkpt lat="48.08848" lon="-4.50679">
        <ele>27.53</ele>
        <time>2017-05-26T09:39:28Z</time>
      </trkpt>
      <trkpt lat="48.0885" lon="-4.50668">
        <ele>26.57</ele>
        <time>2017-05-26T09:39:34Z</time>
      </trkpt>
      <trkpt lat="48.08849" lon="-4.50649">
        <ele>27.05</ele>
        <time>2017-05-26T09:39:41Z</time>
      </trkpt>
      <trkpt lat="48.08848" lon="-4.50643">
        <ele>27.53</ele>
        <time>2017-05-26T09:39:44Z</time>
      </trkpt>
      <trkpt lat="48.08848" lon="-4.5064">
        <ele>28.02</ele>
        <time>2017-05-26T09:39:46Z</time>
      </trkpt>
      <trkpt lat="48.08847" lon="-4.50634">
        <ele>31.38</ele>
        <time>2017-05-26T09:39:51Z</time>
      </trkpt>
      <trkpt lat="48.08846" lon="-4.50622">
        <ele>33.78</ele>
        <time>2017-05-26T09:39:57Z</time>
      </trkpt>
      <trkpt lat="48.08842" lon="-4.50617">
        <ele>35.71</ele>
        <time>2017-05-26T09:40:03Z</time>
      </trkpt>
      <trkpt lat="48.08825" lon="-4.50611">
        <ele>41.47</ele>
        <time>2017-05-26T09:40:21Z</time>
      </trkpt>
      <trkpt lat="48.08806" lon="-4.50597">
        <ele>46.76</ele>
        <time>2017-05-26T09:40:37Z</time>
      </trkpt>
      <trkpt lat="48.088" lon="-4.50586">
        <ele>48.2</ele>
        <time>2017-05-26T09:40:52Z</time>
      </trkpt>
      <trkpt lat="48.08791" lon="-4.50582">
        <ele>47.24</ele>
        <time>2017-05-26T09:41:08Z</time>
      </trkpt>
      <trkpt lat="48.08779" lon="-4.5056">
        <ele>47.24</ele>
        <time>2017-05-26T09:41:25Z</time>
      </trkpt>
      <trkpt lat="48.08774" lon="-4.5054">
        <ele>47.72</ele>
        <time>2017-05-26T09:41:41Z</time>
      </trkpt>
      <trkpt lat="48.08778" lon="-4.50515">
        <ele>45.8</ele>
        <time>2017-05-26T09:41:54Z</time>
      </trkpt>
      <trkpt lat="48.08778" lon="-4.50498">
        <ele>45.8</ele>
        <time>2017-05-26T09:42:02Z</time>
      </trkpt>
      <trkpt lat="48.08777" lon="-4.50482">
        <ele>45.8</ele>
        <time>2017-05-26T09:42:09Z</time>
      </trkpt>
      <trkpt lat="48.08776" lon="-4.50454">
        <ele>47.24</ele>
        <time>2017-05-26T09:42:23Z</time>
      </trkpt>
      <trkpt lat="48.08773" lon="-4.50428">
        <ele>45.8</ele>
        <time>2017-05-26T09:42:39Z</time>
      </trkpt>
      <trkpt lat="48.08773" lon="-4.50426">
        <ele>45.8</ele>
        <time>2017-05-26T09:42:40Z</time>
      </trkpt>
      <trkpt lat="48.08774" lon="-4.50414">
        <ele>45.8</ele>
        <time>2017-05-26T09:42:46Z</time>
      </trkpt>
      <trkpt lat="48.0877" lon="-4.50403">
        <ele>45.8</ele>
        <time>2017-05-26T09:42:52Z</time>
      </trkpt>
      <trkpt lat="48.08772" lon="-4.50376">
        <ele>44.84</ele>
        <time>2017-05-26T09:43:06Z</time>
      </trkpt>
      <trkpt lat="48.08776" lon="-4.50349">
        <ele>41.47</ele>
        <time>2017-05-26T09:43:19Z</time>
      </trkpt>
      <trkpt lat="48.08779" lon="-4.50339">
        <ele>39.55</ele>
        <time>2017-05-26T09:43:25Z</time>
      </trkpt>
      <trkpt lat="48.08779" lon="-4.5032">
        <ele>37.15</ele>
        <time>2017-05-26T09:43:34Z</time>
      </trkpt>
      <trkpt lat="48.08776" lon="-4.50298">
        <ele>34.74</ele>
        <time>2017-05-26T09:43:43Z</time>
      </trkpt>
      <trkpt lat="48.08777" lon="-4.5028">
        <ele>32.34</ele>
        <time>2017-05-26T09:43:51Z</time>
      </trkpt>
      <trkpt lat="48.08792" lon="-4.50259">
        <ele>30.9</ele>
        <time>2017-05-26T09:44:08Z</time>
      </trkpt>
      <trkpt lat="48.08796" lon="-4.50258">
        <ele>30.42</ele>
        <time>2017-05-26T09:44:11Z</time>
      </trkpt>
      <trkpt lat="48.08805" lon="-4.50254">
        <ele>31.86</ele>
        <time>2017-05-26T09:44:16Z</time>
      </trkpt>
      <trkpt lat="48.08827" lon="-4.50247">
        <ele>33.78</ele>
        <time>2017-05-26T09:44:32Z</time>
      </trkpt>
      <trkpt lat="48.0884" lon="-4.50244">
        <ele>34.26</ele>
        <time>2017-05-26T09:44:41Z</time>
      </trkpt>
      <trkpt lat="48.08858" lon="-4.50245">
        <ele>35.71</ele>
        <time>2017-05-26T09:44:54Z</time>
      </trkpt>
      <trkpt lat="48.0887" lon="-4.50245">
        <ele>36.67</ele>
        <time>2017-05-26T09:45:12Z</time>
      </trkpt>
      <trkpt lat="48.08877" lon="-4.50252">
        <ele>36.19</ele>
        <time>2017-05-26T09:45:20Z</time>
      </trkpt>
      <trkpt lat="48.089" lon="-4.5027">
        <ele>38.59</ele>
        <time>2017-05-26T09:45:37Z</time>
      </trkpt>
      <trkpt lat="48.08921" lon="-4.50285">
        <ele>35.71</ele>
        <time>2017-05-26T09:45:53Z</time>
      </trkpt>
      <trkpt lat="48.08936" lon="-4.50294">
        <ele>29.94</ele>
        <time>2017-05-26T09:46:07Z</time>
      </trkpt>
      <trkpt lat="48.08937" lon="-4.50293">
        <ele>29.46</ele>
        <time>2017-05-26T09:46:08Z</time>
      </trkpt>
      <trkpt lat="48.08939" lon="-4.5028">
        <ele>27.53</ele>
        <time>2017-05-26T09:46:14Z</time>
      </trkpt>
      <trkpt lat="48.08939" lon="-4.50273">
        <ele>26.57</ele>
        <time>2017-05-26T09:46:18Z</time>
      </trkpt>
      <trkpt lat="48.08943" lon="-4.50247">
        <ele>28.5</ele>
        <time>2017-05-26T09:46:34Z</time>
      </trkpt>
      <trkpt lat="48.08947" lon="-4.50228">
        <ele>29.94</ele>
        <time>2017-05-26T09:46:47Z</time>
      </trkpt>
      <trkpt lat="48.08954" lon="-4.50218">
        <ele>29.94</ele>
        <time>2017-05-26T09:46:52Z</time>
      </trkpt>
      <trkpt lat="48.08957" lon="-4.50216">
        <ele>29.94</ele>
        <time>2017-05-26T09:46:54Z</time>
      </trkpt>
      <trkpt lat="48.08966" lon="-4.50206">
        <ele>30.9</ele>
        <time>2017-05-26T09:47:05Z</time>
      </trkpt>
      <trkpt lat="48.08972" lon="-4.50199">
        <ele>31.86</ele>
        <time>2017-05-26T09:47:25Z</time>
      </trkpt>
      <trkpt lat="48.08973" lon="-4.50198">
        <ele>31.86</ele>
        <time>2017-05-26T09:47:26Z</time>
      </trkpt>
      <trkpt lat="48.08981" lon="-4.50193">
        <ele>30.9</ele>
        <time>2017-05-26T09:47:32Z</time>
      </trkpt>
      <trkpt lat="48.08998" lon="-4.50176">
        <ele>29.94</ele>
        <time>2017-05-26T09:47:48Z</time>
      </trkpt>
      <trkpt lat="48.09007" lon="-4.50164">
        <ele>28.98</ele>
        <time>2017-05-26T09:48:00Z</time>
      </trkpt>
      <trkpt lat="48.09008" lon="-4.50162">
        <ele>28.5</ele>
        <time>2017-05-26T09:48:02Z</time>
      </trkpt>
      <trkpt lat="48.09017" lon="-4.50142">
        <ele>26.57</ele>
        <time>2017-05-26T09:48:16Z</time>
      </trkpt>
      <trkpt lat="48.09021" lon="-4.5012">
        <ele>24.65</ele>
        <time>2017-05-26T09:48:29Z</time>
      </trkpt>
      <trkpt lat="48.09024" lon="-4.50111">
        <ele>24.65</ele>
        <time>2017-05-26T09:48:34Z</time>
      </trkpt>
      <trkpt lat="48.09026" lon="-4.50103">
        <ele>23.21</ele>
        <time>2017-05-26T09:48:46Z</time>
      </trkpt>
      <trkpt lat="48.09025" lon="-4.50078">
        <ele>23.69</ele>
        <time>2017-05-26T09:48:59Z</time>
      </trkpt>
      <trkpt lat="48.09023" lon="-4.50073">
        <ele>24.17</ele>
        <time>2017-05-26T09:49:02Z</time>
      </trkpt>
      <trkpt lat="48.09014" lon="-4.5007">
        <ele>24.17</ele>
        <time>2017-05-26T09:49:11Z</time>
      </trkpt>
      <trkpt lat="48.09009" lon="-4.50072">
        <ele>24.17</ele>
        <time>2017-05-26T09:49:15Z</time>
      </trkpt>
      <trkpt lat="48.09003" lon="-4.50071">
        <ele>24.65</ele>
        <time>2017-05-26T09:49:21Z</time>
      </trkpt>
      <trkpt lat="48.08994" lon="-4.50068">
        <ele>24.65</ele>
        <time>2017-05-26T09:49:29Z</time>
      </trkpt>
      <trkpt lat="48.08972" lon="-4.50062">
        <ele>24.17</ele>
        <time>2017-05-26T09:49:43Z</time>
      </trkpt>
      <trkpt lat="48.08953" lon="-4.50056">
        <ele>23.21</ele>
        <time>2017-05-26T09:50:00Z</time>
      </trkpt>
      <trkpt lat="48.08946" lon="-4.5003">
        <ele>23.69</ele>
        <time>2017-05-26T09:50:14Z</time>
      </trkpt>
      <trkpt lat="48.0894" lon="-4.50024">
        <ele>23.21</ele>
        <time>2017-05-26T09:50:21Z</time>
      </trkpt>
      <trkpt lat="48.08919" lon="-4.50021">
        <ele>24.65</ele>
        <time>2017-05-26T09:50:35Z</time>
      </trkpt>
      <trkpt lat="48.08916" lon="-4.50019">
        <ele>25.13</ele>
        <time>2017-05-26T09:50:40Z</time>
      </trkpt>
      <trkpt lat="48.08899" lon="-4.50014">
        <ele>26.57</ele>
        <time>2017-05-26T09:50:53Z</time>
      </trkpt>
      <trkpt lat="48.08881" lon="-4.50011">
        <ele>27.53</ele>
        <time>2017-05-26T09:51:08Z</time>
      </trkpt>
      <trkpt lat="48.08865" lon="-4.49996">
        <ele>28.98</ele>
        <time>2017-05-26T09:51:23Z</time>
      </trkpt>
      <trkpt lat="48.08854" lon="-4.49972">
        <ele>30.9</ele>
        <time>2017-05-26T09:51:39Z</time>
      </trkpt>
      <trkpt lat="48.08846" lon="-4.49952">
        <ele>32.34</ele>
        <time>2017-05-26T09:51:51Z</time>
      </trkpt>
      <trkpt lat="48.0883" lon="-4.49927">
        <ele>31.38</ele>
        <time>2017-05-26T09:52:08Z</time>
      </trkpt>
      <trkpt lat="48.08822" lon="-4.49914">
        <ele>30.9</ele>
        <time>2017-05-26T09:52:18Z</time>
      </trkpt>
      <trkpt lat="48.0882" lon="-4.49911">
        <ele>30.42</ele>
        <time>2017-05-26T09:52:22Z</time>
      </trkpt>
      <trkpt lat="48.08814" lon="-4.49894">
        <ele>31.86</ele>
        <time>2017-05-26T09:52:37Z</time>
      </trkpt>
      <trkpt lat="48.0881" lon="-4.49863">
        <ele>31.86</ele>
        <time>2017-05-26T09:52:53Z</time>
      </trkpt>
      <trkpt lat="48.08803" lon="-4.49838">
        <ele>30.9</ele>
        <time>2017-05-26T09:53:08Z</time>
      </trkpt>
      <trkpt lat="48.0879" lon="-4.49815">
        <ele>26.09</ele>
        <time>2017-05-26T09:53:23Z</time>
      </trkpt>
      <trkpt lat="48.08785" lon="-4.49808">
        <ele>24.65</ele>
        <time>2017-05-26T09:53:30Z</time>
      </trkpt>
      <trkpt lat="48.08785" lon="-4.49802">
        <ele>23.69</ele>
        <time>2017-05-26T09:53:34Z</time>
      </trkpt>
      <trkpt lat="48.08786" lon="-4.498">
        <ele>20.32</ele>
        <time>2017-05-26T09:53:41Z</time>
      </trkpt>
      <trkpt lat="48.08789" lon="-4.49788">
        <ele>14.08</ele>
        <time>2017-05-26T09:53:56Z</time>
      </trkpt>
      <trkpt lat="48.08786" lon="-4.49772">
        <ele>9.75</ele>
        <time>2017-05-26T09:54:12Z</time>
      </trkpt>
      <trkpt lat="48.08785" lon="-4.49771">
        <ele>9.27</ele>
        <time>2017-05-26T09:54:14Z</time>
      </trkpt>
      <trkpt lat="48.08764" lon="-4.4976">
        <ele>3.98</ele>
        <time>2017-05-26T09:54:30Z</time>
      </trkpt>
      <trkpt lat="48.08758" lon="-4.49753">
        <ele>4.94</ele>
        <time>2017-05-26T09:54:46Z</time>
      </trkpt>
      <trkpt lat="48.08759" lon="-4.49743">
        <ele>6.87</ele>
        <time>2017-05-26T09:55:09Z</time>
      </trkpt>
      <trkpt lat="48.08755" lon="-4.49741">
        <ele>7.83</ele>
        <time>2017-05-26T09:55:31Z</time>
      </trkpt>
      <trkpt lat="48.08756" lon="-4.49741">
        <ele>8.31</ele>
        <time>2017-05-26T09:56:07Z</time>
      </trkpt>
      <trkpt lat="48.08757" lon="-4.49742">
        <ele>8.79</ele>
        <time>2017-05-26T09:56:46Z</time>
      </trkpt>
      <trkpt lat="48.08757" lon="-4.49741">
        <ele>9.75</ele>
        <time>2017-05-26T09:57:17Z</time>
      </trkpt>
      <trkpt lat="48.08752" lon="-4.49741">
        <ele>8.31</ele>
        <time>2017-05-26T09:57:44Z</time>
      </trkpt>
      <trkpt lat="48.08754" lon="-4.49735">
        <ele>10.23</ele>
        <time>2017-05-26T09:58:00Z</time>
      </trkpt>
      <trkpt lat="48.08753" lon="-4.49724">
        <ele>11.19</ele>
        <time>2017-05-26T09:58:05Z</time>
      </trkpt>
      <trkpt lat="48.08749" lon="-4.49705">
        <ele>9.75</ele>
        <time>2017-05-26T09:58:26Z</time>
      </trkpt>
      <trkpt lat="48.08752" lon="-4.49698">
        <ele>13.12</ele>
        <time>2017-05-26T09:58:47Z</time>
      </trkpt>
      <trkpt lat="48.08757" lon="-4.49693">
        <ele>16</ele>
        <time>2017-05-26T09:58:58Z</time>
      </trkpt>
      <trkpt lat="48.0876" lon="-4.49693">
        <ele>16.96</ele>
        <time>2017-05-26T09:59:00Z</time>
      </trkpt>
      <trkpt lat="48.08763" lon="-4.49689">
        <ele>18.4</ele>
        <time>2017-05-26T09:59:04Z</time>
      </trkpt>
      <trkpt lat="48.08766" lon="-4.49676">
        <ele>20.81</ele>
        <time>2017-05-26T09:59:17Z</time>
      </trkpt>
      <trkpt lat="48.08763" lon="-4.4967">
        <ele>21.29</ele>
        <time>2017-05-26T09:59:38Z</time>
      </trkpt>
      <trkpt lat="48.08762" lon="-4.49663">
        <ele>21.29</ele>
        <time>2017-05-26T09:59:45Z</time>
      </trkpt>
      <trkpt lat="48.08764" lon="-4.49656">
        <ele>21.77</ele>
        <time>2017-05-26T09:59:50Z</time>
      </trkpt>
      <trkpt lat="48.08765" lon="-4.4963">
        <ele>20.81</ele>
        <time>2017-05-26T10:00:05Z</time>
      </trkpt>
      <trkpt lat="48.08765" lon="-4.49628">
        <ele>20.81</ele>
        <time>2017-05-26T10:00:06Z</time>
      </trkpt>
      <trkpt lat="48.08763" lon="-4.49619">
        <ele>19.84</ele>
        <time>2017-05-26T10:00:11Z</time>
      </trkpt>
      <trkpt lat="48.0876" lon="-4.49609">
        <ele>20.32</ele>
        <time>2017-05-26T10:00:29Z</time>
      </trkpt>
      <trkpt lat="48.08747" lon="-4.49592">
        <ele>21.29</ele>
        <time>2017-05-26T10:00:47Z</time>
      </trkpt>
      <trkpt lat="48.08742" lon="-4.49571">
        <ele>21.77</ele>
        <time>2017-05-26T10:01:00Z</time>
      </trkpt>
      <trkpt lat="48.08745" lon="-4.49538">
        <ele>21.77</ele>
        <time>2017-05-26T10:01:15Z</time>
      </trkpt>
      <trkpt lat="48.08746" lon="-4.49522">
        <ele>21.77</ele>
        <time>2017-05-26T10:01:25Z</time>
      </trkpt>
      <trkpt lat="48.08737" lon="-4.49505">
        <ele>20.81</ele>
        <time>2017-05-26T10:01:37Z</time>
      </trkpt>
      <trkpt lat="48.08727" lon="-4.49469">
        <ele>21.29</ele>
        <time>2017-05-26T10:01:53Z</time>
      </trkpt>
      <trkpt lat="48.08722" lon="-4.49452">
        <ele>22.25</ele>
        <time>2017-05-26T10:02:03Z</time>
      </trkpt>
      <trkpt lat="48.08722" lon="-4.49438">
        <ele>21.77</ele>
        <time>2017-05-26T10:02:11Z</time>
      </trkpt>
      <trkpt lat="48.08729" lon="-4.49425">
        <ele>20.81</ele>
        <time>2017-05-26T10:02:21Z</time>
      </trkpt>
      <trkpt lat="48.08728" lon="-4.49409">
        <ele>21.29</ele>
        <time>2017-05-26T10:02:27Z</time>
      </trkpt>
      <trkpt lat="48.08718" lon="-4.49391">
        <ele>24.17</ele>
        <time>2017-05-26T10:02:41Z</time>
      </trkpt>
      <trkpt lat="48.08718" lon="-4.49367">
        <ele>24.65</ele>
        <time>2017-05-26T10:02:54Z</time>
      </trkpt>
      <trkpt lat="48.08723" lon="-4.49347">
        <ele>23.21</ele>
        <time>2017-05-26T10:03:08Z</time>
      </trkpt>
      <trkpt lat="48.08724" lon="-4.4934">
        <ele>24.17</ele>
        <time>2017-05-26T10:03:12Z</time>
      </trkpt>
      <trkpt lat="48.08732" lon="-4.4932">
        <ele>22.25</ele>
        <time>2017-05-26T10:03:22Z</time>
      </trkpt>
      <trkpt lat="48.08734" lon="-4.49311">
        <ele>19.36</ele>
        <time>2017-05-26T10:03:27Z</time>
      </trkpt>
      <trkpt lat="48.08735" lon="-4.4929">
        <ele>16</ele>
        <time>2017-05-26T10:03:36Z</time>
      </trkpt>
      <trkpt lat="48.08718" lon="-4.49281">
        <ele>15.04</ele>
        <time>2017-05-26T10:03:53Z</time>
      </trkpt>
      <trkpt lat="48.08713" lon="-4.49283">
        <ele>15.04</ele>
        <time>2017-05-26T10:03:57Z</time>
      </trkpt>
      <trkpt lat="48.08699" lon="-4.49297">
        <ele>14.08</ele>
        <time>2017-05-26T10:04:11Z</time>
      </trkpt>
      <trkpt lat="48.08685" lon="-4.49303">
        <ele>15.04</ele>
        <time>2017-05-26T10:04:25Z</time>
      </trkpt>
      <trkpt lat="48.08668" lon="-4.49293">
        <ele>15.52</ele>
        <time>2017-05-26T10:04:41Z</time>
      </trkpt>
      <trkpt lat="48.08665" lon="-4.49288">
        <ele>15.52</ele>
        <time>2017-05-26T10:04:55Z</time>
      </trkpt>
      <trkpt lat="48.08655" lon="-4.49275">
        <ele>13.6</ele>
        <time>2017-05-26T10:05:09Z</time>
      </trkpt>
      <trkpt lat="48.08647" lon="-4.4926">
        <ele>11.19</ele>
        <time>2017-05-26T10:05:24Z</time>
      </trkpt>
      <trkpt lat="48.08634" lon="-4.49239">
        <ele>8.31</ele>
        <time>2017-05-26T10:05:38Z</time>
      </trkpt>
      <trkpt lat="48.08631" lon="-4.49237">
        <ele>7.83</ele>
        <time>2017-05-26T10:05:41Z</time>
      </trkpt>
      <trkpt lat="48.08618" lon="-4.49203">
        <ele>3.5</ele>
        <time>2017-05-26T10:05:58Z</time>
      </trkpt>
      <trkpt lat="48.08613" lon="-4.49192">
        <ele>2.54</ele>
        <time>2017-05-26T10:06:06Z</time>
      </trkpt>
      <trkpt lat="48.086" lon="-4.49191">
        <ele>-0.82</ele>
        <time>2017-05-26T10:06:18Z</time>
      </trkpt>
      <trkpt lat="48.08596" lon="-4.49188">
        <ele>-1.3</ele>
        <time>2017-05-26T10:06:22Z</time>
      </trkpt>
      <trkpt lat="48.08595" lon="-4.49178">
        <ele>0.14</ele>
        <time>2017-05-26T10:06:34Z</time>
      </trkpt>
      <trkpt lat="48.086" lon="-4.49167">
        <ele>1.1</ele>
        <time>2017-05-26T10:06:48Z</time>
      </trkpt>
      <trkpt lat="48.08601" lon="-4.49163">
        <ele>2.06</ele>
        <time>2017-05-26T10:06:53Z</time>
      </trkpt>
      <trkpt lat="48.08608" lon="-4.49144">
        <ele>3.98</ele>
        <time>2017-05-26T10:07:10Z</time>
      </trkpt>
      <trkpt lat="48.08616" lon="-4.49131">
        <ele>11.19</ele>
        <time>2017-05-26T10:07:29Z</time>
      </trkpt>
      <trkpt lat="48.08626" lon="-4.49123">
        <ele>19.36</ele>
        <time>2017-05-26T10:07:45Z</time>
      </trkpt>
      <trkpt lat="48.08634" lon="-4.49111">
        <ele>22.73</ele>
        <time>2017-05-26T10:07:58Z</time>
      </trkpt>
      <trkpt lat="48.08648" lon="-4.49093">
        <ele>23.69</ele>
        <time>2017-05-26T10:08:13Z</time>
      </trkpt>
      <trkpt lat="48.08651" lon="-4.49089">
        <ele>24.65</ele>
        <time>2017-05-26T10:08:17Z</time>
      </trkpt>
      <trkpt lat="48.08655" lon="-4.49078">
        <ele>26.57</ele>
        <time>2017-05-26T10:08:36Z</time>
      </trkpt>
      <trkpt lat="48.08655" lon="-4.49079">
        <ele>27.53</ele>
        <time>2017-05-26T10:08:59Z</time>
      </trkpt>
      <trkpt lat="48.08654" lon="-4.49079">
        <ele>28.02</ele>
        <time>2017-05-26T10:09:23Z</time>
      </trkpt>
      <trkpt lat="48.08655" lon="-4.49079">
        <ele>28.02</ele>
        <time>2017-05-26T10:09:46Z</time>
      </trkpt>
      <trkpt lat="48.08659" lon="-4.49076">
        <ele>28.5</ele>
        <time>2017-05-26T10:10:05Z</time>
      </trkpt>
      <trkpt lat="48.08659" lon="-4.49076">
        <ele>28.02</ele>
        <time>2017-05-26T10:10:30Z</time>
      </trkpt>
      <trkpt lat="48.08658" lon="-4.49075">
        <ele>27.53</ele>
        <time>2017-05-26T10:10:48Z</time>
      </trkpt>
      <trkpt lat="48.08659" lon="-4.49074">
        <ele>28.02</ele>
        <time>2017-05-26T10:11:15Z</time>
      </trkpt>
      <trkpt lat="48.08659" lon="-4.49074">
        <ele>28.5</ele>
        <time>2017-05-26T10:11:44Z</time>
      </trkpt>
      <trkpt lat="48.08659" lon="-4.49074">
        <ele>28.5</ele>
        <time>2017-05-26T10:12:17Z</time>
      </trkpt>
      <trkpt lat="48.0866" lon="-4.49074">
        <ele>28.02</ele>
        <time>2017-05-26T10:12:35Z</time>
      </trkpt>
      <trkpt lat="48.08651" lon="-4.49058">
        <ele>27.53</ele>
        <time>2017-05-26T10:12:50Z</time>
      </trkpt>
      <trkpt lat="48.08642" lon="-4.49038">
        <ele>28.02</ele>
        <time>2017-05-26T10:13:08Z</time>
      </trkpt>
      <trkpt lat="48.08632" lon="-4.49019">
        <ele>28.5</ele>
        <time>2017-05-26T10:13:22Z</time>
      </trkpt>
      <trkpt lat="48.0862" lon="-4.48996">
        <ele>25.13</ele>
        <time>2017-05-26T10:13:37Z</time>
      </trkpt>
      <trkpt lat="48.08619" lon="-4.48977">
        <ele>23.21</ele>
        <time>2017-05-26T10:13:52Z</time>
      </trkpt>
      <trkpt lat="48.0862" lon="-4.48975">
        <ele>22.73</ele>
        <time>2017-05-26T10:13:54Z</time>
      </trkpt>
      <trkpt lat="48.08618" lon="-4.48956">
        <ele>19.84</ele>
        <time>2017-05-26T10:14:07Z</time>
      </trkpt>
      <trkpt lat="48.08597" lon="-4.48942">
        <ele>19.84</ele>
        <time>2017-05-26T10:14:27Z</time>
      </trkpt>
      <trkpt lat="48.08585" lon="-4.48923">
        <ele>23.69</ele>
        <time>2017-05-26T10:14:44Z</time>
      </trkpt>
      <trkpt lat="48.0858" lon="-4.48907">
        <ele>25.61</ele>
        <time>2017-05-26T10:14:55Z</time>
      </trkpt>
      <trkpt lat="48.08578" lon="-4.4889">
        <ele>27.05</ele>
        <time>2017-05-26T10:15:04Z</time>
      </trkpt>
      <trkpt lat="48.08581" lon="-4.48881">
        <ele>27.53</ele>
        <time>2017-05-26T10:15:08Z</time>
      </trkpt>
      <trkpt lat="48.08583" lon="-4.48872">
        <ele>27.53</ele>
        <time>2017-05-26T10:15:14Z</time>
      </trkpt>
      <trkpt lat="48.08585" lon="-4.48869">
        <ele>27.53</ele>
        <time>2017-05-26T10:15:16Z</time>
      </trkpt>
      <trkpt lat="48.08588" lon="-4.48859">
        <ele>28.02</ele>
        <time>2017-05-26T10:15:22Z</time>
      </trkpt>
      <trkpt lat="48.08592" lon="-4.48846">
        <ele>27.53</ele>
        <time>2017-05-26T10:15:31Z</time>
      </trkpt>
      <trkpt lat="48.086" lon="-4.48837">
        <ele>26.57</ele>
        <time>2017-05-26T10:15:38Z</time>
      </trkpt>
      <trkpt lat="48.08612" lon="-4.48818">
        <ele>28.98</ele>
        <time>2017-05-26T10:15:51Z</time>
      </trkpt>
      <trkpt lat="48.08635" lon="-4.48805">
        <ele>28.02</ele>
        <time>2017-05-26T10:16:08Z</time>
      </trkpt>
      <trkpt lat="48.08639" lon="-4.48802">
        <ele>27.53</ele>
        <time>2017-05-26T10:16:12Z</time>
      </trkpt>
      <trkpt lat="48.08642" lon="-4.48797">
        <ele>27.05</ele>
        <time>2017-05-26T10:16:16Z</time>
      </trkpt>
      <trkpt lat="48.08647" lon="-4.48778">
        <ele>25.13</ele>
        <time>2017-05-26T10:16:32Z</time>
      </trkpt>
      <trkpt lat="48.08636" lon="-4.48752">
        <ele>22.73</ele>
        <time>2017-05-26T10:16:49Z</time>
      </trkpt>
      <trkpt lat="48.08633" lon="-4.48732">
        <ele>21.29</ele>
        <time>2017-05-26T10:16:58Z</time>
      </trkpt>
      <trkpt lat="48.08627" lon="-4.48704">
        <ele>20.81</ele>
        <time>2017-05-26T10:17:13Z</time>
      </trkpt>
      <trkpt lat="48.08617" lon="-4.48672">
        <ele>23.21</ele>
        <time>2017-05-26T10:17:29Z</time>
      </trkpt>
      <trkpt lat="48.08603" lon="-4.48649">
        <ele>24.65</ele>
        <time>2017-05-26T10:17:46Z</time>
      </trkpt>
      <trkpt lat="48.08597" lon="-4.48641">
        <ele>22.25</ele>
        <time>2017-05-26T10:17:54Z</time>
      </trkpt>
      <trkpt lat="48.0859" lon="-4.48628">
        <ele>21.29</ele>
        <time>2017-05-26T10:18:02Z</time>
      </trkpt>
      <trkpt lat="48.08581" lon="-4.48615">
        <ele>20.32</ele>
        <time>2017-05-26T10:18:11Z</time>
      </trkpt>
      <trkpt lat="48.08578" lon="-4.48598">
        <ele>17.44</ele>
        <time>2017-05-26T10:18:21Z</time>
      </trkpt>
      <trkpt lat="48.08582" lon="-4.48576">
        <ele>13.12</ele>
        <time>2017-05-26T10:18:35Z</time>
      </trkpt>
      <trkpt lat="48.08585" lon="-4.48575">
        <ele>14.08</ele>
        <time>2017-05-26T10:18:52Z</time>
      </trkpt>
      <trkpt lat="48.08584" lon="-4.48573">
        <ele>14.56</ele>
        <time>2017-05-26T10:19:19Z</time>
      </trkpt>
      <trkpt lat="48.08583" lon="-4.48572">
        <ele>14.56</ele>
        <time>2017-05-26T10:19:38Z</time>
      </trkpt>
      <trkpt lat="48.08583" lon="-4.4857">
        <ele>14.56</ele>
        <time>2017-05-26T10:19:40Z</time>
      </trkpt>
      <trkpt lat="48.08582" lon="-4.48565">
        <ele>14.08</ele>
        <time>2017-05-26T10:19:56Z</time>
      </trkpt>
      <trkpt lat="48.08583" lon="-4.48563">
        <ele>13.6</ele>
        <time>2017-05-26T10:20:34Z</time>
      </trkpt>
      <trkpt lat="48.08583" lon="-4.48563">
        <ele>14.08</ele>
        <time>2017-05-26T10:21:12Z</time>
      </trkpt>
      <trkpt lat="48.08589" lon="-4.48568">
        <ele>12.15</ele>
        <time>2017-05-26T10:21:22Z</time>
      </trkpt>
      <trkpt lat="48.08599" lon="-4.48574">
        <ele>8.31</ele>
        <time>2017-05-26T10:21:31Z</time>
      </trkpt>
      <trkpt lat="48.08611" lon="-4.4858">
        <ele>4.46</ele>
        <time>2017-05-26T10:21:46Z</time>
      </trkpt>
      <trkpt lat="48.08625" lon="-4.48588">
        <ele>4.46</ele>
        <time>2017-05-26T10:22:01Z</time>
      </trkpt>
      <trkpt lat="48.08637" lon="-4.48596">
        <ele>3.98</ele>
        <time>2017-05-26T10:22:14Z</time>
      </trkpt>
      <trkpt lat="48.08643" lon="-4.48596">
        <ele>3.98</ele>
        <time>2017-05-26T10:22:20Z</time>
      </trkpt>
      <trkpt lat="48.08648" lon="-4.48596">
        <ele>4.46</ele>
        <time>2017-05-26T10:22:35Z</time>
      </trkpt>
      <trkpt lat="48.08648" lon="-4.48595">
        <ele>4.94</ele>
        <time>2017-05-26T10:23:10Z</time>
      </trkpt>
      <trkpt lat="48.08649" lon="-4.48594">
        <ele>5.42</ele>
        <time>2017-05-26T10:23:43Z</time>
      </trkpt>
      <trkpt lat="48.0865" lon="-4.48593">
        <ele>4.94</ele>
        <time>2017-05-26T10:24:05Z</time>
      </trkpt>
      <trkpt lat="48.08651" lon="-4.48575">
        <ele>3.98</ele>
        <time>2017-05-26T10:24:20Z</time>
      </trkpt>
      <trkpt lat="48.08654" lon="-4.48563">
        <ele>6.39</ele>
        <time>2017-05-26T10:24:34Z</time>
      </trkpt>
      <trkpt lat="48.08657" lon="-4.48559">
        <ele>6.39</ele>
        <time>2017-05-26T10:24:39Z</time>
      </trkpt>
      <trkpt lat="48.0866" lon="-4.48552">
        <ele>7.35</ele>
        <time>2017-05-26T10:24:45Z</time>
      </trkpt>
      <trkpt lat="48.08676" lon="-4.48546">
        <ele>7.83</ele>
        <time>2017-05-26T10:24:58Z</time>
      </trkpt>
      <trkpt lat="48.0868" lon="-4.48548">
        <ele>7.83</ele>
        <time>2017-05-26T10:25:03Z</time>
      </trkpt>
      <trkpt lat="48.08688" lon="-4.48549">
        <ele>8.79</ele>
        <time>2017-05-26T10:25:13Z</time>
      </trkpt>
      <trkpt lat="48.08691" lon="-4.48548">
        <ele>9.75</ele>
        <time>2017-05-26T10:25:18Z</time>
      </trkpt>
      <trkpt lat="48.08695" lon="-4.48548">
        <ele>9.75</ele>
        <time>2017-05-26T10:25:23Z</time>
      </trkpt>
      <trkpt lat="48.08697" lon="-4.4855">
        <ele>10.71</ele>
        <time>2017-05-26T10:25:26Z</time>
      </trkpt>
      <trkpt lat="48.087" lon="-4.48552">
        <ele>12.15</ele>
        <time>2017-05-26T10:25:30Z</time>
      </trkpt>
      <trkpt lat="48.08704" lon="-4.48554">
        <ele>13.12</ele>
        <time>2017-05-26T10:25:35Z</time>
      </trkpt>
      <trkpt lat="48.08711" lon="-4.48568">
        <ele>13.6</ele>
        <time>2017-05-26T10:25:47Z</time>
      </trkpt>
      <trkpt lat="48.08712" lon="-4.4857">
        <ele>13.6</ele>
        <time>2017-05-26T10:25:49Z</time>
      </trkpt>
      <trkpt lat="48.08728" lon="-4.4858">
        <ele>14.08</ele>
        <time>2017-05-26T10:26:03Z</time>
      </trkpt>
      <trkpt lat="48.08734" lon="-4.48582">
        <ele>15.52</ele>
        <time>2017-05-26T10:26:10Z</time>
      </trkpt>
      <trkpt lat="48.08746" lon="-4.48584">
        <ele>16.96</ele>
        <time>2017-05-26T10:26:21Z</time>
      </trkpt>
      <trkpt lat="48.08752" lon="-4.48584">
        <ele>19.84</ele>
        <time>2017-05-26T10:26:28Z</time>
      </trkpt>
      <trkpt lat="48.08761" lon="-4.48576">
        <ele>25.61</ele>
        <time>2017-05-26T10:26:44Z</time>
      </trkpt>
      <trkpt lat="48.0876" lon="-4.48571">
        <ele>26.57</ele>
        <time>2017-05-26T10:26:49Z</time>
      </trkpt>
      <trkpt lat="48.08757" lon="-4.48567">
        <ele>27.53</ele>
        <time>2017-05-26T10:27:00Z</time>
      </trkpt>
      <trkpt lat="48.08754" lon="-4.4856">
        <ele>28.98</ele>
        <time>2017-05-26T10:27:07Z</time>
      </trkpt>
      <trkpt lat="48.08751" lon="-4.48556">
        <ele>29.94</ele>
        <time>2017-05-26T10:27:11Z</time>
      </trkpt>
      <trkpt lat="48.08744" lon="-4.48538">
        <ele>33.78</ele>
        <time>2017-05-26T10:27:25Z</time>
      </trkpt>
      <trkpt lat="48.08743" lon="-4.48533">
        <ele>34.26</ele>
        <time>2017-05-26T10:27:29Z</time>
      </trkpt>
      <trkpt lat="48.08743" lon="-4.48523">
        <ele>33.3</ele>
        <time>2017-05-26T10:27:35Z</time>
      </trkpt>
      <trkpt lat="48.08744" lon="-4.48507">
        <ele>31.86</ele>
        <time>2017-05-26T10:27:46Z</time>
      </trkpt>
      <trkpt lat="48.08748" lon="-4.48493">
        <ele>28.5</ele>
        <time>2017-05-26T10:28:00Z</time>
      </trkpt>
      <trkpt lat="48.08751" lon="-4.4848">
        <ele>26.57</ele>
        <time>2017-05-26T10:28:08Z</time>
      </trkpt>
      <trkpt lat="48.08756" lon="-4.48464">
        <ele>25.13</ele>
        <time>2017-05-26T10:28:18Z</time>
      </trkpt>
      <trkpt lat="48.08762" lon="-4.48444">
        <ele>26.09</ele>
        <time>2017-05-26T10:28:32Z</time>
      </trkpt>
      <trkpt lat="48.08764" lon="-4.48438">
        <ele>26.57</ele>
        <time>2017-05-26T10:28:35Z</time>
      </trkpt>
      <trkpt lat="48.08766" lon="-4.48436">
        <ele>27.05</ele>
        <time>2017-05-26T10:28:37Z</time>
      </trkpt>
      <trkpt lat="48.08778" lon="-4.48423">
        <ele>26.57</ele>
        <time>2017-05-26T10:28:49Z</time>
      </trkpt>
      <trkpt lat="48.08792" lon="-4.48423">
        <ele>26.57</ele>
        <time>2017-05-26T10:29:00Z</time>
      </trkpt>
      <trkpt lat="48.08802" lon="-4.48418">
        <ele>25.61</ele>
        <time>2017-05-26T10:29:07Z</time>
      </trkpt>
      <trkpt lat="48.08817" lon="-4.48406">
        <ele>25.61</ele>
        <time>2017-05-26T10:29:22Z</time>
      </trkpt>
      <trkpt lat="48.08832" lon="-4.4839">
        <ele>22.73</ele>
        <time>2017-05-26T10:29:37Z</time>
      </trkpt>
      <trkpt lat="48.08845" lon="-4.48378">
        <ele>25.13</ele>
        <time>2017-05-26T10:29:50Z</time>
      </trkpt>
      <trkpt lat="48.08855" lon="-4.48365">
        <ele>26.57</ele>
        <time>2017-05-26T10:30:02Z</time>
      </trkpt>
      <trkpt lat="48.0886" lon="-4.48353">
        <ele>26.57</ele>
        <time>2017-05-26T10:30:09Z</time>
      </trkpt>
      <trkpt lat="48.08866" lon="-4.48331">
        <ele>28.02</ele>
        <time>2017-05-26T10:30:22Z</time>
      </trkpt>
      <trkpt lat="48.08866" lon="-4.4832">
        <ele>28.5</ele>
        <time>2017-05-26T10:30:29Z</time>
      </trkpt>
      <trkpt lat="48.08866" lon="-4.48305">
        <ele>27.05</ele>
        <time>2017-05-26T10:30:37Z</time>
      </trkpt>
      <trkpt lat="48.08864" lon="-4.48297">
        <ele>26.09</ele>
        <time>2017-05-26T10:30:41Z</time>
      </trkpt>
      <trkpt lat="48.0886" lon="-4.48271">
        <ele>26.57</ele>
        <time>2017-05-26T10:30:56Z</time>
      </trkpt>
      <trkpt lat="48.08862" lon="-4.48254">
        <ele>28.02</ele>
        <time>2017-05-26T10:31:06Z</time>
      </trkpt>
      <trkpt lat="48.08862" lon="-4.4825">
        <ele>28.5</ele>
        <time>2017-05-26T10:31:09Z</time>
      </trkpt>
      <trkpt lat="48.08865" lon="-4.48246">
        <ele>29.46</ele>
        <time>2017-05-26T10:31:12Z</time>
      </trkpt>
      <trkpt lat="48.08866" lon="-4.48241">
        <ele>29.94</ele>
        <time>2017-05-26T10:31:15Z</time>
      </trkpt>
      <trkpt lat="48.0888" lon="-4.48223">
        <ele>31.38</ele>
        <time>2017-05-26T10:31:30Z</time>
      </trkpt>
      <trkpt lat="48.08884" lon="-4.48223">
        <ele>31.38</ele>
        <time>2017-05-26T10:31:34Z</time>
      </trkpt>
      <trkpt lat="48.08891" lon="-4.48229">
        <ele>30.9</ele>
        <time>2017-05-26T10:31:39Z</time>
      </trkpt>
      <trkpt lat="48.08898" lon="-4.48235">
        <ele>30.42</ele>
        <time>2017-05-26T10:31:48Z</time>
      </trkpt>
      <trkpt lat="48.08911" lon="-4.48247">
        <ele>28.02</ele>
        <time>2017-05-26T10:32:02Z</time>
      </trkpt>
      <trkpt lat="48.08918" lon="-4.48256">
        <ele>26.09</ele>
        <time>2017-05-26T10:32:11Z</time>
      </trkpt>
      <trkpt lat="48.08928" lon="-4.48266">
        <ele>22.73</ele>
        <time>2017-05-26T10:32:21Z</time>
      </trkpt>
      <trkpt lat="48.08946" lon="-4.48271">
        <ele>20.81</ele>
        <time>2017-05-26T10:32:37Z</time>
      </trkpt>
      <trkpt lat="48.08944" lon="-4.48272">
        <ele>21.29</ele>
        <time>2017-05-26T10:32:40Z</time>
      </trkpt>
      <trkpt lat="48.08942" lon="-4.48271">
        <ele>21.29</ele>
        <time>2017-05-26T10:32:53Z</time>
      </trkpt>
      <trkpt lat="48.08949" lon="-4.48269">
        <ele>21.29</ele>
        <time>2017-05-26T10:33:00Z</time>
      </trkpt>
      <trkpt lat="48.0895" lon="-4.48265">
        <ele>21.77</ele>
        <time>2017-05-26T10:33:02Z</time>
      </trkpt>
      <trkpt lat="48.08963" lon="-4.48241">
        <ele>24.65</ele>
        <time>2017-05-26T10:33:17Z</time>
      </trkpt>
      <trkpt lat="48.08964" lon="-4.48232">
        <ele>25.61</ele>
        <time>2017-05-26T10:33:21Z</time>
      </trkpt>
      <trkpt lat="48.08966" lon="-4.48218">
        <ele>26.57</ele>
        <time>2017-05-26T10:33:30Z</time>
      </trkpt>
      <trkpt lat="48.08969" lon="-4.48216">
        <ele>26.57</ele>
        <time>2017-05-26T10:33:33Z</time>
      </trkpt>
      <trkpt lat="48.08982" lon="-4.48199">
        <ele>29.46</ele>
        <time>2017-05-26T10:33:49Z</time>
      </trkpt>
      <trkpt lat="48.08984" lon="-4.48197">
        <ele>29.94</ele>
        <time>2017-05-26T10:33:52Z</time>
      </trkpt>
      <trkpt lat="48.09" lon="-4.48185">
        <ele>30.42</ele>
        <time>2017-05-26T10:34:06Z</time>
      </trkpt>
      <trkpt lat="48.09003" lon="-4.48184">
        <ele>30.42</ele>
        <time>2017-05-26T10:34:10Z</time>
      </trkpt>
      <trkpt lat="48.09019" lon="-4.48188">
        <ele>28.98</ele>
        <time>2017-05-26T10:34:24Z</time>
      </trkpt>
      <trkpt lat="48.09034" lon="-4.48187">
        <ele>29.94</ele>
        <time>2017-05-26T10:34:36Z</time>
      </trkpt>
      <trkpt lat="48.09046" lon="-4.4818">
        <ele>27.53</ele>
        <time>2017-05-26T10:34:49Z</time>
      </trkpt>
      <trkpt lat="48.09066" lon="-4.48167">
        <ele>28.02</ele>
        <time>2017-05-26T10:35:03Z</time>
      </trkpt>
      <trkpt lat="48.09071" lon="-4.48164">
        <ele>27.53</ele>
        <time>2017-05-26T10:35:08Z</time>
      </trkpt>
      <trkpt lat="48.09081" lon="-4.48152">
        <ele>28.5</ele>
        <time>2017-05-26T10:35:24Z</time>
      </trkpt>
      <trkpt lat="48.09083" lon="-4.48145">
        <ele>29.46</ele>
        <time>2017-05-26T10:35:34Z</time>
      </trkpt>
      <trkpt lat="48.09085" lon="-4.48141">
        <ele>29.94</ele>
        <time>2017-05-26T10:35:38Z</time>
      </trkpt>
      <trkpt lat="48.09086" lon="-4.48133">
        <ele>31.86</ele>
        <time>2017-05-26T10:35:45Z</time>
      </trkpt>
      <trkpt lat="48.09093" lon="-4.48123">
        <ele>33.78</ele>
        <time>2017-05-26T10:35:53Z</time>
      </trkpt>
      <trkpt lat="48.09095" lon="-4.48121">
        <ele>34.26</ele>
        <time>2017-05-26T10:35:56Z</time>
      </trkpt>
      <trkpt lat="48.09104" lon="-4.48112">
        <ele>34.74</ele>
        <time>2017-05-26T10:36:05Z</time>
      </trkpt>
      <trkpt lat="48.09105" lon="-4.48109">
        <ele>35.23</ele>
        <time>2017-05-26T10:36:07Z</time>
      </trkpt>
      <trkpt lat="48.0911" lon="-4.48095">
        <ele>34.74</ele>
        <time>2017-05-26T10:36:15Z</time>
      </trkpt>
      <trkpt lat="48.09121" lon="-4.48076">
        <ele>35.71</ele>
        <time>2017-05-26T10:36:30Z</time>
      </trkpt>
      <trkpt lat="48.09124" lon="-4.48069">
        <ele>36.19</ele>
        <time>2017-05-26T10:36:35Z</time>
      </trkpt>
      <trkpt lat="48.09126" lon="-4.48057">
        <ele>37.63</ele>
        <time>2017-05-26T10:36:44Z</time>
      </trkpt>
      <trkpt lat="48.09131" lon="-4.48047">
        <ele>38.11</ele>
        <time>2017-05-26T10:36:58Z</time>
      </trkpt>
      <trkpt lat="48.09134" lon="-4.48033">
        <ele>38.59</ele>
        <time>2017-05-26T10:37:07Z</time>
      </trkpt>
      <trkpt lat="48.09133" lon="-4.4802">
        <ele>37.63</ele>
        <time>2017-05-26T10:37:12Z</time>
      </trkpt>
      <trkpt lat="48.09138" lon="-4.47997">
        <ele>35.71</ele>
        <time>2017-05-26T10:37:24Z</time>
      </trkpt>
      <trkpt lat="48.0914" lon="-4.47993">
        <ele>35.23</ele>
        <time>2017-05-26T10:37:27Z</time>
      </trkpt>
      <trkpt lat="48.09144" lon="-4.47986">
        <ele>33.78</ele>
        <time>2017-05-26T10:37:31Z</time>
      </trkpt>
      <trkpt lat="48.09143" lon="-4.47955">
        <ele>32.82</ele>
        <time>2017-05-26T10:37:46Z</time>
      </trkpt>
      <trkpt lat="48.09155" lon="-4.47931">
        <ele>29.94</ele>
        <time>2017-05-26T10:38:00Z</time>
      </trkpt>
      <trkpt lat="48.09162" lon="-4.47914">
        <ele>28.5</ele>
        <time>2017-05-26T10:38:13Z</time>
      </trkpt>
      <trkpt lat="48.09168" lon="-4.47901">
        <ele>28.02</ele>
        <time>2017-05-26T10:38:19Z</time>
      </trkpt>
      <trkpt lat="48.09172" lon="-4.4789">
        <ele>28.02</ele>
        <time>2017-05-26T10:38:24Z</time>
      </trkpt>
      <trkpt lat="48.09181" lon="-4.47863">
        <ele>28.02</ele>
        <time>2017-05-26T10:38:39Z</time>
      </trkpt>
      <trkpt lat="48.09181" lon="-4.47862">
        <ele>27.53</ele>
        <time>2017-05-26T10:38:40Z</time>
      </trkpt>
      <trkpt lat="48.09182" lon="-4.47849">
        <ele>30.42</ele>
        <time>2017-05-26T10:38:50Z</time>
      </trkpt>
      <trkpt lat="48.09184" lon="-4.47842">
        <ele>30.9</ele>
        <time>2017-05-26T10:38:55Z</time>
      </trkpt>
      <trkpt lat="48.09188" lon="-4.47835">
        <ele>31.38</ele>
        <time>2017-05-26T10:39:00Z</time>
      </trkpt>
      <trkpt lat="48.09192" lon="-4.47819">
        <ele>33.3</ele>
        <time>2017-05-26T10:39:09Z</time>
      </trkpt>
      <trkpt lat="48.09197" lon="-4.47809">
        <ele>33.3</ele>
        <time>2017-05-26T10:39:15Z</time>
      </trkpt>
      <trkpt lat="48.09201" lon="-4.47804">
        <ele>32.82</ele>
        <time>2017-05-26T10:39:19Z</time>
      </trkpt>
      <trkpt lat="48.09214" lon="-4.47786">
        <ele>34.26</ele>
        <time>2017-05-26T10:39:33Z</time>
      </trkpt>
      <trkpt lat="48.09217" lon="-4.47777">
        <ele>34.74</ele>
        <time>2017-05-26T10:39:37Z</time>
      </trkpt>
      <trkpt lat="48.09218" lon="-4.47769">
        <ele>35.23</ele>
        <time>2017-05-26T10:39:42Z</time>
      </trkpt>
      <trkpt lat="48.09224" lon="-4.47747">
        <ele>37.63</ele>
        <time>2017-05-26T10:39:56Z</time>
      </trkpt>
      <trkpt lat="48.09227" lon="-4.47736">
        <ele>38.11</ele>
        <time>2017-05-26T10:40:10Z</time>
      </trkpt>
      <trkpt lat="48.09229" lon="-4.47728">
        <ele>39.07</ele>
        <time>2017-05-26T10:40:26Z</time>
      </trkpt>
      <trkpt lat="48.09232" lon="-4.47713">
        <ele>39.07</ele>
        <time>2017-05-26T10:40:41Z</time>
      </trkpt>
      <trkpt lat="48.09232" lon="-4.47708">
        <ele>38.59</ele>
        <time>2017-05-26T10:40:57Z</time>
      </trkpt>
      <trkpt lat="48.09233" lon="-4.47705">
        <ele>39.07</ele>
        <time>2017-05-26T10:41:12Z</time>
      </trkpt>
      <trkpt lat="48.09234" lon="-4.47704">
        <ele>38.59</ele>
        <time>2017-05-26T10:41:31Z</time>
      </trkpt>
      <trkpt lat="48.09234" lon="-4.47704">
        <ele>37.15</ele>
        <time>2017-05-26T10:42:09Z</time>
      </trkpt>
      <trkpt lat="48.09233" lon="-4.47704">
        <ele>36.67</ele>
        <time>2017-05-26T10:42:43Z</time>
      </trkpt>
      <trkpt lat="48.09233" lon="-4.47704">
        <ele>37.15</ele>
        <time>2017-05-26T10:43:14Z</time>
      </trkpt>
      <trkpt lat="48.09232" lon="-4.47704">
        <ele>37.15</ele>
        <time>2017-05-26T10:43:48Z</time>
      </trkpt>
      <trkpt lat="48.09232" lon="-4.47704">
        <ele>37.15</ele>
        <time>2017-05-26T10:44:20Z</time>
      </trkpt>
      <trkpt lat="48.09232" lon="-4.47698">
        <ele>37.15</ele>
        <time>2017-05-26T10:44:31Z</time>
      </trkpt>
      <trkpt lat="48.09233" lon="-4.47693">
        <ele>36.67</ele>
        <time>2017-05-26T10:44:36Z</time>
      </trkpt>
      <trkpt lat="48.09232" lon="-4.47668">
        <ele>38.59</ele>
        <time>2017-05-26T10:44:51Z</time>
      </trkpt>
      <trkpt lat="48.09233" lon="-4.47658">
        <ele>39.55</ele>
        <time>2017-05-26T10:44:57Z</time>
      </trkpt>
      <trkpt lat="48.09235" lon="-4.47655">
        <ele>39.55</ele>
        <time>2017-05-26T10:44:59Z</time>
      </trkpt>
      <trkpt lat="48.09235" lon="-4.47647">
        <ele>40.03</ele>
        <time>2017-05-26T10:45:04Z</time>
      </trkpt>
      <trkpt lat="48.09232" lon="-4.47631">
        <ele>40.99</ele>
        <time>2017-05-26T10:45:18Z</time>
      </trkpt>
      <trkpt lat="48.09235" lon="-4.47632">
        <ele>40.99</ele>
        <time>2017-05-26T10:45:28Z</time>
      </trkpt>
      <trkpt lat="48.09241" lon="-4.47633">
        <ele>40.99</ele>
        <time>2017-05-26T10:45:33Z</time>
      </trkpt>
      <trkpt lat="48.09252" lon="-4.47624">
        <ele>40.99</ele>
        <time>2017-05-26T10:45:45Z</time>
      </trkpt>
      <trkpt lat="48.09255" lon="-4.47622">
        <ele>41.47</ele>
        <time>2017-05-26T10:45:48Z</time>
      </trkpt>
      <trkpt lat="48.09256" lon="-4.47619">
        <ele>41.47</ele>
        <time>2017-05-26T10:45:50Z</time>
      </trkpt>
      <trkpt lat="48.09259" lon="-4.4761">
        <ele>41.95</ele>
        <time>2017-05-26T10:45:56Z</time>
      </trkpt>
      <trkpt lat="48.09267" lon="-4.47613">
        <ele>41.95</ele>
        <time>2017-05-26T10:46:04Z</time>
      </trkpt>
      <trkpt lat="48.09275" lon="-4.47635">
        <ele>39.07</ele>
        <time>2017-05-26T10:46:20Z</time>
      </trkpt>
      <trkpt lat="48.09289" lon="-4.4765">
        <ele>35.71</ele>
        <time>2017-05-26T10:46:35Z</time>
      </trkpt>
      <trkpt lat="48.09302" lon="-4.47657">
        <ele>33.3</ele>
        <time>2017-05-26T10:46:47Z</time>
      </trkpt>
      <trkpt lat="48.0931" lon="-4.47659">
        <ele>32.34</ele>
        <time>2017-05-26T10:46:52Z</time>
      </trkpt>
      <trkpt lat="48.09329" lon="-4.47655">
        <ele>31.86</ele>
        <time>2017-05-26T10:47:09Z</time>
      </trkpt>
      <trkpt lat="48.09329" lon="-4.47652">
        <ele>32.34</ele>
        <time>2017-05-26T10:47:14Z</time>
      </trkpt>
      <trkpt lat="48.0934" lon="-4.47649">
        <ele>31.86</ele>
        <time>2017-05-26T10:47:27Z</time>
      </trkpt>
      <trkpt lat="48.0935" lon="-4.47658">
        <ele>33.3</ele>
        <time>2017-05-26T10:47:41Z</time>
      </trkpt>
      <trkpt lat="48.09354" lon="-4.47665">
        <ele>35.71</ele>
        <time>2017-05-26T10:47:52Z</time>
      </trkpt>
      <trkpt lat="48.09359" lon="-4.47668">
        <ele>36.19</ele>
        <time>2017-05-26T10:47:57Z</time>
      </trkpt>
      <trkpt lat="48.09367" lon="-4.47672">
        <ele>38.59</ele>
        <time>2017-05-26T10:48:10Z</time>
      </trkpt>
      <trkpt lat="48.09373" lon="-4.47674">
        <ele>38.59</ele>
        <time>2017-05-26T10:48:17Z</time>
      </trkpt>
      <trkpt lat="48.09392" lon="-4.47682">
        <ele>38.11</ele>
        <time>2017-05-26T10:48:33Z</time>
      </trkpt>
      <trkpt lat="48.094" lon="-4.47684">
        <ele>38.11</ele>
        <time>2017-05-26T10:48:40Z</time>
      </trkpt>
      <trkpt lat="48.09412" lon="-4.47675">
        <ele>40.03</ele>
        <time>2017-05-26T10:48:54Z</time>
      </trkpt>
      <trkpt lat="48.09414" lon="-4.47672">
        <ele>40.51</ele>
        <time>2017-05-26T10:48:57Z</time>
      </trkpt>
      <trkpt lat="48.09426" lon="-4.4767">
        <ele>42.44</ele>
        <time>2017-05-26T10:49:09Z</time>
      </trkpt>
      <trkpt lat="48.09437" lon="-4.47668">
        <ele>42.92</ele>
        <time>2017-05-26T10:49:22Z</time>
      </trkpt>
      <trkpt lat="48.0944" lon="-4.47669">
        <ele>43.88</ele>
        <time>2017-05-26T10:49:40Z</time>
      </trkpt>
      <trkpt lat="48.09442" lon="-4.4767">
        <ele>44.36</ele>
        <time>2017-05-26T10:49:55Z</time>
      </trkpt>
      <trkpt lat="48.0945" lon="-4.47672">
        <ele>44.36</ele>
        <time>2017-05-26T10:50:11Z</time>
      </trkpt>
      <trkpt lat="48.09459" lon="-4.47673">
        <ele>44.36</ele>
        <time>2017-05-26T10:50:26Z</time>
      </trkpt>
      <trkpt lat="48.09468" lon="-4.47677">
        <ele>41.47</ele>
        <time>2017-05-26T10:50:38Z</time>
      </trkpt>
      <trkpt lat="48.09468" lon="-4.47676">
        <ele>40.99</ele>
        <time>2017-05-26T10:50:39Z</time>
      </trkpt>
      <trkpt lat="48.09474" lon="-4.47671">
        <ele>40.51</ele>
        <time>2017-05-26T10:50:44Z</time>
      </trkpt>
      <trkpt lat="48.09478" lon="-4.47666">
        <ele>40.03</ele>
        <time>2017-05-26T10:50:48Z</time>
      </trkpt>
      <trkpt lat="48.09485" lon="-4.47657">
        <ele>39.55</ele>
        <time>2017-05-26T10:50:55Z</time>
      </trkpt>
      <trkpt lat="48.09493" lon="-4.47654">
        <ele>39.55</ele>
        <time>2017-05-26T10:51:02Z</time>
      </trkpt>
      <trkpt lat="48.09508" lon="-4.47644">
        <ele>39.55</ele>
        <time>2017-05-26T10:51:16Z</time>
      </trkpt>
      <trkpt lat="48.09513" lon="-4.47648">
        <ele>39.55</ele>
        <time>2017-05-26T10:51:28Z</time>
      </trkpt>
      <trkpt lat="48.09515" lon="-4.47641">
        <ele>39.55</ele>
        <time>2017-05-26T10:51:42Z</time>
      </trkpt>
      <trkpt lat="48.09515" lon="-4.47641">
        <ele>39.55</ele>
        <time>2017-05-26T10:51:45Z</time>
      </trkpt>
      <trkpt lat="48.09518" lon="-4.47632">
        <ele>38.11</ele>
        <time>2017-05-26T10:51:53Z</time>
      </trkpt>
      <trkpt lat="48.09517" lon="-4.47617">
        <ele>36.67</ele>
        <time>2017-05-26T10:52:03Z</time>
      </trkpt>
      <trkpt lat="48.09521" lon="-4.47608">
        <ele>36.19</ele>
        <time>2017-05-26T10:52:10Z</time>
      </trkpt>
      <trkpt lat="48.09529" lon="-4.47592">
        <ele>33.78</ele>
        <time>2017-05-26T10:52:24Z</time>
      </trkpt>
      <trkpt lat="48.0953" lon="-4.47589">
        <ele>33.3</ele>
        <time>2017-05-26T10:52:26Z</time>
      </trkpt>
      <trkpt lat="48.09529" lon="-4.47581">
        <ele>32.82</ele>
        <time>2017-05-26T10:52:32Z</time>
      </trkpt>
      <trkpt lat="48.09534" lon="-4.47569">
        <ele>31.86</ele>
        <time>2017-05-26T10:52:39Z</time>
      </trkpt>
      <trkpt lat="48.09535" lon="-4.47562">
        <ele>30.9</ele>
        <time>2017-05-26T10:52:45Z</time>
      </trkpt>
      <trkpt lat="48.09535" lon="-4.47557">
        <ele>30.9</ele>
        <time>2017-05-26T10:52:48Z</time>
      </trkpt>
      <trkpt lat="48.09533" lon="-4.47549">
        <ele>30.9</ele>
        <time>2017-05-26T10:52:53Z</time>
      </trkpt>
      <trkpt lat="48.09529" lon="-4.47531">
        <ele>31.38</ele>
        <time>2017-05-26T10:53:06Z</time>
      </trkpt>
      <trkpt lat="48.09527" lon="-4.47524">
        <ele>31.38</ele>
        <time>2017-05-26T10:53:11Z</time>
      </trkpt>
      <trkpt lat="48.09514" lon="-4.475">
        <ele>33.78</ele>
        <time>2017-05-26T10:53:28Z</time>
      </trkpt>
      <trkpt lat="48.09502" lon="-4.47485">
        <ele>35.23</ele>
        <time>2017-05-26T10:53:42Z</time>
      </trkpt>
      <trkpt lat="48.0949" lon="-4.47472">
        <ele>37.15</ele>
        <time>2017-05-26T10:53:55Z</time>
      </trkpt>
      <trkpt lat="48.09483" lon="-4.4746">
        <ele>37.15</ele>
        <time>2017-05-26T10:54:04Z</time>
      </trkpt>
      <trkpt lat="48.09474" lon="-4.47435">
        <ele>35.23</ele>
        <time>2017-05-26T10:54:20Z</time>
      </trkpt>
      <trkpt lat="48.09474" lon="-4.47416">
        <ele>33.3</ele>
        <time>2017-05-26T10:54:33Z</time>
      </trkpt>
      <trkpt lat="48.09473" lon="-4.47409">
        <ele>31.86</ele>
        <time>2017-05-26T10:54:37Z</time>
      </trkpt>
      <trkpt lat="48.09476" lon="-4.474">
        <ele>30.9</ele>
        <time>2017-05-26T10:54:43Z</time>
      </trkpt>
      <trkpt lat="48.09477" lon="-4.47391">
        <ele>28.98</ele>
        <time>2017-05-26T10:54:48Z</time>
      </trkpt>
      <trkpt lat="48.09481" lon="-4.47384">
        <ele>27.53</ele>
        <time>2017-05-26T10:54:53Z</time>
      </trkpt>
      <trkpt lat="48.09487" lon="-4.47376">
        <ele>27.05</ele>
        <time>2017-05-26T10:55:00Z</time>
      </trkpt>
      <trkpt lat="48.09489" lon="-4.47372">
        <ele>26.57</ele>
        <time>2017-05-26T10:55:02Z</time>
      </trkpt>
      <trkpt lat="48.09497" lon="-4.4736">
        <ele>27.53</ele>
        <time>2017-05-26T10:55:10Z</time>
      </trkpt>
      <trkpt lat="48.09499" lon="-4.47358">
        <ele>28.02</ele>
        <time>2017-05-26T10:55:12Z</time>
      </trkpt>
      <trkpt lat="48.09509" lon="-4.47345">
        <ele>28.98</ele>
        <time>2017-05-26T10:55:22Z</time>
      </trkpt>
      <trkpt lat="48.09513" lon="-4.47341">
        <ele>28.5</ele>
        <time>2017-05-26T10:55:25Z</time>
      </trkpt>
      <trkpt lat="48.09527" lon="-4.47333">
        <ele>28.5</ele>
        <time>2017-05-26T10:55:37Z</time>
      </trkpt>
      <trkpt lat="48.09532" lon="-4.47327">
        <ele>28.98</ele>
        <time>2017-05-26T10:55:43Z</time>
      </trkpt>
      <trkpt lat="48.09535" lon="-4.47313">
        <ele>29.46</ele>
        <time>2017-05-26T10:55:53Z</time>
      </trkpt>
      <trkpt lat="48.09547" lon="-4.47299">
        <ele>28.02</ele>
        <time>2017-05-26T10:56:04Z</time>
      </trkpt>
      <trkpt lat="48.09548" lon="-4.47294">
        <ele>27.53</ele>
        <time>2017-05-26T10:56:08Z</time>
      </trkpt>
      <trkpt lat="48.09548" lon="-4.47287">
        <ele>27.05</ele>
        <time>2017-05-26T10:56:12Z</time>
      </trkpt>
      <trkpt lat="48.09548" lon="-4.47279">
        <ele>26.09</ele>
        <time>2017-05-26T10:56:18Z</time>
      </trkpt>
      <trkpt lat="48.09546" lon="-4.47258">
        <ele>25.13</ele>
        <time>2017-05-26T10:56:31Z</time>
      </trkpt>
      <trkpt lat="48.09547" lon="-4.47251">
        <ele>24.65</ele>
        <time>2017-05-26T10:56:35Z</time>
      </trkpt>
      <trkpt lat="48.09548" lon="-4.47228">
        <ele>23.21</ele>
        <time>2017-05-26T10:56:46Z</time>
      </trkpt>
      <trkpt lat="48.09548" lon="-4.47215">
        <ele>22.73</ele>
        <time>2017-05-26T10:56:54Z</time>
      </trkpt>
      <trkpt lat="48.09545" lon="-4.47202">
        <ele>22.73</ele>
        <time>2017-05-26T10:57:01Z</time>
      </trkpt>
      <trkpt lat="48.09541" lon="-4.47195">
        <ele>22.73</ele>
        <time>2017-05-26T10:57:07Z</time>
      </trkpt>
      <trkpt lat="48.09538" lon="-4.47189">
        <ele>22.73</ele>
        <time>2017-05-26T10:57:13Z</time>
      </trkpt>
      <trkpt lat="48.09532" lon="-4.47178">
        <ele>23.69</ele>
        <time>2017-05-26T10:57:24Z</time>
      </trkpt>
      <trkpt lat="48.09531" lon="-4.47177">
        <ele>23.69</ele>
        <time>2017-05-26T10:57:25Z</time>
      </trkpt>
      <trkpt lat="48.09531" lon="-4.47172">
        <ele>23.69</ele>
        <time>2017-05-26T10:57:28Z</time>
      </trkpt>
      <trkpt lat="48.09529" lon="-4.47164">
        <ele>22.73</ele>
        <time>2017-05-26T10:57:35Z</time>
      </trkpt>
      <trkpt lat="48.09531" lon="-4.47145">
        <ele>19.36</ele>
        <time>2017-05-26T10:57:48Z</time>
      </trkpt>
      <trkpt lat="48.09532" lon="-4.47136">
        <ele>18.88</ele>
        <time>2017-05-26T10:57:54Z</time>
      </trkpt>
      <trkpt lat="48.09532" lon="-4.47126">
        <ele>16.96</ele>
        <time>2017-05-26T10:58:00Z</time>
      </trkpt>
      <trkpt lat="48.09534" lon="-4.47119">
        <ele>16.48</ele>
        <time>2017-05-26T10:58:04Z</time>
      </trkpt>
      <trkpt lat="48.09535" lon="-4.47116">
        <ele>16</ele>
        <time>2017-05-26T10:58:06Z</time>
      </trkpt>
      <trkpt lat="48.09541" lon="-4.47094">
        <ele>16</ele>
        <time>2017-05-26T10:58:20Z</time>
      </trkpt>
      <trkpt lat="48.09551" lon="-4.47081">
        <ele>16.96</ele>
        <time>2017-05-26T10:58:30Z</time>
      </trkpt>
      <trkpt lat="48.0956" lon="-4.47077">
        <ele>16.48</ele>
        <time>2017-05-26T10:58:37Z</time>
      </trkpt>
      <trkpt lat="48.09562" lon="-4.47073">
        <ele>16.96</ele>
        <time>2017-05-26T10:58:40Z</time>
      </trkpt>
      <trkpt lat="48.09564" lon="-4.47064">
        <ele>16.96</ele>
        <time>2017-05-26T10:58:48Z</time>
      </trkpt>
      <trkpt lat="48.09567" lon="-4.47058">
        <ele>16.48</ele>
        <time>2017-05-26T10:58:53Z</time>
      </trkpt>
      <trkpt lat="48.09569" lon="-4.47048">
        <ele>15.52</ele>
        <time>2017-05-26T10:59:00Z</time>
      </trkpt>
      <trkpt lat="48.09564" lon="-4.47029">
        <ele>12.15</ele>
        <time>2017-05-26T10:59:14Z</time>
      </trkpt>
      <trkpt lat="48.09562" lon="-4.47023">
        <ele>12.15</ele>
        <time>2017-05-26T10:59:19Z</time>
      </trkpt>
      <trkpt lat="48.09554" lon="-4.47013">
        <ele>14.08</ele>
        <time>2017-05-26T10:59:28Z</time>
      </trkpt>
      <trkpt lat="48.09554" lon="-4.47004">
        <ele>15.04</ele>
        <time>2017-05-26T10:59:35Z</time>
      </trkpt>
      <trkpt lat="48.09553" lon="-4.46991">
        <ele>15.52</ele>
        <time>2017-05-26T10:59:42Z</time>
      </trkpt>
      <trkpt lat="48.09548" lon="-4.46969">
        <ele>14.56</ele>
        <time>2017-05-26T10:59:55Z</time>
      </trkpt>
      <trkpt lat="48.09549" lon="-4.46962">
        <ele>13.12</ele>
        <time>2017-05-26T11:00:00Z</time>
      </trkpt>
      <trkpt lat="48.0955" lon="-4.46954">
        <ele>12.63</ele>
        <time>2017-05-26T11:00:04Z</time>
      </trkpt>
      <trkpt lat="48.09544" lon="-4.46931">
        <ele>11.67</ele>
        <time>2017-05-26T11:00:19Z</time>
      </trkpt>
      <trkpt lat="48.09539" lon="-4.46917">
        <ele>11.67</ele>
        <time>2017-05-26T11:00:28Z</time>
      </trkpt>
      <trkpt lat="48.09528" lon="-4.469">
        <ele>15.04</ele>
        <time>2017-05-26T11:00:43Z</time>
      </trkpt>
      <trkpt lat="48.09528" lon="-4.46898">
        <ele>15.04</ele>
        <time>2017-05-26T11:00:44Z</time>
      </trkpt>
      <trkpt lat="48.09527" lon="-4.46895">
        <ele>15.52</ele>
        <time>2017-05-26T11:00:46Z</time>
      </trkpt>
      <trkpt lat="48.09527" lon="-4.46887">
        <ele>16.48</ele>
        <time>2017-05-26T11:00:51Z</time>
      </trkpt>
      <trkpt lat="48.09526" lon="-4.46873">
        <ele>17.44</ele>
        <time>2017-05-26T11:00:59Z</time>
      </trkpt>
      <trkpt lat="48.09522" lon="-4.46863">
        <ele>17.92</ele>
        <time>2017-05-26T11:01:07Z</time>
      </trkpt>
      <trkpt lat="48.09524" lon="-4.46849">
        <ele>17.92</ele>
        <time>2017-05-26T11:01:14Z</time>
      </trkpt>
      <trkpt lat="48.09525" lon="-4.46828">
        <ele>17.92</ele>
        <time>2017-05-26T11:01:25Z</time>
      </trkpt>
      <trkpt lat="48.09526" lon="-4.46819">
        <ele>19.36</ele>
        <time>2017-05-26T11:01:31Z</time>
      </trkpt>
      <trkpt lat="48.09528" lon="-4.46807">
        <ele>20.32</ele>
        <time>2017-05-26T11:01:39Z</time>
      </trkpt>
      <trkpt lat="48.09531" lon="-4.46799">
        <ele>19.84</ele>
        <time>2017-05-26T11:01:45Z</time>
      </trkpt>
      <trkpt lat="48.09535" lon="-4.46785">
        <ele>19.36</ele>
        <time>2017-05-26T11:02:01Z</time>
      </trkpt>
      <trkpt lat="48.09535" lon="-4.46771">
        <ele>19.36</ele>
        <time>2017-05-26T11:02:18Z</time>
      </trkpt>
      <trkpt lat="48.09534" lon="-4.46764">
        <ele>18.88</ele>
        <time>2017-05-26T11:02:23Z</time>
      </trkpt>
      <trkpt lat="48.09536" lon="-4.46752">
        <ele>19.36</ele>
        <time>2017-05-26T11:02:35Z</time>
      </trkpt>
      <trkpt lat="48.09537" lon="-4.46747">
        <ele>19.84</ele>
        <time>2017-05-26T11:02:40Z</time>
      </trkpt>
      <trkpt lat="48.09538" lon="-4.46729">
        <ele>19.84</ele>
        <time>2017-05-26T11:02:52Z</time>
      </trkpt>
      <trkpt lat="48.09539" lon="-4.46726">
        <ele>19.84</ele>
        <time>2017-05-26T11:02:54Z</time>
      </trkpt>
      <trkpt lat="48.09551" lon="-4.46712">
        <ele>18.88</ele>
        <time>2017-05-26T11:03:08Z</time>
      </trkpt>
      <trkpt lat="48.09552" lon="-4.46711">
        <ele>18.88</ele>
        <time>2017-05-26T11:03:10Z</time>
      </trkpt>
      <trkpt lat="48.09555" lon="-4.46704">
        <ele>18.88</ele>
        <time>2017-05-26T11:03:16Z</time>
      </trkpt>
      <trkpt lat="48.09558" lon="-4.46698">
        <ele>18.4</ele>
        <time>2017-05-26T11:03:22Z</time>
      </trkpt>
      <trkpt lat="48.09559" lon="-4.46692">
        <ele>16.48</ele>
        <time>2017-05-26T11:03:41Z</time>
      </trkpt>
      <trkpt lat="48.0956" lon="-4.46692">
        <ele>16.48</ele>
        <time>2017-05-26T11:04:05Z</time>
      </trkpt>
      <trkpt lat="48.09559" lon="-4.46692">
        <ele>16</ele>
        <time>2017-05-26T11:04:29Z</time>
      </trkpt>
      <trkpt lat="48.09559" lon="-4.46691">
        <ele>16</ele>
        <time>2017-05-26T11:04:51Z</time>
      </trkpt>
      <trkpt lat="48.09559" lon="-4.4669">
        <ele>16</ele>
        <time>2017-05-26T11:05:10Z</time>
      </trkpt>
      <trkpt lat="48.09563" lon="-4.46676">
        <ele>16</ele>
        <time>2017-05-26T11:05:25Z</time>
      </trkpt>
      <trkpt lat="48.09565" lon="-4.46649">
        <ele>16.48</ele>
        <time>2017-05-26T11:05:39Z</time>
      </trkpt>
      <trkpt lat="48.09564" lon="-4.46638">
        <ele>17.92</ele>
        <time>2017-05-26T11:05:46Z</time>
      </trkpt>
      <trkpt lat="48.09561" lon="-4.46626">
        <ele>19.84</ele>
        <time>2017-05-26T11:05:54Z</time>
      </trkpt>
      <trkpt lat="48.09562" lon="-4.46608">
        <ele>22.73</ele>
        <time>2017-05-26T11:06:07Z</time>
      </trkpt>
      <trkpt lat="48.0957" lon="-4.46589">
        <ele>25.13</ele>
        <time>2017-05-26T11:06:20Z</time>
      </trkpt>
      <trkpt lat="48.09571" lon="-4.46586">
        <ele>25.61</ele>
        <time>2017-05-26T11:06:22Z</time>
      </trkpt>
      <trkpt lat="48.09579" lon="-4.46574">
        <ele>26.57</ele>
        <time>2017-05-26T11:06:31Z</time>
      </trkpt>
      <trkpt lat="48.09588" lon="-4.46562">
        <ele>25.13</ele>
        <time>2017-05-26T11:06:41Z</time>
      </trkpt>
      <trkpt lat="48.09598" lon="-4.46553">
        <ele>24.65</ele>
        <time>2017-05-26T11:06:51Z</time>
      </trkpt>
      <trkpt lat="48.09606" lon="-4.46551">
        <ele>24.65</ele>
        <time>2017-05-26T11:06:56Z</time>
      </trkpt>
      <trkpt lat="48.09615" lon="-4.46546">
        <ele>22.73</ele>
        <time>2017-05-26T11:07:05Z</time>
      </trkpt>
      <trkpt lat="48.09628" lon="-4.46547">
        <ele>20.81</ele>
        <time>2017-05-26T11:07:17Z</time>
      </trkpt>
      <trkpt lat="48.09639" lon="-4.46548">
        <ele>20.81</ele>
        <time>2017-05-26T11:07:24Z</time>
      </trkpt>
      <trkpt lat="48.09657" lon="-4.46556">
        <ele>16</ele>
        <time>2017-05-26T11:07:39Z</time>
      </trkpt>
      <trkpt lat="48.09674" lon="-4.46567">
        <ele>18.4</ele>
        <time>2017-05-26T11:07:54Z</time>
      </trkpt>
      <trkpt lat="48.09677" lon="-4.46567">
        <ele>20.32</ele>
        <time>2017-05-26T11:07:58Z</time>
      </trkpt>
      <trkpt lat="48.09682" lon="-4.46575">
        <ele>23.69</ele>
        <time>2017-05-26T11:08:07Z</time>
      </trkpt>
      <trkpt lat="48.09685" lon="-4.46586">
        <ele>24.65</ele>
        <time>2017-05-26T11:08:15Z</time>
      </trkpt>
      <trkpt lat="48.09693" lon="-4.46594">
        <ele>26.57</ele>
        <time>2017-05-26T11:08:25Z</time>
      </trkpt>
      <trkpt lat="48.09698" lon="-4.46612">
        <ele>28.02</ele>
        <time>2017-05-26T11:08:38Z</time>
      </trkpt>
      <trkpt lat="48.09702" lon="-4.46618">
        <ele>28.02</ele>
        <time>2017-05-26T11:08:43Z</time>
      </trkpt>
      <trkpt lat="48.09705" lon="-4.46621">
        <ele>29.46</ele>
        <time>2017-05-26T11:08:47Z</time>
      </trkpt>
      <trkpt lat="48.09714" lon="-4.46616">
        <ele>31.86</ele>
        <time>2017-05-26T11:08:58Z</time>
      </trkpt>
      <trkpt lat="48.09717" lon="-4.46616">
        <ele>31.86</ele>
        <time>2017-05-26T11:09:01Z</time>
      </trkpt>
      <trkpt lat="48.09719" lon="-4.46614">
        <ele>31.86</ele>
        <time>2017-05-26T11:09:05Z</time>
      </trkpt>
      <trkpt lat="48.09728" lon="-4.46612">
        <ele>33.3</ele>
        <time>2017-05-26T11:09:17Z</time>
      </trkpt>
      <trkpt lat="48.09729" lon="-4.46611">
        <ele>33.3</ele>
        <time>2017-05-26T11:09:18Z</time>
      </trkpt>
      <trkpt lat="48.09733" lon="-4.46607">
        <ele>35.71</ele>
        <time>2017-05-26T11:09:30Z</time>
      </trkpt>
      <trkpt lat="48.09732" lon="-4.46606">
        <ele>35.71</ele>
        <time>2017-05-26T11:09:42Z</time>
      </trkpt>
      <trkpt lat="48.09733" lon="-4.46603">
        <ele>36.19</ele>
        <time>2017-05-26T11:09:50Z</time>
      </trkpt>
      <trkpt lat="48.09733" lon="-4.466">
        <ele>36.19</ele>
        <time>2017-05-26T11:09:52Z</time>
      </trkpt>
      <trkpt lat="48.09735" lon="-4.46597">
        <ele>36.19</ele>
        <time>2017-05-26T11:09:54Z</time>
      </trkpt>
      <trkpt lat="48.09736" lon="-4.46597">
        <ele>37.15</ele>
        <time>2017-05-26T11:10:03Z</time>
      </trkpt>
      <trkpt lat="48.09734" lon="-4.46605">
        <ele>37.15</ele>
        <time>2017-05-26T11:10:15Z</time>
      </trkpt>
      <trkpt lat="48.09734" lon="-4.46605">
        <ele>37.15</ele>
        <time>2017-05-26T11:10:33Z</time>
      </trkpt>
      <trkpt lat="48.09734" lon="-4.46603">
        <ele>37.63</ele>
        <time>2017-05-26T11:10:45Z</time>
      </trkpt>
      <trkpt lat="48.09734" lon="-4.46598">
        <ele>38.11</ele>
        <time>2017-05-26T11:10:49Z</time>
      </trkpt>
      <trkpt lat="48.09744" lon="-4.46583">
        <ele>40.03</ele>
        <time>2017-05-26T11:11:01Z</time>
      </trkpt>
      <trkpt lat="48.09749" lon="-4.46572">
        <ele>40.99</ele>
        <time>2017-05-26T11:11:08Z</time>
      </trkpt>
      <trkpt lat="48.09757" lon="-4.46547">
        <ele>40.51</ele>
        <time>2017-05-26T11:11:23Z</time>
      </trkpt>
      <trkpt lat="48.09757" lon="-4.46545">
        <ele>40.51</ele>
        <time>2017-05-26T11:11:24Z</time>
      </trkpt>
      <trkpt lat="48.09759" lon="-4.46538">
        <ele>40.03</ele>
        <time>2017-05-26T11:11:28Z</time>
      </trkpt>
      <trkpt lat="48.09772" lon="-4.4652">
        <ele>40.51</ele>
        <time>2017-05-26T11:11:42Z</time>
      </trkpt>
      <trkpt lat="48.09775" lon="-4.46515">
        <ele>40.99</ele>
        <time>2017-05-26T11:11:46Z</time>
      </trkpt>
      <trkpt lat="48.09782" lon="-4.46513">
        <ele>41.47</ele>
        <time>2017-05-26T11:11:53Z</time>
      </trkpt>
      <trkpt lat="48.09787" lon="-4.46506">
        <ele>42.92</ele>
        <time>2017-05-26T11:12:03Z</time>
      </trkpt>
      <trkpt lat="48.09791" lon="-4.46505">
        <ele>43.4</ele>
        <time>2017-05-26T11:12:07Z</time>
      </trkpt>
      <trkpt lat="48.09794" lon="-4.46502">
        <ele>42.44</ele>
        <time>2017-05-26T11:12:11Z</time>
      </trkpt>
      <trkpt lat="48.09796" lon="-4.46499">
        <ele>41.95</ele>
        <time>2017-05-26T11:12:14Z</time>
      </trkpt>
      <trkpt lat="48.09799" lon="-4.46493">
        <ele>41.47</ele>
        <time>2017-05-26T11:12:18Z</time>
      </trkpt>
      <trkpt lat="48.09805" lon="-4.46486">
        <ele>41.47</ele>
        <time>2017-05-26T11:12:24Z</time>
      </trkpt>
      <trkpt lat="48.09814" lon="-4.46471">
        <ele>39.55</ele>
        <time>2017-05-26T11:12:36Z</time>
      </trkpt>
      <trkpt lat="48.09833" lon="-4.4647">
        <ele>39.55</ele>
        <time>2017-05-26T11:12:50Z</time>
      </trkpt>
      <trkpt lat="48.09841" lon="-4.46475">
        <ele>38.11</ele>
        <time>2017-05-26T11:12:58Z</time>
      </trkpt>
      <trkpt lat="48.09843" lon="-4.46471">
        <ele>38.59</ele>
        <time>2017-05-26T11:13:02Z</time>
      </trkpt>
      <trkpt lat="48.09854" lon="-4.46472">
        <ele>39.55</ele>
        <time>2017-05-26T11:13:14Z</time>
      </trkpt>
      <trkpt lat="48.09857" lon="-4.46467">
        <ele>39.07</ele>
        <time>2017-05-26T11:13:28Z</time>
      </trkpt>
      <trkpt lat="48.09858" lon="-4.46468">
        <ele>39.07</ele>
        <time>2017-05-26T11:13:32Z</time>
      </trkpt>
      <trkpt lat="48.09862" lon="-4.46473">
        <ele>38.59</ele>
        <time>2017-05-26T11:13:47Z</time>
      </trkpt>
      <trkpt lat="48.09863" lon="-4.46474">
        <ele>38.11</ele>
        <time>2017-05-26T11:14:05Z</time>
      </trkpt>
      <trkpt lat="48.09863" lon="-4.46475">
        <ele>38.11</ele>
        <time>2017-05-26T11:14:24Z</time>
      </trkpt>
      <trkpt lat="48.09863" lon="-4.46474">
        <ele>38.11</ele>
        <time>2017-05-26T11:14:26Z</time>
      </trkpt>
      <trkpt lat="48.09859" lon="-4.46466">
        <ele>38.59</ele>
        <time>2017-05-26T11:14:33Z</time>
      </trkpt>
      <trkpt lat="48.09859" lon="-4.46456">
        <ele>39.07</ele>
        <time>2017-05-26T11:14:37Z</time>
      </trkpt>
      <trkpt lat="48.09859" lon="-4.46451">
        <ele>39.55</ele>
        <time>2017-05-26T11:14:40Z</time>
      </trkpt>
      <trkpt lat="48.09856" lon="-4.46442">
        <ele>40.51</ele>
        <time>2017-05-26T11:14:46Z</time>
      </trkpt>
      <trkpt lat="48.09854" lon="-4.46432">
        <ele>40.51</ele>
        <time>2017-05-26T11:14:51Z</time>
      </trkpt>
      <trkpt lat="48.0985" lon="-4.46421">
        <ele>40.51</ele>
        <time>2017-05-26T11:14:57Z</time>
      </trkpt>
      <trkpt lat="48.09848" lon="-4.46412">
        <ele>40.51</ele>
        <time>2017-05-26T11:15:02Z</time>
      </trkpt>
      <trkpt lat="48.09842" lon="-4.46388">
        <ele>42.92</ele>
        <time>2017-05-26T11:15:14Z</time>
      </trkpt>
      <trkpt lat="48.09838" lon="-4.46378">
        <ele>42.92</ele>
        <time>2017-05-26T11:15:20Z</time>
      </trkpt>
      <trkpt lat="48.09836" lon="-4.46349">
        <ele>41.47</ele>
        <time>2017-05-26T11:15:36Z</time>
      </trkpt>
      <trkpt lat="48.09834" lon="-4.46332">
        <ele>41.95</ele>
        <time>2017-05-26T11:15:45Z</time>
      </trkpt>
      <trkpt lat="48.09823" lon="-4.46317">
        <ele>42.92</ele>
        <time>2017-05-26T11:16:00Z</time>
      </trkpt>
      <trkpt lat="48.09821" lon="-4.46315">
        <ele>42.92</ele>
        <time>2017-05-26T11:16:07Z</time>
      </trkpt>
      <trkpt lat="48.09819" lon="-4.46302">
        <ele>41.47</ele>
        <time>2017-05-26T11:16:18Z</time>
      </trkpt>
      <trkpt lat="48.09814" lon="-4.4629">
        <ele>40.99</ele>
        <time>2017-05-26T11:16:32Z</time>
      </trkpt>
      <trkpt lat="48.09814" lon="-4.4629">
        <ele>40.99</ele>
        <time>2017-05-26T11:16:34Z</time>
      </trkpt>
      <trkpt lat="48.09812" lon="-4.46289">
        <ele>40.99</ele>
        <time>2017-05-26T11:16:36Z</time>
      </trkpt>
      <trkpt lat="48.09809" lon="-4.46282">
        <ele>41.47</ele>
        <time>2017-05-26T11:16:43Z</time>
      </trkpt>
      <trkpt lat="48.09806" lon="-4.46278">
        <ele>40.03</ele>
        <time>2017-05-26T11:16:59Z</time>
      </trkpt>
      <trkpt lat="48.09805" lon="-4.46275">
        <ele>37.63</ele>
        <time>2017-05-26T11:17:19Z</time>
      </trkpt>
      <trkpt lat="48.09801" lon="-4.46267">
        <ele>33.3</ele>
        <time>2017-05-26T11:17:40Z</time>
      </trkpt>
      <trkpt lat="48.09799" lon="-4.46266">
        <ele>31.86</ele>
        <time>2017-05-26T11:18:05Z</time>
      </trkpt>
      <trkpt lat="48.09799" lon="-4.46265">
        <ele>31.38</ele>
        <time>2017-05-26T11:18:33Z</time>
      </trkpt>
      <trkpt lat="48.09801" lon="-4.46263">
        <ele>29.94</ele>
        <time>2017-05-26T11:19:01Z</time>
      </trkpt>
      <trkpt lat="48.098" lon="-4.4626">
        <ele>28.98</ele>
        <time>2017-05-26T11:19:26Z</time>
      </trkpt>
      <trkpt lat="48.09799" lon="-4.4626">
        <ele>28.5</ele>
        <time>2017-05-26T11:19:38Z</time>
      </trkpt>
      <trkpt lat="48.09804" lon="-4.46263">
        <ele>33.3</ele>
        <time>2017-05-26T12:08:02Z</time>
      </trkpt>
      <trkpt lat="48.09803" lon="-4.46259">
        <ele>35.23</ele>
        <time>2017-05-26T12:08:29Z</time>
      </trkpt>
      <trkpt lat="48.09801" lon="-4.46258">
        <ele>32.34</ele>
        <time>2017-05-26T12:08:58Z</time>
      </trkpt>
      <trkpt lat="48.09798" lon="-4.46257">
        <ele>29.46</ele>
        <time>2017-05-26T12:09:35Z</time>
      </trkpt>
      <trkpt lat="48.09799" lon="-4.46259">
        <ele>25.13</ele>
        <time>2017-05-26T12:10:04Z</time>
      </trkpt>
      <trkpt lat="48.09798" lon="-4.46257">
        <ele>24.65</ele>
        <time>2017-05-26T12:10:26Z</time>
      </trkpt>
      <trkpt lat="48.09797" lon="-4.46257">
        <ele>24.17</ele>
        <time>2017-05-26T12:10:30Z</time>
      </trkpt>
      <trkpt lat="48.09787" lon="-4.4625">
        <ele>19.84</ele>
        <time>2017-05-26T12:10:47Z</time>
      </trkpt>
      <trkpt lat="48.09778" lon="-4.46248">
        <ele>16.96</ele>
        <time>2017-05-26T12:11:01Z</time>
      </trkpt>
      <trkpt lat="48.09757" lon="-4.46249">
        <ele>15.52</ele>
        <time>2017-05-26T12:11:17Z</time>
      </trkpt>
      <trkpt lat="48.09742" lon="-4.46253">
        <ele>16</ele>
        <time>2017-05-26T12:11:33Z</time>
      </trkpt>
      <trkpt lat="48.09733" lon="-4.46257">
        <ele>16.96</ele>
        <time>2017-05-26T12:11:42Z</time>
      </trkpt>
      <trkpt lat="48.09722" lon="-4.46264">
        <ele>17.44</ele>
        <time>2017-05-26T12:11:51Z</time>
      </trkpt>
      <trkpt lat="48.09708" lon="-4.46266">
        <ele>16</ele>
        <time>2017-05-26T12:12:06Z</time>
      </trkpt>
      <trkpt lat="48.09702" lon="-4.46265">
        <ele>15.52</ele>
        <time>2017-05-26T12:12:12Z</time>
      </trkpt>
      <trkpt lat="48.09694" lon="-4.46257">
        <ele>12.63</ele>
        <time>2017-05-26T12:12:27Z</time>
      </trkpt>
      <trkpt lat="48.09706" lon="-4.46249">
        <ele>6.87</ele>
        <time>2017-05-26T12:12:44Z</time>
      </trkpt>
      <trkpt lat="48.09709" lon="-4.4624">
        <ele>6.39</ele>
        <time>2017-05-26T12:13:00Z</time>
      </trkpt>
      <trkpt lat="48.09702" lon="-4.46232">
        <ele>4.46</ele>
        <time>2017-05-26T12:13:12Z</time>
      </trkpt>
      <trkpt lat="48.097" lon="-4.46231">
        <ele>4.46</ele>
        <time>2017-05-26T12:13:14Z</time>
      </trkpt>
      <trkpt lat="48.0969" lon="-4.46226">
        <ele>3.98</ele>
        <time>2017-05-26T12:13:26Z</time>
      </trkpt>
      <trkpt lat="48.09687" lon="-4.46209">
        <ele>4.46</ele>
        <time>2017-05-26T12:13:37Z</time>
      </trkpt>
      <trkpt lat="48.09682" lon="-4.46194">
        <ele>5.91</ele>
        <time>2017-05-26T12:13:48Z</time>
      </trkpt>
      <trkpt lat="48.09684" lon="-4.46185">
        <ele>6.39</ele>
        <time>2017-05-26T12:13:53Z</time>
      </trkpt>
      <trkpt lat="48.09685" lon="-4.46181">
        <ele>6.39</ele>
        <time>2017-05-26T12:13:58Z</time>
      </trkpt>
      <trkpt lat="48.09689" lon="-4.46176">
        <ele>5.91</ele>
        <time>2017-05-26T12:14:05Z</time>
      </trkpt>
      <trkpt lat="48.0969" lon="-4.4617">
        <ele>5.91</ele>
        <time>2017-05-26T12:14:10Z</time>
      </trkpt>
      <trkpt lat="48.09692" lon="-4.46167">
        <ele>5.91</ele>
        <time>2017-05-26T12:14:12Z</time>
      </trkpt>
      <trkpt lat="48.09699" lon="-4.46154">
        <ele>5.91</ele>
        <time>2017-05-26T12:14:28Z</time>
      </trkpt>
      <trkpt lat="48.09706" lon="-4.46142">
        <ele>7.35</ele>
        <time>2017-05-26T12:14:42Z</time>
      </trkpt>
      <trkpt lat="48.09706" lon="-4.46125">
        <ele>7.83</ele>
        <time>2017-05-26T12:14:56Z</time>
      </trkpt>
      <trkpt lat="48.09706" lon="-4.46112">
        <ele>8.31</ele>
        <time>2017-05-26T12:15:07Z</time>
      </trkpt>
      <trkpt lat="48.09702" lon="-4.46085">
        <ele>11.19</ele>
        <time>2017-05-26T12:15:24Z</time>
      </trkpt>
      <trkpt lat="48.09699" lon="-4.46074">
        <ele>11.19</ele>
        <time>2017-05-26T12:15:31Z</time>
      </trkpt>
      <trkpt lat="48.09696" lon="-4.46051">
        <ele>12.15</ele>
        <time>2017-05-26T12:15:44Z</time>
      </trkpt>
      <trkpt lat="48.0969" lon="-4.46042">
        <ele>11.19</ele>
        <time>2017-05-26T12:15:52Z</time>
      </trkpt>
      <trkpt lat="48.09679" lon="-4.46034">
        <ele>10.71</ele>
        <time>2017-05-26T12:16:02Z</time>
      </trkpt>
      <trkpt lat="48.09676" lon="-4.46032">
        <ele>10.71</ele>
        <time>2017-05-26T12:16:05Z</time>
      </trkpt>
      <trkpt lat="48.09668" lon="-4.4601">
        <ele>11.67</ele>
        <time>2017-05-26T12:16:20Z</time>
      </trkpt>
      <trkpt lat="48.09667" lon="-4.46004">
        <ele>12.15</ele>
        <time>2017-05-26T12:16:24Z</time>
      </trkpt>
      <trkpt lat="48.09661" lon="-4.45994">
        <ele>13.6</ele>
        <time>2017-05-26T12:16:34Z</time>
      </trkpt>
      <trkpt lat="48.09657" lon="-4.45992">
        <ele>14.08</ele>
        <time>2017-05-26T12:16:37Z</time>
      </trkpt>
      <trkpt lat="48.09654" lon="-4.45984">
        <ele>13.6</ele>
        <time>2017-05-26T12:16:48Z</time>
      </trkpt>
      <trkpt lat="48.09654" lon="-4.45977">
        <ele>14.56</ele>
        <time>2017-05-26T12:16:52Z</time>
      </trkpt>
      <trkpt lat="48.09649" lon="-4.45971">
        <ele>14.08</ele>
        <time>2017-05-26T12:16:59Z</time>
      </trkpt>
      <trkpt lat="48.09648" lon="-4.45959">
        <ele>15.52</ele>
        <time>2017-05-26T12:17:08Z</time>
      </trkpt>
      <trkpt lat="48.0965" lon="-4.4595">
        <ele>17.44</ele>
        <time>2017-05-26T12:17:13Z</time>
      </trkpt>
      <trkpt lat="48.0966" lon="-4.45941">
        <ele>19.36</ele>
        <time>2017-05-26T12:17:29Z</time>
      </trkpt>
      <trkpt lat="48.09661" lon="-4.45935">
        <ele>19.84</ele>
        <time>2017-05-26T12:17:32Z</time>
      </trkpt>
      <trkpt lat="48.09663" lon="-4.45928">
        <ele>19.84</ele>
        <time>2017-05-26T12:17:36Z</time>
      </trkpt>
      <trkpt lat="48.09663" lon="-4.45905">
        <ele>18.88</ele>
        <time>2017-05-26T12:17:50Z</time>
      </trkpt>
      <trkpt lat="48.09659" lon="-4.45896">
        <ele>19.36</ele>
        <time>2017-05-26T12:17:59Z</time>
      </trkpt>
      <trkpt lat="48.0966" lon="-4.45886">
        <ele>18.88</ele>
        <time>2017-05-26T12:18:04Z</time>
      </trkpt>
      <trkpt lat="48.09664" lon="-4.45875">
        <ele>17.44</ele>
        <time>2017-05-26T12:18:11Z</time>
      </trkpt>
      <trkpt lat="48.09667" lon="-4.45863">
        <ele>16.48</ele>
        <time>2017-05-26T12:18:17Z</time>
      </trkpt>
      <trkpt lat="48.0967" lon="-4.45855">
        <ele>15.04</ele>
        <time>2017-05-26T12:18:23Z</time>
      </trkpt>
      <trkpt lat="48.09669" lon="-4.45851">
        <ele>15.04</ele>
        <time>2017-05-26T12:18:26Z</time>
      </trkpt>
      <trkpt lat="48.09665" lon="-4.45847">
        <ele>14.56</ele>
        <time>2017-05-26T12:18:31Z</time>
      </trkpt>
      <trkpt lat="48.09663" lon="-4.45839">
        <ele>14.56</ele>
        <time>2017-05-26T12:18:36Z</time>
      </trkpt>
      <trkpt lat="48.09663" lon="-4.45832">
        <ele>14.56</ele>
        <time>2017-05-26T12:18:40Z</time>
      </trkpt>
      <trkpt lat="48.09667" lon="-4.45826">
        <ele>14.08</ele>
        <time>2017-05-26T12:18:45Z</time>
      </trkpt>
      <trkpt lat="48.09674" lon="-4.45819">
        <ele>13.12</ele>
        <time>2017-05-26T12:18:53Z</time>
      </trkpt>
      <trkpt lat="48.09683" lon="-4.45802">
        <ele>13.6</ele>
        <time>2017-05-26T12:19:06Z</time>
      </trkpt>
      <trkpt lat="48.09679" lon="-4.45798">
        <ele>13.6</ele>
        <time>2017-05-26T12:19:10Z</time>
      </trkpt>
      <trkpt lat="48.09675" lon="-4.45794">
        <ele>13.6</ele>
        <time>2017-05-26T12:19:14Z</time>
      </trkpt>
      <trkpt lat="48.09673" lon="-4.45791">
        <ele>13.6</ele>
        <time>2017-05-26T12:19:16Z</time>
      </trkpt>
      <trkpt lat="48.09664" lon="-4.45779">
        <ele>12.15</ele>
        <time>2017-05-26T12:19:26Z</time>
      </trkpt>
      <trkpt lat="48.09657" lon="-4.45765">
        <ele>13.12</ele>
        <time>2017-05-26T12:19:39Z</time>
      </trkpt>
      <trkpt lat="48.0964" lon="-4.45754">
        <ele>14.08</ele>
        <time>2017-05-26T12:19:54Z</time>
      </trkpt>
      <trkpt lat="48.09633" lon="-4.45742">
        <ele>14.56</ele>
        <time>2017-05-26T12:20:09Z</time>
      </trkpt>
      <trkpt lat="48.09628" lon="-4.45733">
        <ele>15.04</ele>
        <time>2017-05-26T12:20:23Z</time>
      </trkpt>
      <trkpt lat="48.09624" lon="-4.45722">
        <ele>16.96</ele>
        <time>2017-05-26T12:20:32Z</time>
      </trkpt>
      <trkpt lat="48.09622" lon="-4.45712">
        <ele>17.92</ele>
        <time>2017-05-26T12:20:38Z</time>
      </trkpt>
      <trkpt lat="48.09617" lon="-4.45703">
        <ele>20.32</ele>
        <time>2017-05-26T12:20:47Z</time>
      </trkpt>
      <trkpt lat="48.09615" lon="-4.45696">
        <ele>22.25</ele>
        <time>2017-05-26T12:20:53Z</time>
      </trkpt>
      <trkpt lat="48.09612" lon="-4.45688">
        <ele>23.69</ele>
        <time>2017-05-26T12:20:59Z</time>
      </trkpt>
      <trkpt lat="48.09612" lon="-4.4568">
        <ele>24.65</ele>
        <time>2017-05-26T12:21:04Z</time>
      </trkpt>
      <trkpt lat="48.09612" lon="-4.45677">
        <ele>25.13</ele>
        <time>2017-05-26T12:21:06Z</time>
      </trkpt>
      <trkpt lat="48.09611" lon="-4.45652">
        <ele>27.05</ele>
        <time>2017-05-26T12:21:23Z</time>
      </trkpt>
      <trkpt lat="48.09612" lon="-4.45635">
        <ele>28.02</ele>
        <time>2017-05-26T12:21:35Z</time>
      </trkpt>
      <trkpt lat="48.09619" lon="-4.45619">
        <ele>29.46</ele>
        <time>2017-05-26T12:21:49Z</time>
      </trkpt>
      <trkpt lat="48.0962" lon="-4.45619">
        <ele>29.46</ele>
        <time>2017-05-26T12:21:50Z</time>
      </trkpt>
      <trkpt lat="48.09627" lon="-4.45618">
        <ele>29.94</ele>
        <time>2017-05-26T12:22:08Z</time>
      </trkpt>
      <trkpt lat="48.09629" lon="-4.45611">
        <ele>29.94</ele>
        <time>2017-05-26T12:22:13Z</time>
      </trkpt>
      <trkpt lat="48.09632" lon="-4.456">
        <ele>31.86</ele>
        <time>2017-05-26T12:22:23Z</time>
      </trkpt>
      <trkpt lat="48.09634" lon="-4.45593">
        <ele>32.82</ele>
        <time>2017-05-26T12:22:29Z</time>
      </trkpt>
      <trkpt lat="48.09628" lon="-4.45584">
        <ele>37.15</ele>
        <time>2017-05-26T12:22:42Z</time>
      </trkpt>
      <trkpt lat="48.09628" lon="-4.45583">
        <ele>37.15</ele>
        <time>2017-05-26T12:23:00Z</time>
      </trkpt>
      <trkpt lat="48.09629" lon="-4.45585">
        <ele>37.15</ele>
        <time>2017-05-26T12:23:23Z</time>
      </trkpt>
      <trkpt lat="48.09632" lon="-4.45588">
        <ele>33.78</ele>
        <time>2017-05-26T12:23:34Z</time>
      </trkpt>
      <trkpt lat="48.09636" lon="-4.45589">
        <ele>32.34</ele>
        <time>2017-05-26T12:23:38Z</time>
      </trkpt>
      <trkpt lat="48.09644" lon="-4.45587">
        <ele>28.5</ele>
        <time>2017-05-26T12:23:50Z</time>
      </trkpt>
      <trkpt lat="48.09645" lon="-4.45586">
        <ele>28.02</ele>
        <time>2017-05-26T12:23:51Z</time>
      </trkpt>
      <trkpt lat="48.09653" lon="-4.45586">
        <ele>24.65</ele>
        <time>2017-05-26T12:24:01Z</time>
      </trkpt>
      <trkpt lat="48.09664" lon="-4.45584">
        <ele>19.36</ele>
        <time>2017-05-26T12:24:13Z</time>
      </trkpt>
      <trkpt lat="48.09665" lon="-4.45577">
        <ele>18.88</ele>
        <time>2017-05-26T12:24:17Z</time>
      </trkpt>
      <trkpt lat="48.0966" lon="-4.45551">
        <ele>16.48</ele>
        <time>2017-05-26T12:24:31Z</time>
      </trkpt>
      <trkpt lat="48.09661" lon="-4.45535">
        <ele>18.4</ele>
        <time>2017-05-26T12:24:45Z</time>
      </trkpt>
      <trkpt lat="48.09661" lon="-4.45523">
        <ele>18.88</ele>
        <time>2017-05-26T12:24:51Z</time>
      </trkpt>
      <trkpt lat="48.09664" lon="-4.45517">
        <ele>18.4</ele>
        <time>2017-05-26T12:24:57Z</time>
      </trkpt>
      <trkpt lat="48.09675" lon="-4.4551">
        <ele>17.44</ele>
        <time>2017-05-26T12:25:08Z</time>
      </trkpt>
      <trkpt lat="48.09677" lon="-4.4551">
        <ele>17.44</ele>
        <time>2017-05-26T12:25:10Z</time>
      </trkpt>
      <trkpt lat="48.09684" lon="-4.455">
        <ele>17.92</ele>
        <time>2017-05-26T12:25:18Z</time>
      </trkpt>
      <trkpt lat="48.09688" lon="-4.4549">
        <ele>19.36</ele>
        <time>2017-05-26T12:25:25Z</time>
      </trkpt>
      <trkpt lat="48.09693" lon="-4.45484">
        <ele>19.84</ele>
        <time>2017-05-26T12:25:44Z</time>
      </trkpt>
      <trkpt lat="48.09694" lon="-4.45483">
        <ele>19.84</ele>
        <time>2017-05-26T12:25:45Z</time>
      </trkpt>
      <trkpt lat="48.09697" lon="-4.45468">
        <ele>18.4</ele>
        <time>2017-05-26T12:25:54Z</time>
      </trkpt>
      <trkpt lat="48.097" lon="-4.45458">
        <ele>17.92</ele>
        <time>2017-05-26T12:26:00Z</time>
      </trkpt>
      <trkpt lat="48.09703" lon="-4.4545">
        <ele>16.96</ele>
        <time>2017-05-26T12:26:05Z</time>
      </trkpt>
      <trkpt lat="48.09702" lon="-4.45423">
        <ele>17.92</ele>
        <time>2017-05-26T12:26:20Z</time>
      </trkpt>
      <trkpt lat="48.097" lon="-4.45413">
        <ele>19.84</ele>
        <time>2017-05-26T12:26:28Z</time>
      </trkpt>
      <trkpt lat="48.09705" lon="-4.45393">
        <ele>22.25</ele>
        <time>2017-05-26T12:26:41Z</time>
      </trkpt>
      <trkpt lat="48.09715" lon="-4.45379">
        <ele>22.73</ele>
        <time>2017-05-26T12:26:53Z</time>
      </trkpt>
      <trkpt lat="48.09721" lon="-4.45374">
        <ele>22.25</ele>
        <time>2017-05-26T12:26:59Z</time>
      </trkpt>
      <trkpt lat="48.09723" lon="-4.45369">
        <ele>22.25</ele>
        <time>2017-05-26T12:27:03Z</time>
      </trkpt>
      <trkpt lat="48.09722" lon="-4.45352">
        <ele>22.25</ele>
        <time>2017-05-26T12:27:14Z</time>
      </trkpt>
      <trkpt lat="48.09715" lon="-4.45338">
        <ele>23.21</ele>
        <time>2017-05-26T12:27:29Z</time>
      </trkpt>
      <trkpt lat="48.09712" lon="-4.45332">
        <ele>24.65</ele>
        <time>2017-05-26T12:27:36Z</time>
      </trkpt>
      <trkpt lat="48.09715" lon="-4.45321">
        <ele>25.13</ele>
        <time>2017-05-26T12:27:46Z</time>
      </trkpt>
      <trkpt lat="48.09722" lon="-4.45308">
        <ele>24.17</ele>
        <time>2017-05-26T12:27:58Z</time>
      </trkpt>
      <trkpt lat="48.09723" lon="-4.45305">
        <ele>23.69</ele>
        <time>2017-05-26T12:28:00Z</time>
      </trkpt>
      <trkpt lat="48.09727" lon="-4.45299">
        <ele>23.69</ele>
        <time>2017-05-26T12:28:06Z</time>
      </trkpt>
      <trkpt lat="48.09729" lon="-4.45296">
        <ele>23.69</ele>
        <time>2017-05-26T12:28:09Z</time>
      </trkpt>
      <trkpt lat="48.09743" lon="-4.45288">
        <ele>23.21</ele>
        <time>2017-05-26T12:28:24Z</time>
      </trkpt>
      <trkpt lat="48.09756" lon="-4.4528">
        <ele>21.29</ele>
        <time>2017-05-26T12:28:38Z</time>
      </trkpt>
      <trkpt lat="48.09763" lon="-4.45272">
        <ele>20.32</ele>
        <time>2017-05-26T12:28:50Z</time>
      </trkpt>
      <trkpt lat="48.09761" lon="-4.4525">
        <ele>19.36</ele>
        <time>2017-05-26T12:29:03Z</time>
      </trkpt>
      <trkpt lat="48.09761" lon="-4.45247">
        <ele>19.36</ele>
        <time>2017-05-26T12:29:05Z</time>
      </trkpt>
      <trkpt lat="48.09756" lon="-4.45239">
        <ele>21.77</ele>
        <time>2017-05-26T12:29:18Z</time>
      </trkpt>
      <trkpt lat="48.09753" lon="-4.45225">
        <ele>22.73</ele>
        <time>2017-05-26T12:29:32Z</time>
      </trkpt>
      <trkpt lat="48.09751" lon="-4.45214">
        <ele>26.57</ele>
        <time>2017-05-26T12:29:44Z</time>
      </trkpt>
      <trkpt lat="48.0975" lon="-4.45209">
        <ele>28.5</ele>
        <time>2017-05-26T12:29:49Z</time>
      </trkpt>
      <trkpt lat="48.0975" lon="-4.45193">
        <ele>31.86</ele>
        <time>2017-05-26T12:30:02Z</time>
      </trkpt>
      <trkpt lat="48.09752" lon="-4.45187">
        <ele>32.82</ele>
        <time>2017-05-26T12:30:07Z</time>
      </trkpt>
      <trkpt lat="48.09752" lon="-4.45179">
        <ele>34.26</ele>
        <time>2017-05-26T12:30:13Z</time>
      </trkpt>
      <trkpt lat="48.09753" lon="-4.45171">
        <ele>34.74</ele>
        <time>2017-05-26T12:30:31Z</time>
      </trkpt>
      <trkpt lat="48.09753" lon="-4.45171">
        <ele>35.23</ele>
        <time>2017-05-26T12:30:57Z</time>
      </trkpt>
      <trkpt lat="48.09752" lon="-4.45165">
        <ele>36.19</ele>
        <time>2017-05-26T12:31:12Z</time>
      </trkpt>
      <trkpt lat="48.09753" lon="-4.45158">
        <ele>37.15</ele>
        <time>2017-05-26T12:31:17Z</time>
      </trkpt>
      <trkpt lat="48.0976" lon="-4.45142">
        <ele>34.26</ele>
        <time>2017-05-26T12:31:31Z</time>
      </trkpt>
      <trkpt lat="48.09762" lon="-4.45141">
        <ele>33.3</ele>
        <time>2017-05-26T12:31:33Z</time>
      </trkpt>
      <trkpt lat="48.09777" lon="-4.45136">
        <ele>25.13</ele>
        <time>2017-05-26T12:31:49Z</time>
      </trkpt>
      <trkpt lat="48.09789" lon="-4.45131">
        <ele>20.81</ele>
        <time>2017-05-26T12:32:04Z</time>
      </trkpt>
      <trkpt lat="48.09795" lon="-4.45127">
        <ele>20.32</ele>
        <time>2017-05-26T12:32:10Z</time>
      </trkpt>
      <trkpt lat="48.09799" lon="-4.45122">
        <ele>19.84</ele>
        <time>2017-05-26T12:32:14Z</time>
      </trkpt>
      <trkpt lat="48.09809" lon="-4.45106">
        <ele>18.88</ele>
        <time>2017-05-26T12:32:26Z</time>
      </trkpt>
      <trkpt lat="48.09813" lon="-4.4508">
        <ele>17.92</ele>
        <time>2017-05-26T12:32:40Z</time>
      </trkpt>
      <trkpt lat="48.09813" lon="-4.45076">
        <ele>17.92</ele>
        <time>2017-05-26T12:32:42Z</time>
      </trkpt>
      <trkpt lat="48.09813" lon="-4.45073">
        <ele>18.4</ele>
        <time>2017-05-26T12:32:44Z</time>
      </trkpt>
      <trkpt lat="48.09813" lon="-4.45054">
        <ele>19.36</ele>
        <time>2017-05-26T12:32:54Z</time>
      </trkpt>
      <trkpt lat="48.09817" lon="-4.45045">
        <ele>18.88</ele>
        <time>2017-05-26T12:33:00Z</time>
      </trkpt>
      <trkpt lat="48.09818" lon="-4.45042">
        <ele>18.88</ele>
        <time>2017-05-26T12:33:02Z</time>
      </trkpt>
      <trkpt lat="48.09821" lon="-4.45026">
        <ele>18.88</ele>
        <time>2017-05-26T12:33:10Z</time>
      </trkpt>
      <trkpt lat="48.09822" lon="-4.45016">
        <ele>18.4</ele>
        <time>2017-05-26T12:33:17Z</time>
      </trkpt>
      <trkpt lat="48.09822" lon="-4.45002">
        <ele>18.88</ele>
        <time>2017-05-26T12:33:25Z</time>
      </trkpt>
      <trkpt lat="48.09814" lon="-4.4498">
        <ele>21.77</ele>
        <time>2017-05-26T12:33:40Z</time>
      </trkpt>
      <trkpt lat="48.09807" lon="-4.4496">
        <ele>24.17</ele>
        <time>2017-05-26T12:33:55Z</time>
      </trkpt>
      <trkpt lat="48.09805" lon="-4.44949">
        <ele>26.09</ele>
        <time>2017-05-26T12:34:03Z</time>
      </trkpt>
      <trkpt lat="48.09807" lon="-4.44938">
        <ele>27.05</ele>
        <time>2017-05-26T12:34:10Z</time>
      </trkpt>
      <trkpt lat="48.09811" lon="-4.44933">
        <ele>26.09</ele>
        <time>2017-05-26T12:34:16Z</time>
      </trkpt>
      <trkpt lat="48.09816" lon="-4.44922">
        <ele>23.21</ele>
        <time>2017-05-26T12:34:29Z</time>
      </trkpt>
      <trkpt lat="48.09817" lon="-4.44907">
        <ele>19.36</ele>
        <time>2017-05-26T12:34:44Z</time>
      </trkpt>
      <trkpt lat="48.09813" lon="-4.44884">
        <ele>15.04</ele>
        <time>2017-05-26T12:34:58Z</time>
      </trkpt>
      <trkpt lat="48.09812" lon="-4.44879">
        <ele>13.12</ele>
        <time>2017-05-26T12:35:14Z</time>
      </trkpt>
      <trkpt lat="48.09812" lon="-4.44876">
        <ele>14.08</ele>
        <time>2017-05-26T12:35:16Z</time>
      </trkpt>
      <trkpt lat="48.09811" lon="-4.44872">
        <ele>14.08</ele>
        <time>2017-05-26T12:35:19Z</time>
      </trkpt>
      <trkpt lat="48.0981" lon="-4.44864">
        <ele>14.56</ele>
        <time>2017-05-26T12:35:24Z</time>
      </trkpt>
      <trkpt lat="48.09802" lon="-4.4484">
        <ele>14.08</ele>
        <time>2017-05-26T12:35:39Z</time>
      </trkpt>
      <trkpt lat="48.09794" lon="-4.44812">
        <ele>14.08</ele>
        <time>2017-05-26T12:35:54Z</time>
      </trkpt>
      <trkpt lat="48.09793" lon="-4.44809">
        <ele>14.08</ele>
        <time>2017-05-26T12:35:55Z</time>
      </trkpt>
      <trkpt lat="48.09792" lon="-4.44803">
        <ele>13.12</ele>
        <time>2017-05-26T12:36:00Z</time>
      </trkpt>
      <trkpt lat="48.09783" lon="-4.44782">
        <ele>12.15</ele>
        <time>2017-05-26T12:36:18Z</time>
      </trkpt>
      <trkpt lat="48.09778" lon="-4.44766">
        <ele>11.67</ele>
        <time>2017-05-26T12:36:28Z</time>
      </trkpt>
      <trkpt lat="48.09777" lon="-4.44764">
        <ele>11.67</ele>
        <time>2017-05-26T12:36:29Z</time>
      </trkpt>
      <trkpt lat="48.09771" lon="-4.44741">
        <ele>11.67</ele>
        <time>2017-05-26T12:36:42Z</time>
      </trkpt>
      <trkpt lat="48.09765" lon="-4.44733">
        <ele>12.63</ele>
        <time>2017-05-26T12:36:51Z</time>
      </trkpt>
      <trkpt lat="48.09759" lon="-4.44728">
        <ele>13.12</ele>
        <time>2017-05-26T12:36:57Z</time>
      </trkpt>
      <trkpt lat="48.0976" lon="-4.44715">
        <ele>9.75</ele>
        <time>2017-05-26T12:37:10Z</time>
      </trkpt>
      <trkpt lat="48.09763" lon="-4.44706">
        <ele>7.35</ele>
        <time>2017-05-26T12:37:19Z</time>
      </trkpt>
      <trkpt lat="48.0976" lon="-4.447">
        <ele>6.39</ele>
        <time>2017-05-26T12:37:24Z</time>
      </trkpt>
      <trkpt lat="48.09751" lon="-4.44692">
        <ele>4.94</ele>
        <time>2017-05-26T12:37:33Z</time>
      </trkpt>
      <trkpt lat="48.0974" lon="-4.44677">
        <ele>5.42</ele>
        <time>2017-05-26T12:37:51Z</time>
      </trkpt>
      <trkpt lat="48.09731" lon="-4.44656">
        <ele>9.27</ele>
        <time>2017-05-26T12:38:06Z</time>
      </trkpt>
      <trkpt lat="48.0973" lon="-4.44652">
        <ele>11.19</ele>
        <time>2017-05-26T12:38:08Z</time>
      </trkpt>
      <trkpt lat="48.09731" lon="-4.44642">
        <ele>13.12</ele>
        <time>2017-05-26T12:38:15Z</time>
      </trkpt>
      <trkpt lat="48.09723" lon="-4.4462">
        <ele>14.56</ele>
        <time>2017-05-26T12:38:31Z</time>
      </trkpt>
      <trkpt lat="48.09722" lon="-4.44611">
        <ele>14.56</ele>
        <time>2017-05-26T12:38:43Z</time>
      </trkpt>
      <trkpt lat="48.09722" lon="-4.44611">
        <ele>14.56</ele>
        <time>2017-05-26T12:38:49Z</time>
      </trkpt>
      <trkpt lat="48.09721" lon="-4.44615">
        <ele>13.6</ele>
        <time>2017-05-26T12:39:10Z</time>
      </trkpt>
      <trkpt lat="48.0972" lon="-4.44615">
        <ele>13.12</ele>
        <time>2017-05-26T12:39:42Z</time>
      </trkpt>
      <trkpt lat="48.09721" lon="-4.44616">
        <ele>14.08</ele>
        <time>2017-05-26T12:40:07Z</time>
      </trkpt>
      <trkpt lat="48.0972" lon="-4.44616">
        <ele>14.08</ele>
        <time>2017-05-26T12:40:33Z</time>
      </trkpt>
      <trkpt lat="48.0972" lon="-4.44616">
        <ele>14.08</ele>
        <time>2017-05-26T12:41:04Z</time>
      </trkpt>
      <trkpt lat="48.0972" lon="-4.44614">
        <ele>13.12</ele>
        <time>2017-05-26T12:41:16Z</time>
      </trkpt>
      <trkpt lat="48.09731" lon="-4.44598">
        <ele>12.63</ele>
        <time>2017-05-26T12:41:31Z</time>
      </trkpt>
      <trkpt lat="48.09737" lon="-4.4459">
        <ele>13.12</ele>
        <time>2017-05-26T12:41:37Z</time>
      </trkpt>
      <trkpt lat="48.0973" lon="-4.4458">
        <ele>11.67</ele>
        <time>2017-05-26T12:41:51Z</time>
      </trkpt>
      <trkpt lat="48.09729" lon="-4.44578">
        <ele>11.19</ele>
        <time>2017-05-26T12:41:54Z</time>
      </trkpt>
      <trkpt lat="48.09723" lon="-4.44573">
        <ele>9.27</ele>
        <time>2017-05-26T12:42:00Z</time>
      </trkpt>
      <trkpt lat="48.09712" lon="-4.44549">
        <ele>5.42</ele>
        <time>2017-05-26T12:42:16Z</time>
      </trkpt>
      <trkpt lat="48.09711" lon="-4.44549">
        <ele>4.94</ele>
        <time>2017-05-26T12:42:17Z</time>
      </trkpt>
      <trkpt lat="48.09702" lon="-4.44548">
        <ele>5.91</ele>
        <time>2017-05-26T12:42:30Z</time>
      </trkpt>
      <trkpt lat="48.09705" lon="-4.44529">
        <ele>8.79</ele>
        <time>2017-05-26T12:42:45Z</time>
      </trkpt>
      <trkpt lat="48.09708" lon="-4.44506">
        <ele>13.6</ele>
        <time>2017-05-26T12:43:01Z</time>
      </trkpt>
      <trkpt lat="48.09708" lon="-4.44502">
        <ele>14.08</ele>
        <time>2017-05-26T12:43:03Z</time>
      </trkpt>
      <trkpt lat="48.09708" lon="-4.44493">
        <ele>16.96</ele>
        <time>2017-05-26T12:43:11Z</time>
      </trkpt>
      <trkpt lat="48.09707" lon="-4.44488">
        <ele>17.92</ele>
        <time>2017-05-26T12:43:14Z</time>
      </trkpt>
      <trkpt lat="48.09716" lon="-4.44468">
        <ele>16.48</ele>
        <time>2017-05-26T12:43:28Z</time>
      </trkpt>
      <trkpt lat="48.09727" lon="-4.44449">
        <ele>12.15</ele>
        <time>2017-05-26T12:43:44Z</time>
      </trkpt>
      <trkpt lat="48.09745" lon="-4.44432">
        <ele>10.23</ele>
        <time>2017-05-26T12:44:03Z</time>
      </trkpt>
      <trkpt lat="48.09747" lon="-4.44431">
        <ele>10.23</ele>
        <time>2017-05-26T12:44:06Z</time>
      </trkpt>
      <trkpt lat="48.09756" lon="-4.4442">
        <ele>7.83</ele>
        <time>2017-05-26T12:44:20Z</time>
      </trkpt>
      <trkpt lat="48.09759" lon="-4.44419">
        <ele>8.79</ele>
        <time>2017-05-26T12:44:24Z</time>
      </trkpt>
      <trkpt lat="48.09758" lon="-4.44412">
        <ele>12.63</ele>
        <time>2017-05-26T12:44:37Z</time>
      </trkpt>
      <trkpt lat="48.09754" lon="-4.44403">
        <ele>14.08</ele>
        <time>2017-05-26T12:44:42Z</time>
      </trkpt>
      <trkpt lat="48.09747" lon="-4.44387">
        <ele>14.08</ele>
        <time>2017-05-26T12:44:54Z</time>
      </trkpt>
      <trkpt lat="48.09733" lon="-4.44376">
        <ele>16</ele>
        <time>2017-05-26T12:45:09Z</time>
      </trkpt>
      <trkpt lat="48.09722" lon="-4.44371">
        <ele>18.4</ele>
        <time>2017-05-26T12:45:22Z</time>
      </trkpt>
      <trkpt lat="48.09719" lon="-4.44368">
        <ele>18.4</ele>
        <time>2017-05-26T12:45:25Z</time>
      </trkpt>
      <trkpt lat="48.09714" lon="-4.44362">
        <ele>18.88</ele>
        <time>2017-05-26T12:45:29Z</time>
      </trkpt>
      <trkpt lat="48.09707" lon="-4.44354">
        <ele>19.36</ele>
        <time>2017-05-26T12:45:34Z</time>
      </trkpt>
      <trkpt lat="48.097" lon="-4.44343">
        <ele>17.92</ele>
        <time>2017-05-26T12:45:47Z</time>
      </trkpt>
      <trkpt lat="48.09694" lon="-4.44321">
        <ele>18.88</ele>
        <time>2017-05-26T12:46:01Z</time>
      </trkpt>
      <trkpt lat="48.09687" lon="-4.44306">
        <ele>20.81</ele>
        <time>2017-05-26T12:46:14Z</time>
      </trkpt>
      <trkpt lat="48.09684" lon="-4.44298">
        <ele>20.81</ele>
        <time>2017-05-26T12:46:18Z</time>
      </trkpt>
      <trkpt lat="48.09686" lon="-4.44295">
        <ele>20.32</ele>
        <time>2017-05-26T12:46:21Z</time>
      </trkpt>
      <trkpt lat="48.09687" lon="-4.44269">
        <ele>18.88</ele>
        <time>2017-05-26T12:46:36Z</time>
      </trkpt>
      <trkpt lat="48.09686" lon="-4.44267">
        <ele>18.88</ele>
        <time>2017-05-26T12:46:37Z</time>
      </trkpt>
      <trkpt lat="48.09686" lon="-4.44258">
        <ele>18.88</ele>
        <time>2017-05-26T12:46:50Z</time>
      </trkpt>
      <trkpt lat="48.09683" lon="-4.44252">
        <ele>17.92</ele>
        <time>2017-05-26T12:46:54Z</time>
      </trkpt>
      <trkpt lat="48.09672" lon="-4.44246">
        <ele>16</ele>
        <time>2017-05-26T12:47:03Z</time>
      </trkpt>
      <trkpt lat="48.09662" lon="-4.44261">
        <ele>16.48</ele>
        <time>2017-05-26T12:47:24Z</time>
      </trkpt>
      <trkpt lat="48.09649" lon="-4.44264">
        <ele>17.44</ele>
        <time>2017-05-26T12:47:40Z</time>
      </trkpt>
      <trkpt lat="48.09636" lon="-4.44262">
        <ele>17.44</ele>
        <time>2017-05-26T12:47:57Z</time>
      </trkpt>
      <trkpt lat="48.09635" lon="-4.44262">
        <ele>16.96</ele>
        <time>2017-05-26T12:48:27Z</time>
      </trkpt>
      <trkpt lat="48.09634" lon="-4.4426">
        <ele>16.96</ele>
        <time>2017-05-26T12:48:55Z</time>
      </trkpt>
      <trkpt lat="48.09634" lon="-4.4426">
        <ele>18.4</ele>
        <time>2017-05-26T12:49:26Z</time>
      </trkpt>
      <trkpt lat="48.09633" lon="-4.44259">
        <ele>19.36</ele>
        <time>2017-05-26T12:49:51Z</time>
      </trkpt>
      <trkpt lat="48.09632" lon="-4.44258">
        <ele>19.84</ele>
        <time>2017-05-26T12:50:17Z</time>
      </trkpt>
      <trkpt lat="48.09636" lon="-4.44259">
        <ele>19.84</ele>
        <time>2017-05-26T12:50:49Z</time>
      </trkpt>
      <trkpt lat="48.09635" lon="-4.44259">
        <ele>19.84</ele>
        <time>2017-05-26T12:51:08Z</time>
      </trkpt>
      <trkpt lat="48.09622" lon="-4.44264">
        <ele>17.92</ele>
        <time>2017-05-26T12:51:26Z</time>
      </trkpt>
      <trkpt lat="48.09613" lon="-4.44268">
        <ele>18.4</ele>
        <time>2017-05-26T12:51:34Z</time>
      </trkpt>
      <trkpt lat="48.09608" lon="-4.44267">
        <ele>20.32</ele>
        <time>2017-05-26T12:51:39Z</time>
      </trkpt>
      <trkpt lat="48.09608" lon="-4.44263">
        <ele>19.84</ele>
        <time>2017-05-26T12:51:44Z</time>
      </trkpt>
      <trkpt lat="48.09607" lon="-4.44261">
        <ele>19.36</ele>
        <time>2017-05-26T12:51:46Z</time>
      </trkpt>
      <trkpt lat="48.09606" lon="-4.44251">
        <ele>17.92</ele>
        <time>2017-05-26T12:51:53Z</time>
      </trkpt>
      <trkpt lat="48.09606" lon="-4.44248">
        <ele>17.92</ele>
        <time>2017-05-26T12:51:55Z</time>
      </trkpt>
      <trkpt lat="48.09605" lon="-4.44227">
        <ele>19.36</ele>
        <time>2017-05-26T12:52:08Z</time>
      </trkpt>
      <trkpt lat="48.09607" lon="-4.44224">
        <ele>19.36</ele>
        <time>2017-05-26T12:52:10Z</time>
      </trkpt>
      <trkpt lat="48.09607" lon="-4.44216">
        <ele>20.32</ele>
        <time>2017-05-26T12:52:15Z</time>
      </trkpt>
      <trkpt lat="48.09608" lon="-4.44203">
        <ele>18.88</ele>
        <time>2017-05-26T12:52:22Z</time>
      </trkpt>
      <trkpt lat="48.09615" lon="-4.44185">
        <ele>17.44</ele>
        <time>2017-05-26T12:52:34Z</time>
      </trkpt>
      <trkpt lat="48.09612" lon="-4.44161">
        <ele>17.44</ele>
        <time>2017-05-26T12:52:51Z</time>
      </trkpt>
      <trkpt lat="48.09612" lon="-4.4416">
        <ele>16.96</ele>
        <time>2017-05-26T12:52:52Z</time>
      </trkpt>
      <trkpt lat="48.09614" lon="-4.44154">
        <ele>17.44</ele>
        <time>2017-05-26T12:52:55Z</time>
      </trkpt>
      <trkpt lat="48.09624" lon="-4.44136">
        <ele>18.4</ele>
        <time>2017-05-26T12:53:08Z</time>
      </trkpt>
      <trkpt lat="48.09642" lon="-4.44116">
        <ele>16</ele>
        <time>2017-05-26T12:53:26Z</time>
      </trkpt>
      <trkpt lat="48.09658" lon="-4.44096">
        <ele>13.6</ele>
        <time>2017-05-26T12:53:41Z</time>
      </trkpt>
      <trkpt lat="48.09653" lon="-4.4408">
        <ele>15.04</ele>
        <time>2017-05-26T12:53:53Z</time>
      </trkpt>
      <trkpt lat="48.09653" lon="-4.44076">
        <ele>15.04</ele>
        <time>2017-05-26T12:53:55Z</time>
      </trkpt>
      <trkpt lat="48.09652" lon="-4.44064">
        <ele>16.48</ele>
        <time>2017-05-26T12:54:05Z</time>
      </trkpt>
      <trkpt lat="48.09655" lon="-4.44043">
        <ele>16.96</ele>
        <time>2017-05-26T12:54:16Z</time>
      </trkpt>
      <trkpt lat="48.09655" lon="-4.44039">
        <ele>16.96</ele>
        <time>2017-05-26T12:54:18Z</time>
      </trkpt>
      <trkpt lat="48.09651" lon="-4.44029">
        <ele>17.44</ele>
        <time>2017-05-26T12:54:23Z</time>
      </trkpt>
      <trkpt lat="48.09651" lon="-4.44021">
        <ele>17.92</ele>
        <time>2017-05-26T12:54:27Z</time>
      </trkpt>
      <trkpt lat="48.09649" lon="-4.44006">
        <ele>17.44</ele>
        <time>2017-05-26T12:54:35Z</time>
      </trkpt>
      <trkpt lat="48.09651" lon="-4.43998">
        <ele>16</ele>
        <time>2017-05-26T12:54:42Z</time>
      </trkpt>
      <trkpt lat="48.09652" lon="-4.43996">
        <ele>15.52</ele>
        <time>2017-05-26T12:54:44Z</time>
      </trkpt>
      <trkpt lat="48.09648" lon="-4.43976">
        <ele>14.56</ele>
        <time>2017-05-26T12:54:58Z</time>
      </trkpt>
      <trkpt lat="48.09642" lon="-4.43967">
        <ele>17.92</ele>
        <time>2017-05-26T12:55:11Z</time>
      </trkpt>
      <trkpt lat="48.09642" lon="-4.43966">
        <ele>18.88</ele>
        <time>2017-05-26T12:55:16Z</time>
      </trkpt>
      <trkpt lat="48.09644" lon="-4.43941">
        <ele>20.32</ele>
        <time>2017-05-26T12:55:31Z</time>
      </trkpt>
      <trkpt lat="48.09644" lon="-4.43936">
        <ele>20.32</ele>
        <time>2017-05-26T12:55:34Z</time>
      </trkpt>
      <trkpt lat="48.09648" lon="-4.4393">
        <ele>20.32</ele>
        <time>2017-05-26T12:55:38Z</time>
      </trkpt>
      <trkpt lat="48.09651" lon="-4.43903">
        <ele>20.81</ele>
        <time>2017-05-26T12:55:52Z</time>
      </trkpt>
      <trkpt lat="48.09654" lon="-4.43885">
        <ele>23.21</ele>
        <time>2017-05-26T12:56:05Z</time>
      </trkpt>
      <trkpt lat="48.09654" lon="-4.43884">
        <ele>23.69</ele>
        <time>2017-05-26T12:56:08Z</time>
      </trkpt>
      <trkpt lat="48.09659" lon="-4.43861">
        <ele>29.94</ele>
        <time>2017-05-26T12:56:28Z</time>
      </trkpt>
      <trkpt lat="48.09661" lon="-4.43858">
        <ele>30.9</ele>
        <time>2017-05-26T12:56:31Z</time>
      </trkpt>
      <trkpt lat="48.09664" lon="-4.43859">
        <ele>32.34</ele>
        <time>2017-05-26T12:56:48Z</time>
      </trkpt>
      <trkpt lat="48.09665" lon="-4.43859">
        <ele>33.3</ele>
        <time>2017-05-26T12:57:13Z</time>
      </trkpt>
      <trkpt lat="48.09664" lon="-4.43859">
        <ele>34.26</ele>
        <time>2017-05-26T12:57:39Z</time>
      </trkpt>
      <trkpt lat="48.09664" lon="-4.43859">
        <ele>34.26</ele>
        <time>2017-05-26T12:58:05Z</time>
      </trkpt>
      <trkpt lat="48.09664" lon="-4.43859">
        <ele>34.74</ele>
        <time>2017-05-26T12:58:34Z</time>
      </trkpt>
      <trkpt lat="48.09664" lon="-4.43859">
        <ele>34.74</ele>
        <time>2017-05-26T12:59:08Z</time>
      </trkpt>
      <trkpt lat="48.09662" lon="-4.43857">
        <ele>35.23</ele>
        <time>2017-05-26T12:59:40Z</time>
      </trkpt>
      <trkpt lat="48.0966" lon="-4.43852">
        <ele>35.23</ele>
        <time>2017-05-26T12:59:55Z</time>
      </trkpt>
      <trkpt lat="48.09657" lon="-4.43835">
        <ele>34.26</ele>
        <time>2017-05-26T13:00:04Z</time>
      </trkpt>
      <trkpt lat="48.09655" lon="-4.43826">
        <ele>33.78</ele>
        <time>2017-05-26T13:00:10Z</time>
      </trkpt>
      <trkpt lat="48.09657" lon="-4.43819">
        <ele>34.26</ele>
        <time>2017-05-26T13:00:14Z</time>
      </trkpt>
      <trkpt lat="48.0966" lon="-4.43803">
        <ele>33.3</ele>
        <time>2017-05-26T13:00:23Z</time>
      </trkpt>
      <trkpt lat="48.09663" lon="-4.43792">
        <ele>31.38</ele>
        <time>2017-05-26T13:00:32Z</time>
      </trkpt>
      <trkpt lat="48.09661" lon="-4.43768">
        <ele>29.46</ele>
        <time>2017-05-26T13:00:45Z</time>
      </trkpt>
      <trkpt lat="48.0966" lon="-4.43758">
        <ele>29.94</ele>
        <time>2017-05-26T13:00:50Z</time>
      </trkpt>
      <trkpt lat="48.09662" lon="-4.43752">
        <ele>29.94</ele>
        <time>2017-05-26T13:00:53Z</time>
      </trkpt>
      <trkpt lat="48.09668" lon="-4.43739">
        <ele>30.9</ele>
        <time>2017-05-26T13:01:01Z</time>
      </trkpt>
      <trkpt lat="48.09674" lon="-4.4373">
        <ele>29.46</ele>
        <time>2017-05-26T13:01:07Z</time>
      </trkpt>
      <trkpt lat="48.09678" lon="-4.43726">
        <ele>29.46</ele>
        <time>2017-05-26T13:01:12Z</time>
      </trkpt>
      <trkpt lat="48.09679" lon="-4.43716">
        <ele>29.46</ele>
        <time>2017-05-26T13:01:17Z</time>
      </trkpt>
      <trkpt lat="48.09684" lon="-4.43709">
        <ele>29.94</ele>
        <time>2017-05-26T13:01:21Z</time>
      </trkpt>
      <trkpt lat="48.09685" lon="-4.43701">
        <ele>30.42</ele>
        <time>2017-05-26T13:01:25Z</time>
      </trkpt>
      <trkpt lat="48.09702" lon="-4.43683">
        <ele>30.42</ele>
        <time>2017-05-26T13:01:43Z</time>
      </trkpt>
      <trkpt lat="48.09714" lon="-4.43677">
        <ele>29.46</ele>
        <time>2017-05-26T13:01:54Z</time>
      </trkpt>
      <trkpt lat="48.0973" lon="-4.43675">
        <ele>28.02</ele>
        <time>2017-05-26T13:02:08Z</time>
      </trkpt>
      <trkpt lat="48.09736" lon="-4.43669">
        <ele>26.57</ele>
        <time>2017-05-26T13:02:14Z</time>
      </trkpt>
      <trkpt lat="48.09739" lon="-4.43663">
        <ele>26.09</ele>
        <time>2017-05-26T13:02:18Z</time>
      </trkpt>
      <trkpt lat="48.09744" lon="-4.4365">
        <ele>25.13</ele>
        <time>2017-05-26T13:02:27Z</time>
      </trkpt>
      <trkpt lat="48.09745" lon="-4.43645">
        <ele>25.13</ele>
        <time>2017-05-26T13:02:29Z</time>
      </trkpt>
      <trkpt lat="48.09743" lon="-4.43628">
        <ele>24.17</ele>
        <time>2017-05-26T13:02:38Z</time>
      </trkpt>
      <trkpt lat="48.09743" lon="-4.43619">
        <ele>23.69</ele>
        <time>2017-05-26T13:02:42Z</time>
      </trkpt>
      <trkpt lat="48.09744" lon="-4.43616">
        <ele>24.65</ele>
        <time>2017-05-26T13:02:45Z</time>
      </trkpt>
      <trkpt lat="48.09726" lon="-4.43588">
        <ele>23.21</ele>
        <time>2017-05-26T13:03:01Z</time>
      </trkpt>
      <trkpt lat="48.09717" lon="-4.43583">
        <ele>22.73</ele>
        <time>2017-05-26T13:03:06Z</time>
      </trkpt>
      <trkpt lat="48.09712" lon="-4.43564">
        <ele>21.77</ele>
        <time>2017-05-26T13:03:18Z</time>
      </trkpt>
      <trkpt lat="48.09712" lon="-4.43555">
        <ele>23.69</ele>
        <time>2017-05-26T13:03:24Z</time>
      </trkpt>
      <trkpt lat="48.09709" lon="-4.4353">
        <ele>26.57</ele>
        <time>2017-05-26T13:03:41Z</time>
      </trkpt>
      <trkpt lat="48.09709" lon="-4.43529">
        <ele>26.57</ele>
        <time>2017-05-26T13:03:42Z</time>
      </trkpt>
      <trkpt lat="48.09706" lon="-4.43514">
        <ele>28.02</ele>
        <time>2017-05-26T13:03:52Z</time>
      </trkpt>
      <trkpt lat="48.09704" lon="-4.43505">
        <ele>27.05</ele>
        <time>2017-05-26T13:03:58Z</time>
      </trkpt>
      <trkpt lat="48.09705" lon="-4.43494">
        <ele>27.05</ele>
        <time>2017-05-26T13:04:07Z</time>
      </trkpt>
      <trkpt lat="48.09704" lon="-4.43489">
        <ele>27.53</ele>
        <time>2017-05-26T13:04:11Z</time>
      </trkpt>
      <trkpt lat="48.09705" lon="-4.43486">
        <ele>27.53</ele>
        <time>2017-05-26T13:04:13Z</time>
      </trkpt>
      <trkpt lat="48.09703" lon="-4.4347">
        <ele>29.46</ele>
        <time>2017-05-26T13:04:28Z</time>
      </trkpt>
      <trkpt lat="48.09698" lon="-4.43458">
        <ele>29.46</ele>
        <time>2017-05-26T13:04:44Z</time>
      </trkpt>
      <trkpt lat="48.09698" lon="-4.43457">
        <ele>28.98</ele>
        <time>2017-05-26T13:05:00Z</time>
      </trkpt>
      <trkpt lat="48.09698" lon="-4.43449">
        <ele>28.02</ele>
        <time>2017-05-26T13:05:10Z</time>
      </trkpt>
      <trkpt lat="48.09697" lon="-4.43446">
        <ele>27.53</ele>
        <time>2017-05-26T13:05:13Z</time>
      </trkpt>
      <trkpt lat="48.09698" lon="-4.4343">
        <ele>21.77</ele>
        <time>2017-05-26T13:05:27Z</time>
      </trkpt>
      <trkpt lat="48.09695" lon="-4.43413">
        <ele>16.96</ele>
        <time>2017-05-26T13:05:38Z</time>
      </trkpt>
      <trkpt lat="48.09681" lon="-4.43398">
        <ele>15.52</ele>
        <time>2017-05-26T13:05:53Z</time>
      </trkpt>
      <trkpt lat="48.09674" lon="-4.43397">
        <ele>14.56</ele>
        <time>2017-05-26T13:05:57Z</time>
      </trkpt>
      <trkpt lat="48.09668" lon="-4.43393">
        <ele>14.08</ele>
        <time>2017-05-26T13:06:01Z</time>
      </trkpt>
      <trkpt lat="48.0966" lon="-4.43386">
        <ele>13.6</ele>
        <time>2017-05-26T13:06:07Z</time>
      </trkpt>
      <trkpt lat="48.09658" lon="-4.43381">
        <ele>13.6</ele>
        <time>2017-05-26T13:06:10Z</time>
      </trkpt>
      <trkpt lat="48.09642" lon="-4.43376">
        <ele>16.48</ele>
        <time>2017-05-26T13:06:27Z</time>
      </trkpt>
      <trkpt lat="48.09629" lon="-4.43366">
        <ele>18.4</ele>
        <time>2017-05-26T13:06:45Z</time>
      </trkpt>
      <trkpt lat="48.09626" lon="-4.43353">
        <ele>18.88</ele>
        <time>2017-05-26T13:06:58Z</time>
      </trkpt>
      <trkpt lat="48.09637" lon="-4.43334">
        <ele>17.92</ele>
        <time>2017-05-26T13:07:13Z</time>
      </trkpt>
      <trkpt lat="48.0964" lon="-4.43318">
        <ele>17.92</ele>
        <time>2017-05-26T13:07:25Z</time>
      </trkpt>
      <trkpt lat="48.09642" lon="-4.43316">
        <ele>17.92</ele>
        <time>2017-05-26T13:07:27Z</time>
      </trkpt>
      <trkpt lat="48.09647" lon="-4.43312">
        <ele>17.92</ele>
        <time>2017-05-26T13:07:33Z</time>
      </trkpt>
      <trkpt lat="48.09666" lon="-4.433">
        <ele>16.96</ele>
        <time>2017-05-26T13:07:46Z</time>
      </trkpt>
      <trkpt lat="48.09672" lon="-4.43289">
        <ele>17.44</ele>
        <time>2017-05-26T13:07:53Z</time>
      </trkpt>
      <trkpt lat="48.09674" lon="-4.43288">
        <ele>17.92</ele>
        <time>2017-05-26T13:07:55Z</time>
      </trkpt>
      <trkpt lat="48.09686" lon="-4.4328">
        <ele>18.4</ele>
        <time>2017-05-26T13:08:06Z</time>
      </trkpt>
      <trkpt lat="48.09704" lon="-4.43267">
        <ele>17.44</ele>
        <time>2017-05-26T13:08:21Z</time>
      </trkpt>
      <trkpt lat="48.09705" lon="-4.43266">
        <ele>17.44</ele>
        <time>2017-05-26T13:08:22Z</time>
      </trkpt>
      <trkpt lat="48.09711" lon="-4.43247">
        <ele>16.48</ele>
        <time>2017-05-26T13:08:33Z</time>
      </trkpt>
      <trkpt lat="48.0972" lon="-4.43225">
        <ele>14.56</ele>
        <time>2017-05-26T13:08:48Z</time>
      </trkpt>
      <trkpt lat="48.09723" lon="-4.43206">
        <ele>16.48</ele>
        <time>2017-05-26T13:09:04Z</time>
      </trkpt>
      <trkpt lat="48.09724" lon="-4.43199">
        <ele>16.96</ele>
        <time>2017-05-26T13:09:11Z</time>
      </trkpt>
      <trkpt lat="48.09721" lon="-4.43183">
        <ele>20.81</ele>
        <time>2017-05-26T13:09:26Z</time>
      </trkpt>
      <trkpt lat="48.09728" lon="-4.4317">
        <ele>26.57</ele>
        <time>2017-05-26T13:09:39Z</time>
      </trkpt>
      <trkpt lat="48.09732" lon="-4.43167">
        <ele>28.98</ele>
        <time>2017-05-26T13:09:54Z</time>
      </trkpt>
      <trkpt lat="48.09738" lon="-4.43158">
        <ele>32.82</ele>
        <time>2017-05-26T13:10:07Z</time>
      </trkpt>
      <trkpt lat="48.0974" lon="-4.43156">
        <ele>34.26</ele>
        <time>2017-05-26T13:10:10Z</time>
      </trkpt>
      <trkpt lat="48.09741" lon="-4.43153">
        <ele>34.74</ele>
        <time>2017-05-26T13:10:12Z</time>
      </trkpt>
      <trkpt lat="48.09742" lon="-4.43145">
        <ele>37.15</ele>
        <time>2017-05-26T13:10:17Z</time>
      </trkpt>
      <trkpt lat="48.09743" lon="-4.43136">
        <ele>39.07</ele>
        <time>2017-05-26T13:10:22Z</time>
      </trkpt>
      <trkpt lat="48.09748" lon="-4.43124">
        <ele>42.92</ele>
        <time>2017-05-26T13:10:37Z</time>
      </trkpt>
      <trkpt lat="48.09749" lon="-4.43122">
        <ele>42.92</ele>
        <time>2017-05-26T13:10:39Z</time>
      </trkpt>
      <trkpt lat="48.09758" lon="-4.43115">
        <ele>45.32</ele>
        <time>2017-05-26T13:10:56Z</time>
      </trkpt>
      <trkpt lat="48.09759" lon="-4.43112">
        <ele>45.8</ele>
        <time>2017-05-26T13:11:07Z</time>
      </trkpt>
      <trkpt lat="48.09763" lon="-4.43109">
        <ele>46.28</ele>
        <time>2017-05-26T13:11:24Z</time>
      </trkpt>
      <trkpt lat="48.09769" lon="-4.43106">
        <ele>46.28</ele>
        <time>2017-05-26T13:11:36Z</time>
      </trkpt>
      <trkpt lat="48.09772" lon="-4.43107">
        <ele>46.76</ele>
        <time>2017-05-26T13:11:55Z</time>
      </trkpt>
      <trkpt lat="48.09773" lon="-4.43107">
        <ele>46.28</ele>
        <time>2017-05-26T13:12:30Z</time>
      </trkpt>
      <trkpt lat="48.09774" lon="-4.43107">
        <ele>46.76</ele>
        <time>2017-05-26T13:13:00Z</time>
      </trkpt>
      <trkpt lat="48.09774" lon="-4.43107">
        <ele>46.28</ele>
        <time>2017-05-26T13:13:20Z</time>
      </trkpt>
      <trkpt lat="48.09775" lon="-4.43107">
        <ele>46.76</ele>
        <time>2017-05-26T13:13:48Z</time>
      </trkpt>
      <trkpt lat="48.09775" lon="-4.43106">
        <ele>46.76</ele>
        <time>2017-05-26T13:14:17Z</time>
      </trkpt>
      <trkpt lat="48.09779" lon="-4.43103">
        <ele>45.8</ele>
        <time>2017-05-26T13:14:32Z</time>
      </trkpt>
      <trkpt lat="48.09782" lon="-4.43101">
        <ele>44.36</ele>
        <time>2017-05-26T13:14:37Z</time>
      </trkpt>
      <trkpt lat="48.09788" lon="-4.43098">
        <ele>42.92</ele>
        <time>2017-05-26T13:14:54Z</time>
      </trkpt>
      <trkpt lat="48.09789" lon="-4.431">
        <ele>41.95</ele>
        <time>2017-05-26T13:14:57Z</time>
      </trkpt>
      <trkpt lat="48.09795" lon="-4.43101">
        <ele>40.03</ele>
        <time>2017-05-26T13:15:04Z</time>
      </trkpt>
      <trkpt lat="48.09802" lon="-4.43103">
        <ele>38.11</ele>
        <time>2017-05-26T13:15:09Z</time>
      </trkpt>
      <trkpt lat="48.09808" lon="-4.43102">
        <ele>36.67</ele>
        <time>2017-05-26T13:15:14Z</time>
      </trkpt>
      <trkpt lat="48.09813" lon="-4.431">
        <ele>35.23</ele>
        <time>2017-05-26T13:15:18Z</time>
      </trkpt>
      <trkpt lat="48.09821" lon="-4.43092">
        <ele>32.34</ele>
        <time>2017-05-26T13:15:27Z</time>
      </trkpt>
      <trkpt lat="48.09829" lon="-4.43086">
        <ele>29.46</ele>
        <time>2017-05-26T13:15:36Z</time>
      </trkpt>
      <trkpt lat="48.09832" lon="-4.43082">
        <ele>28.98</ele>
        <time>2017-05-26T13:15:39Z</time>
      </trkpt>
      <trkpt lat="48.09841" lon="-4.43068">
        <ele>25.13</ele>
        <time>2017-05-26T13:15:54Z</time>
      </trkpt>
      <trkpt lat="48.09845" lon="-4.43062">
        <ele>24.17</ele>
        <time>2017-05-26T13:15:59Z</time>
      </trkpt>
      <trkpt lat="48.09847" lon="-4.43059">
        <ele>23.69</ele>
        <time>2017-05-26T13:16:01Z</time>
      </trkpt>
      <trkpt lat="48.09852" lon="-4.43053">
        <ele>23.69</ele>
        <time>2017-05-26T13:16:06Z</time>
      </trkpt>
      <trkpt lat="48.09861" lon="-4.43037">
        <ele>25.13</ele>
        <time>2017-05-26T13:16:21Z</time>
      </trkpt>
      <trkpt lat="48.09863" lon="-4.4303">
        <ele>26.09</ele>
        <time>2017-05-26T13:16:29Z</time>
      </trkpt>
      <trkpt lat="48.09873" lon="-4.43013">
        <ele>27.53</ele>
        <time>2017-05-26T13:16:45Z</time>
      </trkpt>
      <trkpt lat="48.0988" lon="-4.42998">
        <ele>29.46</ele>
        <time>2017-05-26T13:17:03Z</time>
      </trkpt>
      <trkpt lat="48.09882" lon="-4.42994">
        <ele>34.26</ele>
        <time>2017-05-26T13:17:14Z</time>
      </trkpt>
      <trkpt lat="48.09895" lon="-4.42985">
        <ele>35.23</ele>
        <time>2017-05-26T13:17:33Z</time>
      </trkpt>
      <trkpt lat="48.09899" lon="-4.42976">
        <ele>32.34</ele>
        <time>2017-05-26T13:17:43Z</time>
      </trkpt>
      <trkpt lat="48.09903" lon="-4.42966">
        <ele>29.46</ele>
        <time>2017-05-26T13:17:52Z</time>
      </trkpt>
      <trkpt lat="48.09907" lon="-4.42963">
        <ele>28.5</ele>
        <time>2017-05-26T13:17:56Z</time>
      </trkpt>
      <trkpt lat="48.09915" lon="-4.42956">
        <ele>26.09</ele>
        <time>2017-05-26T13:18:05Z</time>
      </trkpt>
      <trkpt lat="48.09927" lon="-4.42939">
        <ele>26.09</ele>
        <time>2017-05-26T13:18:20Z</time>
      </trkpt>
      <trkpt lat="48.09935" lon="-4.42935">
        <ele>26.09</ele>
        <time>2017-05-26T13:18:27Z</time>
      </trkpt>
      <trkpt lat="48.09938" lon="-4.4293">
        <ele>27.53</ele>
        <time>2017-05-26T13:18:30Z</time>
      </trkpt>
      <trkpt lat="48.0994" lon="-4.42927">
        <ele>28.02</ele>
        <time>2017-05-26T13:18:32Z</time>
      </trkpt>
      <trkpt lat="48.09943" lon="-4.42917">
        <ele>25.61</ele>
        <time>2017-05-26T13:18:41Z</time>
      </trkpt>
      <trkpt lat="48.09949" lon="-4.42897">
        <ele>23.21</ele>
        <time>2017-05-26T13:18:55Z</time>
      </trkpt>
      <trkpt lat="48.09952" lon="-4.4289">
        <ele>21.77</ele>
        <time>2017-05-26T13:19:14Z</time>
      </trkpt>
      <trkpt lat="48.09953" lon="-4.42889">
        <ele>21.29</ele>
        <time>2017-05-26T13:19:15Z</time>
      </trkpt>
      <trkpt lat="48.09955" lon="-4.42888">
        <ele>20.81</ele>
        <time>2017-05-26T13:19:17Z</time>
      </trkpt>
      <trkpt lat="48.09971" lon="-4.42882">
        <ele>18.88</ele>
        <time>2017-05-26T13:19:34Z</time>
      </trkpt>
      <trkpt lat="48.0998" lon="-4.42876">
        <ele>16.96</ele>
        <time>2017-05-26T13:19:43Z</time>
      </trkpt>
      <trkpt lat="48.09987" lon="-4.4287">
        <ele>15.04</ele>
        <time>2017-05-26T13:19:52Z</time>
      </trkpt>
      <trkpt lat="48.09992" lon="-4.42867">
        <ele>14.56</ele>
        <time>2017-05-26T13:20:05Z</time>
      </trkpt>
      <trkpt lat="48.09993" lon="-4.42866">
        <ele>14.08</ele>
        <time>2017-05-26T13:20:10Z</time>
      </trkpt>
      <trkpt lat="48.09994" lon="-4.42862">
        <ele>13.12</ele>
        <time>2017-05-26T13:20:13Z</time>
      </trkpt>
      <trkpt lat="48.09994" lon="-4.4285">
        <ele>10.23</ele>
        <time>2017-05-26T13:20:28Z</time>
      </trkpt>
      <trkpt lat="48.09992" lon="-4.42848">
        <ele>10.23</ele>
        <time>2017-05-26T13:20:30Z</time>
      </trkpt>
      <trkpt lat="48.09991" lon="-4.42835">
        <ele>12.63</ele>
        <time>2017-05-26T13:20:44Z</time>
      </trkpt>
      <trkpt lat="48.09989" lon="-4.42828">
        <ele>15.04</ele>
        <time>2017-05-26T13:20:59Z</time>
      </trkpt>
      <trkpt lat="48.09988" lon="-4.42821">
        <ele>15.04</ele>
        <time>2017-05-26T13:21:08Z</time>
      </trkpt>
      <trkpt lat="48.0999" lon="-4.42804">
        <ele>15.04</ele>
        <time>2017-05-26T13:21:19Z</time>
      </trkpt>
      <trkpt lat="48.09992" lon="-4.4279">
        <ele>15.52</ele>
        <time>2017-05-26T13:21:26Z</time>
      </trkpt>
      <trkpt lat="48.09997" lon="-4.42763">
        <ele>16.96</ele>
        <time>2017-05-26T13:21:40Z</time>
      </trkpt>
      <trkpt lat="48.09998" lon="-4.42756">
        <ele>17.92</ele>
        <time>2017-05-26T13:21:44Z</time>
      </trkpt>
      <trkpt lat="48.09995" lon="-4.42735">
        <ele>20.81</ele>
        <time>2017-05-26T13:21:59Z</time>
      </trkpt>
      <trkpt lat="48.09986" lon="-4.42724">
        <ele>20.32</ele>
        <time>2017-05-26T13:22:10Z</time>
      </trkpt>
      <trkpt lat="48.09965" lon="-4.42719">
        <ele>22.25</ele>
        <time>2017-05-26T13:22:29Z</time>
      </trkpt>
      <trkpt lat="48.09961" lon="-4.42698">
        <ele>23.21</ele>
        <time>2017-05-26T13:22:43Z</time>
      </trkpt>
      <trkpt lat="48.09963" lon="-4.42681">
        <ele>21.77</ele>
        <time>2017-05-26T13:22:55Z</time>
      </trkpt>
      <trkpt lat="48.09965" lon="-4.42675">
        <ele>21.77</ele>
        <time>2017-05-26T13:22:58Z</time>
      </trkpt>
      <trkpt lat="48.09969" lon="-4.4266">
        <ele>21.29</ele>
        <time>2017-05-26T13:23:09Z</time>
      </trkpt>
      <trkpt lat="48.09968" lon="-4.42653">
        <ele>20.32</ele>
        <time>2017-05-26T13:23:13Z</time>
      </trkpt>
      <trkpt lat="48.09957" lon="-4.42629">
        <ele>19.84</ele>
        <time>2017-05-26T13:23:30Z</time>
      </trkpt>
      <trkpt lat="48.0994" lon="-4.42611">
        <ele>18.4</ele>
        <time>2017-05-26T13:23:45Z</time>
      </trkpt>
      <trkpt lat="48.09938" lon="-4.42599">
        <ele>15.52</ele>
        <time>2017-05-26T13:24:02Z</time>
      </trkpt>
      <trkpt lat="48.09939" lon="-4.42597">
        <ele>15.04</ele>
        <time>2017-05-26T13:24:35Z</time>
      </trkpt>
      <trkpt lat="48.09939" lon="-4.42596">
        <ele>15.04</ele>
        <time>2017-05-26T13:25:03Z</time>
      </trkpt>
      <trkpt lat="48.0994" lon="-4.42595">
        <ele>15.04</ele>
        <time>2017-05-26T13:25:29Z</time>
      </trkpt>
      <trkpt lat="48.09939" lon="-4.42594">
        <ele>15.04</ele>
        <time>2017-05-26T13:25:57Z</time>
      </trkpt>
      <trkpt lat="48.09938" lon="-4.42595">
        <ele>15.04</ele>
        <time>2017-05-26T13:26:24Z</time>
      </trkpt>
      <trkpt lat="48.09938" lon="-4.42595">
        <ele>15.52</ele>
        <time>2017-05-26T13:26:52Z</time>
      </trkpt>
      <trkpt lat="48.09938" lon="-4.42595">
        <ele>15.52</ele>
        <time>2017-05-26T13:27:21Z</time>
      </trkpt>
      <trkpt lat="48.09937" lon="-4.42594">
        <ele>16</ele>
        <time>2017-05-26T13:27:54Z</time>
      </trkpt>
      <trkpt lat="48.09937" lon="-4.42593">
        <ele>16</ele>
        <time>2017-05-26T13:28:26Z</time>
      </trkpt>
      <trkpt lat="48.09939" lon="-4.42592">
        <ele>16.48</ele>
        <time>2017-05-26T13:28:57Z</time>
      </trkpt>
      <trkpt lat="48.09939" lon="-4.42592">
        <ele>16.48</ele>
        <time>2017-05-26T13:29:26Z</time>
      </trkpt>
      <trkpt lat="48.09941" lon="-4.4259">
        <ele>16</ele>
        <time>2017-05-26T13:29:51Z</time>
      </trkpt>
      <trkpt lat="48.09948" lon="-4.42585">
        <ele>15.04</ele>
        <time>2017-05-26T13:30:04Z</time>
      </trkpt>
      <trkpt lat="48.09953" lon="-4.42575">
        <ele>12.63</ele>
        <time>2017-05-26T13:30:14Z</time>
      </trkpt>
      <trkpt lat="48.09959" lon="-4.42568">
        <ele>10.71</ele>
        <time>2017-05-26T13:30:23Z</time>
      </trkpt>
      <trkpt lat="48.09973" lon="-4.42556">
        <ele>13.6</ele>
        <time>2017-05-26T13:30:35Z</time>
      </trkpt>
      <trkpt lat="48.0998" lon="-4.4254">
        <ele>13.12</ele>
        <time>2017-05-26T13:30:52Z</time>
      </trkpt>
      <trkpt lat="48.09979" lon="-4.4254">
        <ele>12.63</ele>
        <time>2017-05-26T13:30:56Z</time>
      </trkpt>
      <trkpt lat="48.09975" lon="-4.42531">
        <ele>13.12</ele>
        <time>2017-05-26T13:31:12Z</time>
      </trkpt>
      <trkpt lat="48.09971" lon="-4.42522">
        <ele>12.15</ele>
        <time>2017-05-26T13:31:30Z</time>
      </trkpt>
      <trkpt lat="48.09961" lon="-4.42506">
        <ele>10.23</ele>
        <time>2017-05-26T13:31:43Z</time>
      </trkpt>
      <trkpt lat="48.09958" lon="-4.42504">
        <ele>12.15</ele>
        <time>2017-05-26T13:31:58Z</time>
      </trkpt>
      <trkpt lat="48.0996" lon="-4.42502">
        <ele>14.08</ele>
        <time>2017-05-26T13:32:17Z</time>
      </trkpt>
      <trkpt lat="48.09959" lon="-4.42504">
        <ele>14.56</ele>
        <time>2017-05-26T13:32:42Z</time>
      </trkpt>
      <trkpt lat="48.09957" lon="-4.42503">
        <ele>16</ele>
        <time>2017-05-26T13:33:04Z</time>
      </trkpt>
      <trkpt lat="48.09951" lon="-4.42493">
        <ele>20.32</ele>
        <time>2017-05-26T13:33:21Z</time>
      </trkpt>
      <trkpt lat="48.09951" lon="-4.42483">
        <ele>22.25</ele>
        <time>2017-05-26T13:33:29Z</time>
      </trkpt>
      <trkpt lat="48.09956" lon="-4.4248">
        <ele>22.25</ele>
        <time>2017-05-26T13:33:38Z</time>
      </trkpt>
      <trkpt lat="48.09961" lon="-4.42479">
        <ele>21.77</ele>
        <time>2017-05-26T13:33:45Z</time>
      </trkpt>
      <trkpt lat="48.09971" lon="-4.42471">
        <ele>19.84</ele>
        <time>2017-05-26T13:33:55Z</time>
      </trkpt>
      <trkpt lat="48.09974" lon="-4.42459">
        <ele>19.36</ele>
        <time>2017-05-26T13:34:03Z</time>
      </trkpt>
      <trkpt lat="48.0998" lon="-4.4244">
        <ele>19.84</ele>
        <time>2017-05-26T13:34:19Z</time>
      </trkpt>
      <trkpt lat="48.09984" lon="-4.4244">
        <ele>18.88</ele>
        <time>2017-05-26T13:34:29Z</time>
      </trkpt>
      <trkpt lat="48.09992" lon="-4.42423">
        <ele>17.44</ele>
        <time>2017-05-26T13:34:45Z</time>
      </trkpt>
      <trkpt lat="48.09993" lon="-4.42411">
        <ele>20.32</ele>
        <time>2017-05-26T13:34:56Z</time>
      </trkpt>
      <trkpt lat="48.09992" lon="-4.42399">
        <ele>21.77</ele>
        <time>2017-05-26T13:35:10Z</time>
      </trkpt>
      <trkpt lat="48.09995" lon="-4.42376">
        <ele>18.4</ele>
        <time>2017-05-26T13:35:26Z</time>
      </trkpt>
      <trkpt lat="48.09997" lon="-4.42371">
        <ele>16.96</ele>
        <time>2017-05-26T13:35:30Z</time>
      </trkpt>
      <trkpt lat="48.09992" lon="-4.42339">
        <ele>14.08</ele>
        <time>2017-05-26T13:35:47Z</time>
      </trkpt>
      <trkpt lat="48.09989" lon="-4.42331">
        <ele>13.6</ele>
        <time>2017-05-26T13:35:52Z</time>
      </trkpt>
      <trkpt lat="48.09983" lon="-4.42304">
        <ele>10.23</ele>
        <time>2017-05-26T13:36:07Z</time>
      </trkpt>
      <trkpt lat="48.09983" lon="-4.42285">
        <ele>8.79</ele>
        <time>2017-05-26T13:36:18Z</time>
      </trkpt>
      <trkpt lat="48.0998" lon="-4.42273">
        <ele>6.87</ele>
        <time>2017-05-26T13:36:29Z</time>
      </trkpt>
      <trkpt lat="48.09978" lon="-4.42269">
        <ele>6.39</ele>
        <time>2017-05-26T13:36:32Z</time>
      </trkpt>
      <trkpt lat="48.09978" lon="-4.42266">
        <ele>6.39</ele>
        <time>2017-05-26T13:36:34Z</time>
      </trkpt>
      <trkpt lat="48.09981" lon="-4.42257">
        <ele>5.91</ele>
        <time>2017-05-26T13:36:40Z</time>
      </trkpt>
      <trkpt lat="48.09991" lon="-4.42266">
        <ele>6.39</ele>
        <time>2017-05-26T13:36:53Z</time>
      </trkpt>
      <trkpt lat="48.09996" lon="-4.42275">
        <ele>5.42</ele>
        <time>2017-05-26T13:36:58Z</time>
      </trkpt>
      <trkpt lat="48.10001" lon="-4.42277">
        <ele>4.94</ele>
        <time>2017-05-26T13:37:05Z</time>
      </trkpt>
      <trkpt lat="48.10006" lon="-4.42283">
        <ele>5.42</ele>
        <time>2017-05-26T13:37:10Z</time>
      </trkpt>
      <trkpt lat="48.10016" lon="-4.42287">
        <ele>6.87</ele>
        <time>2017-05-26T13:37:24Z</time>
      </trkpt>
      <trkpt lat="48.10028" lon="-4.42285">
        <ele>8.79</ele>
        <time>2017-05-26T13:37:39Z</time>
      </trkpt>
      <trkpt lat="48.1004" lon="-4.42275">
        <ele>9.27</ele>
        <time>2017-05-26T13:37:54Z</time>
      </trkpt>
      <trkpt lat="48.10059" lon="-4.42291">
        <ele>12.15</ele>
        <time>2017-05-26T13:38:11Z</time>
      </trkpt>
      <trkpt lat="48.10065" lon="-4.42295">
        <ele>12.15</ele>
        <time>2017-05-26T13:38:16Z</time>
      </trkpt>
      <trkpt lat="48.10079" lon="-4.42308">
        <ele>11.67</ele>
        <time>2017-05-26T13:38:28Z</time>
      </trkpt>
      <trkpt lat="48.10097" lon="-4.42306">
        <ele>11.19</ele>
        <time>2017-05-26T13:38:42Z</time>
      </trkpt>
      <trkpt lat="48.1012" lon="-4.42306">
        <ele>13.6</ele>
        <time>2017-05-26T13:38:59Z</time>
      </trkpt>
      <trkpt lat="48.10131" lon="-4.42308">
        <ele>15.04</ele>
        <time>2017-05-26T13:39:07Z</time>
      </trkpt>
      <trkpt lat="48.10135" lon="-4.42308">
        <ele>15.04</ele>
        <time>2017-05-26T13:39:12Z</time>
      </trkpt>
      <trkpt lat="48.10142" lon="-4.42309">
        <ele>17.44</ele>
        <time>2017-05-26T13:39:20Z</time>
      </trkpt>
      <trkpt lat="48.10148" lon="-4.42307">
        <ele>19.36</ele>
        <time>2017-05-26T13:39:26Z</time>
      </trkpt>
      <trkpt lat="48.1015" lon="-4.42302">
        <ele>20.32</ele>
        <time>2017-05-26T13:39:29Z</time>
      </trkpt>
      <trkpt lat="48.10153" lon="-4.42298">
        <ele>22.25</ele>
        <time>2017-05-26T13:39:34Z</time>
      </trkpt>
      <trkpt lat="48.10156" lon="-4.42279">
        <ele>23.69</ele>
        <time>2017-05-26T13:39:48Z</time>
      </trkpt>
      <trkpt lat="48.10157" lon="-4.42273">
        <ele>24.17</ele>
        <time>2017-05-26T13:39:52Z</time>
      </trkpt>
      <trkpt lat="48.10165" lon="-4.42262">
        <ele>25.61</ele>
        <time>2017-05-26T13:40:02Z</time>
      </trkpt>
      <trkpt lat="48.10173" lon="-4.42257">
        <ele>25.61</ele>
        <time>2017-05-26T13:40:09Z</time>
      </trkpt>
      <trkpt lat="48.10182" lon="-4.42252">
        <ele>27.05</ele>
        <time>2017-05-26T13:40:16Z</time>
      </trkpt>
      <trkpt lat="48.10199" lon="-4.42259">
        <ele>26.09</ele>
        <time>2017-05-26T13:40:31Z</time>
      </trkpt>
      <trkpt lat="48.10208" lon="-4.4227">
        <ele>25.13</ele>
        <time>2017-05-26T13:40:40Z</time>
      </trkpt>
      <trkpt lat="48.10215" lon="-4.42278">
        <ele>24.17</ele>
        <time>2017-05-26T13:40:54Z</time>
      </trkpt>
      <trkpt lat="48.10216" lon="-4.42285">
        <ele>23.69</ele>
        <time>2017-05-26T13:41:00Z</time>
      </trkpt>
      <trkpt lat="48.10223" lon="-4.42293">
        <ele>22.25</ele>
        <time>2017-05-26T13:41:08Z</time>
      </trkpt>
      <trkpt lat="48.10241" lon="-4.423">
        <ele>19.84</ele>
        <time>2017-05-26T13:41:25Z</time>
      </trkpt>
      <trkpt lat="48.10245" lon="-4.42302">
        <ele>19.84</ele>
        <time>2017-05-26T13:41:28Z</time>
      </trkpt>
      <trkpt lat="48.10252" lon="-4.42308">
        <ele>21.77</ele>
        <time>2017-05-26T13:41:43Z</time>
      </trkpt>
      <trkpt lat="48.10253" lon="-4.42308">
        <ele>22.25</ele>
        <time>2017-05-26T13:41:49Z</time>
      </trkpt>
      <trkpt lat="48.10261" lon="-4.42313">
        <ele>22.25</ele>
        <time>2017-05-26T13:42:01Z</time>
      </trkpt>
      <trkpt lat="48.10264" lon="-4.42315">
        <ele>21.77</ele>
        <time>2017-05-26T13:42:04Z</time>
      </trkpt>
      <trkpt lat="48.10281" lon="-4.42295">
        <ele>21.77</ele>
        <time>2017-05-26T13:42:19Z</time>
      </trkpt>
      <trkpt lat="48.10283" lon="-4.42284">
        <ele>22.73</ele>
        <time>2017-05-26T13:42:28Z</time>
      </trkpt>
      <trkpt lat="48.10283" lon="-4.4228">
        <ele>23.69</ele>
        <time>2017-05-26T13:42:32Z</time>
      </trkpt>
      <trkpt lat="48.10286" lon="-4.42272">
        <ele>25.13</ele>
        <time>2017-05-26T13:42:39Z</time>
      </trkpt>
      <trkpt lat="48.10301" lon="-4.42263">
        <ele>25.61</ele>
        <time>2017-05-26T13:42:51Z</time>
      </trkpt>
      <trkpt lat="48.10311" lon="-4.42262">
        <ele>26.57</ele>
        <time>2017-05-26T13:43:02Z</time>
      </trkpt>
      <trkpt lat="48.1031" lon="-4.4225">
        <ele>28.5</ele>
        <time>2017-05-26T13:43:15Z</time>
      </trkpt>
      <trkpt lat="48.1031" lon="-4.42248">
        <ele>28.98</ele>
        <time>2017-05-26T13:43:18Z</time>
      </trkpt>
      <trkpt lat="48.10311" lon="-4.42244">
        <ele>29.94</ele>
        <time>2017-05-26T13:43:21Z</time>
      </trkpt>
      <trkpt lat="48.10312" lon="-4.42243">
        <ele>30.42</ele>
        <time>2017-05-26T13:43:23Z</time>
      </trkpt>
      <trkpt lat="48.1032" lon="-4.42232">
        <ele>32.82</ele>
        <time>2017-05-26T13:43:34Z</time>
      </trkpt>
      <trkpt lat="48.10323" lon="-4.42218">
        <ele>36.67</ele>
        <time>2017-05-26T13:43:47Z</time>
      </trkpt>
      <trkpt lat="48.10324" lon="-4.42209">
        <ele>39.07</ele>
        <time>2017-05-26T13:43:59Z</time>
      </trkpt>
      <trkpt lat="48.10324" lon="-4.42209">
        <ele>39.55</ele>
        <time>2017-05-26T13:44:07Z</time>
      </trkpt>
      <trkpt lat="48.10324" lon="-4.4221">
        <ele>39.55</ele>
        <time>2017-05-26T13:44:20Z</time>
      </trkpt>
      <trkpt lat="48.10325" lon="-4.4221">
        <ele>40.03</ele>
        <time>2017-05-26T13:44:34Z</time>
      </trkpt>
      <trkpt lat="48.10326" lon="-4.4221">
        <ele>40.51</ele>
        <time>2017-05-26T13:45:04Z</time>
      </trkpt>
      <trkpt lat="48.10325" lon="-4.4221">
        <ele>40.51</ele>
        <time>2017-05-26T13:45:31Z</time>
      </trkpt>
      <trkpt lat="48.10325" lon="-4.42209">
        <ele>40.03</ele>
        <time>2017-05-26T13:46:12Z</time>
      </trkpt>
      <trkpt lat="48.10325" lon="-4.42209">
        <ele>40.03</ele>
        <time>2017-05-26T13:46:41Z</time>
      </trkpt>
      <trkpt lat="48.10325" lon="-4.4221">
        <ele>40.03</ele>
        <time>2017-05-26T13:47:08Z</time>
      </trkpt>
      <trkpt lat="48.10325" lon="-4.4221">
        <ele>39.55</ele>
        <time>2017-05-26T13:47:40Z</time>
      </trkpt>
      <trkpt lat="48.10325" lon="-4.4221">
        <ele>40.03</ele>
        <time>2017-05-26T13:48:17Z</time>
      </trkpt>
      <trkpt lat="48.10324" lon="-4.42211">
        <ele>40.51</ele>
        <time>2017-05-26T13:48:44Z</time>
      </trkpt>
      <trkpt lat="48.10324" lon="-4.42211">
        <ele>40.03</ele>
        <time>2017-05-26T13:49:15Z</time>
      </trkpt>
      <trkpt lat="48.10324" lon="-4.4221">
        <ele>40.51</ele>
        <time>2017-05-26T13:49:42Z</time>
      </trkpt>
      <trkpt lat="48.10323" lon="-4.4221">
        <ele>40.99</ele>
        <time>2017-05-26T13:50:21Z</time>
      </trkpt>
      <trkpt lat="48.10324" lon="-4.4221">
        <ele>40.99</ele>
        <time>2017-05-26T13:50:57Z</time>
      </trkpt>
      <trkpt lat="48.10324" lon="-4.4221">
        <ele>41.47</ele>
        <time>2017-05-26T13:51:24Z</time>
      </trkpt>
      <trkpt lat="48.10325" lon="-4.42209">
        <ele>40.99</ele>
        <time>2017-05-26T13:52:06Z</time>
      </trkpt>
      <trkpt lat="48.10325" lon="-4.4221">
        <ele>40.51</ele>
        <time>2017-05-26T13:52:34Z</time>
      </trkpt>
      <trkpt lat="48.10326" lon="-4.42207">
        <ele>40.03</ele>
        <time>2017-05-26T13:52:50Z</time>
      </trkpt>
      <trkpt lat="48.10326" lon="-4.42208">
        <ele>40.51</ele>
        <time>2017-05-26T13:53:21Z</time>
      </trkpt>
      <trkpt lat="48.10326" lon="-4.42208">
        <ele>40.51</ele>
        <time>2017-05-26T13:54:01Z</time>
      </trkpt>
      <trkpt lat="48.10326" lon="-4.42208">
        <ele>39.55</ele>
        <time>2017-05-26T13:54:33Z</time>
      </trkpt>
      <trkpt lat="48.10326" lon="-4.42209">
        <ele>40.03</ele>
        <time>2017-05-26T13:55:11Z</time>
      </trkpt>
      <trkpt lat="48.10326" lon="-4.4221">
        <ele>40.03</ele>
        <time>2017-05-26T13:55:52Z</time>
      </trkpt>
      <trkpt lat="48.10327" lon="-4.42211">
        <ele>40.03</ele>
        <time>2017-05-26T13:56:31Z</time>
      </trkpt>
      <trkpt lat="48.10326" lon="-4.42211">
        <ele>39.55</ele>
        <time>2017-05-26T13:57:10Z</time>
      </trkpt>
      <trkpt lat="48.10326" lon="-4.4221">
        <ele>39.55</ele>
        <time>2017-05-26T13:57:47Z</time>
      </trkpt>
      <trkpt lat="48.10326" lon="-4.4221">
        <ele>39.55</ele>
        <time>2017-05-26T13:58:25Z</time>
      </trkpt>
      <trkpt lat="48.10326" lon="-4.4221">
        <ele>39.07</ele>
        <time>2017-05-26T13:59:01Z</time>
      </trkpt>
      <trkpt lat="48.10326" lon="-4.4221">
        <ele>39.07</ele>
        <time>2017-05-26T13:59:34Z</time>
      </trkpt>
      <trkpt lat="48.10327" lon="-4.4221">
        <ele>39.55</ele>
        <time>2017-05-26T14:00:05Z</time>
      </trkpt>
      <trkpt lat="48.10327" lon="-4.42208">
        <ele>39.07</ele>
        <time>2017-05-26T14:00:20Z</time>
      </trkpt>
      <trkpt lat="48.10331" lon="-4.42191">
        <ele>38.59</ele>
        <time>2017-05-26T14:00:33Z</time>
      </trkpt>
      <trkpt lat="48.10332" lon="-4.42189">
        <ele>38.11</ele>
        <time>2017-05-26T14:00:46Z</time>
      </trkpt>
      <trkpt lat="48.10333" lon="-4.42206">
        <ele>36.19</ele>
        <time>2017-05-26T14:00:57Z</time>
      </trkpt>
      <trkpt lat="48.10338" lon="-4.42209">
        <ele>34.74</ele>
        <time>2017-05-26T14:01:04Z</time>
      </trkpt>
      <trkpt lat="48.10339" lon="-4.42192">
        <ele>32.34</ele>
        <time>2017-05-26T14:01:16Z</time>
      </trkpt>
      <trkpt lat="48.10344" lon="-4.42178">
        <ele>32.34</ele>
        <time>2017-05-26T14:01:25Z</time>
      </trkpt>
      <trkpt lat="48.10349" lon="-4.42166">
        <ele>32.82</ele>
        <time>2017-05-26T14:01:33Z</time>
      </trkpt>
      <trkpt lat="48.10358" lon="-4.42147">
        <ele>34.74</ele>
        <time>2017-05-26T14:01:44Z</time>
      </trkpt>
      <trkpt lat="48.10362" lon="-4.42135">
        <ele>35.71</ele>
        <time>2017-05-26T14:01:52Z</time>
      </trkpt>
      <trkpt lat="48.10362" lon="-4.42133">
        <ele>35.71</ele>
        <time>2017-05-26T14:01:54Z</time>
      </trkpt>
      <trkpt lat="48.10371" lon="-4.42119">
        <ele>38.11</ele>
        <time>2017-05-26T14:02:09Z</time>
      </trkpt>
      <trkpt lat="48.10372" lon="-4.42117">
        <ele>37.63</ele>
        <time>2017-05-26T14:02:10Z</time>
      </trkpt>
      <trkpt lat="48.10389" lon="-4.42105">
        <ele>37.15</ele>
        <time>2017-05-26T14:02:25Z</time>
      </trkpt>
      <trkpt lat="48.10396" lon="-4.42105">
        <ele>33.78</ele>
        <time>2017-05-26T14:02:31Z</time>
      </trkpt>
      <trkpt lat="48.10412" lon="-4.42098">
        <ele>30.9</ele>
        <time>2017-05-26T14:02:47Z</time>
      </trkpt>
      <trkpt lat="48.10418" lon="-4.42092">
        <ele>29.94</ele>
        <time>2017-05-26T14:02:54Z</time>
      </trkpt>
      <trkpt lat="48.10429" lon="-4.42072">
        <ele>34.74</ele>
        <time>2017-05-26T14:03:09Z</time>
      </trkpt>
      <trkpt lat="48.10434" lon="-4.42063">
        <ele>36.19</ele>
        <time>2017-05-26T14:03:18Z</time>
      </trkpt>
      <trkpt lat="48.10449" lon="-4.42054">
        <ele>33.3</ele>
        <time>2017-05-26T14:03:35Z</time>
      </trkpt>
      <trkpt lat="48.10462" lon="-4.42047">
        <ele>31.86</ele>
        <time>2017-05-26T14:03:44Z</time>
      </trkpt>
      <trkpt lat="48.10467" lon="-4.42049">
        <ele>31.38</ele>
        <time>2017-05-26T14:03:51Z</time>
      </trkpt>
      <trkpt lat="48.10481" lon="-4.42047">
        <ele>29.46</ele>
        <time>2017-05-26T14:04:05Z</time>
      </trkpt>
      <trkpt lat="48.10497" lon="-4.42045">
        <ele>26.09</ele>
        <time>2017-05-26T14:04:19Z</time>
      </trkpt>
      <trkpt lat="48.10502" lon="-4.42033">
        <ele>28.02</ele>
        <time>2017-05-26T14:04:35Z</time>
      </trkpt>
      <trkpt lat="48.10509" lon="-4.42021">
        <ele>27.05</ele>
        <time>2017-05-26T14:04:48Z</time>
      </trkpt>
      <trkpt lat="48.1051" lon="-4.42019">
        <ele>27.53</ele>
        <time>2017-05-26T14:04:50Z</time>
      </trkpt>
      <trkpt lat="48.10513" lon="-4.42006">
        <ele>24.65</ele>
        <time>2017-05-26T14:05:02Z</time>
      </trkpt>
      <trkpt lat="48.10506" lon="-4.4199">
        <ele>23.21</ele>
        <time>2017-05-26T14:05:13Z</time>
      </trkpt>
      <trkpt lat="48.10502" lon="-4.41983">
        <ele>23.21</ele>
        <time>2017-05-26T14:05:17Z</time>
      </trkpt>
      <trkpt lat="48.10496" lon="-4.41974">
        <ele>23.69</ele>
        <time>2017-05-26T14:05:25Z</time>
      </trkpt>
      <trkpt lat="48.10491" lon="-4.4197">
        <ele>23.69</ele>
        <time>2017-05-26T14:05:29Z</time>
      </trkpt>
      <trkpt lat="48.10486" lon="-4.41964">
        <ele>23.69</ele>
        <time>2017-05-26T14:05:35Z</time>
      </trkpt>
      <trkpt lat="48.10474" lon="-4.41954">
        <ele>25.61</ele>
        <time>2017-05-26T14:05:49Z</time>
      </trkpt>
      <trkpt lat="48.10464" lon="-4.41943">
        <ele>28.02</ele>
        <time>2017-05-26T14:06:01Z</time>
      </trkpt>
      <trkpt lat="48.10465" lon="-4.4192">
        <ele>28.5</ele>
        <time>2017-05-26T14:06:17Z</time>
      </trkpt>
      <trkpt lat="48.10468" lon="-4.41914">
        <ele>28.98</ele>
        <time>2017-05-26T14:06:25Z</time>
      </trkpt>
      <trkpt lat="48.10471" lon="-4.4191">
        <ele>29.94</ele>
        <time>2017-05-26T14:06:30Z</time>
      </trkpt>
      <trkpt lat="48.10477" lon="-4.41908">
        <ele>30.9</ele>
        <time>2017-05-26T14:06:35Z</time>
      </trkpt>
      <trkpt lat="48.10487" lon="-4.41895">
        <ele>33.3</ele>
        <time>2017-05-26T14:06:48Z</time>
      </trkpt>
      <trkpt lat="48.10493" lon="-4.41885">
        <ele>33.78</ele>
        <time>2017-05-26T14:06:54Z</time>
      </trkpt>
      <trkpt lat="48.10507" lon="-4.41867">
        <ele>35.71</ele>
        <time>2017-05-26T14:07:09Z</time>
      </trkpt>
      <trkpt lat="48.10519" lon="-4.41851">
        <ele>36.67</ele>
        <time>2017-05-26T14:07:23Z</time>
      </trkpt>
      <trkpt lat="48.10534" lon="-4.41832">
        <ele>37.15</ele>
        <time>2017-05-26T14:07:37Z</time>
      </trkpt>
      <trkpt lat="48.10547" lon="-4.41819">
        <ele>38.59</ele>
        <time>2017-05-26T14:07:50Z</time>
      </trkpt>
      <trkpt lat="48.10557" lon="-4.41816">
        <ele>40.51</ele>
        <time>2017-05-26T14:08:07Z</time>
      </trkpt>
      <trkpt lat="48.10555" lon="-4.4182">
        <ele>40.99</ele>
        <time>2017-05-26T14:08:26Z</time>
      </trkpt>
      <trkpt lat="48.10554" lon="-4.41821">
        <ele>40.99</ele>
        <time>2017-05-26T14:08:28Z</time>
      </trkpt>
      <trkpt lat="48.10545" lon="-4.41825">
        <ele>38.59</ele>
        <time>2017-05-26T14:08:41Z</time>
      </trkpt>
      <trkpt lat="48.10535" lon="-4.41833">
        <ele>37.15</ele>
        <time>2017-05-26T14:08:51Z</time>
      </trkpt>
      <trkpt lat="48.10526" lon="-4.41838">
        <ele>35.71</ele>
        <time>2017-05-26T14:09:05Z</time>
      </trkpt>
      <trkpt lat="48.10521" lon="-4.41841">
        <ele>38.59</ele>
        <time>2017-05-26T14:09:28Z</time>
      </trkpt>
      <trkpt lat="48.10508" lon="-4.41865">
        <ele>38.59</ele>
        <time>2017-05-26T14:09:46Z</time>
      </trkpt>
      <trkpt lat="48.10502" lon="-4.41874">
        <ele>37.63</ele>
        <time>2017-05-26T14:10:04Z</time>
      </trkpt>
      <trkpt lat="48.10502" lon="-4.41873">
        <ele>37.63</ele>
        <time>2017-05-26T14:10:36Z</time>
      </trkpt>
      <trkpt lat="48.10502" lon="-4.41873">
        <ele>36.67</ele>
        <time>2017-05-26T14:11:03Z</time>
      </trkpt>
      <trkpt lat="48.10502" lon="-4.41873">
        <ele>36.67</ele>
        <time>2017-05-26T14:11:33Z</time>
      </trkpt>
      <trkpt lat="48.10502" lon="-4.41873">
        <ele>36.19</ele>
        <time>2017-05-26T14:12:02Z</time>
      </trkpt>
      <trkpt lat="48.10502" lon="-4.41873">
        <ele>36.19</ele>
        <time>2017-05-26T14:12:38Z</time>
      </trkpt>
      <trkpt lat="48.10501" lon="-4.41872">
        <ele>36.67</ele>
        <time>2017-05-26T14:13:07Z</time>
      </trkpt>
      <trkpt lat="48.10501" lon="-4.41871">
        <ele>36.67</ele>
        <time>2017-05-26T14:13:40Z</time>
      </trkpt>
      <trkpt lat="48.10502" lon="-4.41872">
        <ele>37.63</ele>
        <time>2017-05-26T14:14:17Z</time>
      </trkpt>
      <trkpt lat="48.10502" lon="-4.41871">
        <ele>38.11</ele>
        <time>2017-05-26T14:14:39Z</time>
      </trkpt>
      <trkpt lat="48.10503" lon="-4.4187">
        <ele>38.11</ele>
        <time>2017-05-26T14:15:05Z</time>
      </trkpt>
      <trkpt lat="48.10503" lon="-4.41871">
        <ele>38.11</ele>
        <time>2017-05-26T14:15:27Z</time>
      </trkpt>
      <trkpt lat="48.10503" lon="-4.41871">
        <ele>38.11</ele>
        <time>2017-05-26T14:15:37Z</time>
      </trkpt>
      <trkpt lat="48.10519" lon="-4.41848">
        <ele>39.55</ele>
        <time>2017-05-26T14:15:52Z</time>
      </trkpt>
      <trkpt lat="48.10521" lon="-4.41845">
        <ele>39.55</ele>
        <time>2017-05-26T14:15:54Z</time>
      </trkpt>
      <trkpt lat="48.10524" lon="-4.41841">
        <ele>40.03</ele>
        <time>2017-05-26T14:15:58Z</time>
      </trkpt>
      <trkpt lat="48.10531" lon="-4.41834">
        <ele>40.51</ele>
        <time>2017-05-26T14:16:05Z</time>
      </trkpt>
      <trkpt lat="48.10533" lon="-4.41831">
        <ele>40.51</ele>
        <time>2017-05-26T14:16:07Z</time>
      </trkpt>
      <trkpt lat="48.10552" lon="-4.41819">
        <ele>42.44</ele>
        <time>2017-05-26T14:16:23Z</time>
      </trkpt>
      <trkpt lat="48.10557" lon="-4.41818">
        <ele>41.47</ele>
        <time>2017-05-26T14:16:37Z</time>
      </trkpt>
      <trkpt lat="48.10556" lon="-4.41817">
        <ele>40.99</ele>
        <time>2017-05-26T14:16:52Z</time>
      </trkpt>
      <trkpt lat="48.10553" lon="-4.41801">
        <ele>42.44</ele>
        <time>2017-05-26T14:17:07Z</time>
      </trkpt>
      <trkpt lat="48.10552" lon="-4.41798">
        <ele>42.92</ele>
        <time>2017-05-26T14:17:09Z</time>
      </trkpt>
      <trkpt lat="48.10545" lon="-4.41767">
        <ele>41.95</ele>
        <time>2017-05-26T14:17:24Z</time>
      </trkpt>
      <trkpt lat="48.1054" lon="-4.41735">
        <ele>43.4</ele>
        <time>2017-05-26T14:17:40Z</time>
      </trkpt>
      <trkpt lat="48.10538" lon="-4.41711">
        <ele>45.32</ele>
        <time>2017-05-26T14:17:53Z</time>
      </trkpt>
      <trkpt lat="48.10539" lon="-4.41709">
        <ele>45.32</ele>
        <time>2017-05-26T14:17:54Z</time>
      </trkpt>
      <trkpt lat="48.10542" lon="-4.41693">
        <ele>45.8</ele>
        <time>2017-05-26T14:18:01Z</time>
      </trkpt>
      <trkpt lat="48.10551" lon="-4.41672">
        <ele>46.28</ele>
        <time>2017-05-26T14:18:13Z</time>
      </trkpt>
      <trkpt lat="48.10573" lon="-4.4167">
        <ele>41.95</ele>
        <time>2017-05-26T14:18:32Z</time>
      </trkpt>
      <trkpt lat="48.10577" lon="-4.41672">
        <ele>40.99</ele>
        <time>2017-05-26T14:18:36Z</time>
      </trkpt>
      <trkpt lat="48.10582" lon="-4.41671">
        <ele>40.03</ele>
        <time>2017-05-26T14:18:40Z</time>
      </trkpt>
      <trkpt lat="48.10591" lon="-4.41664">
        <ele>40.51</ele>
        <time>2017-05-26T14:18:49Z</time>
      </trkpt>
      <trkpt lat="48.10594" lon="-4.4166">
        <ele>40.99</ele>
        <time>2017-05-26T14:18:52Z</time>
      </trkpt>
      <trkpt lat="48.10598" lon="-4.41654">
        <ele>41.47</ele>
        <time>2017-05-26T14:18:57Z</time>
      </trkpt>
      <trkpt lat="48.10601" lon="-4.41639">
        <ele>40.51</ele>
        <time>2017-05-26T14:19:09Z</time>
      </trkpt>
      <trkpt lat="48.10603" lon="-4.41632">
        <ele>40.51</ele>
        <time>2017-05-26T14:19:21Z</time>
      </trkpt>
      <trkpt lat="48.10603" lon="-4.41631">
        <ele>40.51</ele>
        <time>2017-05-26T14:19:23Z</time>
      </trkpt>
      <trkpt lat="48.10602" lon="-4.41625">
        <ele>40.99</ele>
        <time>2017-05-26T14:19:28Z</time>
      </trkpt>
      <trkpt lat="48.10605" lon="-4.41607">
        <ele>41.95</ele>
        <time>2017-05-26T14:19:40Z</time>
      </trkpt>
      <trkpt lat="48.10607" lon="-4.41602">
        <ele>43.4</ele>
        <time>2017-05-26T14:19:57Z</time>
      </trkpt>
      <trkpt lat="48.10608" lon="-4.41601">
        <ele>42.92</ele>
        <time>2017-05-26T14:20:01Z</time>
      </trkpt>
      <trkpt lat="48.1061" lon="-4.41595">
        <ele>42.44</ele>
        <time>2017-05-26T14:20:13Z</time>
      </trkpt>
      <trkpt lat="48.10615" lon="-4.41583">
        <ele>40.03</ele>
        <time>2017-05-26T14:20:24Z</time>
      </trkpt>
      <trkpt lat="48.10617" lon="-4.4157">
        <ele>37.63</ele>
        <time>2017-05-26T14:20:38Z</time>
      </trkpt>
      <trkpt lat="48.10622" lon="-4.41547">
        <ele>33.78</ele>
        <time>2017-05-26T14:20:53Z</time>
      </trkpt>
      <trkpt lat="48.10626" lon="-4.41528">
        <ele>30.9</ele>
        <time>2017-05-26T14:21:08Z</time>
      </trkpt>
      <trkpt lat="48.10629" lon="-4.41513">
        <ele>28.5</ele>
        <time>2017-05-26T14:21:20Z</time>
      </trkpt>
      <trkpt lat="48.10631" lon="-4.415">
        <ele>28.02</ele>
        <time>2017-05-26T14:21:30Z</time>
      </trkpt>
      <trkpt lat="48.10643" lon="-4.41496">
        <ele>26.09</ele>
        <time>2017-05-26T14:21:45Z</time>
      </trkpt>
      <trkpt lat="48.10648" lon="-4.41488">
        <ele>26.09</ele>
        <time>2017-05-26T14:21:53Z</time>
      </trkpt>
      <trkpt lat="48.10653" lon="-4.41476">
        <ele>25.13</ele>
        <time>2017-05-26T14:21:59Z</time>
      </trkpt>
      <trkpt lat="48.10654" lon="-4.41461">
        <ele>26.57</ele>
        <time>2017-05-26T14:22:08Z</time>
      </trkpt>
      <trkpt lat="48.10653" lon="-4.41454">
        <ele>26.57</ele>
        <time>2017-05-26T14:22:29Z</time>
      </trkpt>
      <trkpt lat="48.10652" lon="-4.41455">
        <ele>24.65</ele>
        <time>2017-05-26T14:22:52Z</time>
      </trkpt>
      <trkpt lat="48.10651" lon="-4.41454">
        <ele>25.13</ele>
        <time>2017-05-26T14:23:13Z</time>
      </trkpt>
      <trkpt lat="48.10651" lon="-4.41454">
        <ele>25.13</ele>
        <time>2017-05-26T14:23:14Z</time>
      </trkpt>
      <trkpt lat="48.10646" lon="-4.4145">
        <ele>26.57</ele>
        <time>2017-05-26T14:23:19Z</time>
      </trkpt>
      <trkpt lat="48.10639" lon="-4.41429">
        <ele>26.09</ele>
        <time>2017-05-26T14:23:33Z</time>
      </trkpt>
      <trkpt lat="48.10636" lon="-4.41424">
        <ele>26.09</ele>
        <time>2017-05-26T14:23:37Z</time>
      </trkpt>
      <trkpt lat="48.10631" lon="-4.41414">
        <ele>25.13</ele>
        <time>2017-05-26T14:23:43Z</time>
      </trkpt>
      <trkpt lat="48.10624" lon="-4.41401">
        <ele>22.73</ele>
        <time>2017-05-26T14:23:50Z</time>
      </trkpt>
      <trkpt lat="48.10626" lon="-4.41388">
        <ele>19.84</ele>
        <time>2017-05-26T14:23:55Z</time>
      </trkpt>
      <trkpt lat="48.10634" lon="-4.41377">
        <ele>17.44</ele>
        <time>2017-05-26T14:24:02Z</time>
      </trkpt>
      <trkpt lat="48.10642" lon="-4.41366">
        <ele>18.88</ele>
        <time>2017-05-26T14:24:10Z</time>
      </trkpt>
      <trkpt lat="48.10649" lon="-4.41348">
        <ele>20.32</ele>
        <time>2017-05-26T14:24:24Z</time>
      </trkpt>
      <trkpt lat="48.10653" lon="-4.41339">
        <ele>20.32</ele>
        <time>2017-05-26T14:24:42Z</time>
      </trkpt>
      <trkpt lat="48.10653" lon="-4.41335">
        <ele>21.77</ele>
        <time>2017-05-26T14:25:01Z</time>
      </trkpt>
      <trkpt lat="48.10653" lon="-4.41334">
        <ele>22.25</ele>
        <time>2017-05-26T14:25:27Z</time>
      </trkpt>
      <trkpt lat="48.10653" lon="-4.41334">
        <ele>22.73</ele>
        <time>2017-05-26T14:25:56Z</time>
      </trkpt>
      <trkpt lat="48.10653" lon="-4.41333">
        <ele>22.73</ele>
        <time>2017-05-26T14:26:01Z</time>
      </trkpt>
      <trkpt lat="48.10653" lon="-4.41335">
        <ele>23.21</ele>
        <time>2017-05-26T14:26:15Z</time>
      </trkpt>
      <trkpt lat="48.10653" lon="-4.41335">
        <ele>23.21</ele>
        <time>2017-05-26T14:26:46Z</time>
      </trkpt>
      <trkpt lat="48.10653" lon="-4.41335">
        <ele>23.21</ele>
        <time>2017-05-26T14:26:48Z</time>
      </trkpt>
      <trkpt lat="48.10653" lon="-4.41335">
        <ele>23.69</ele>
        <time>2017-05-26T14:27:05Z</time>
      </trkpt>
      <trkpt lat="48.10653" lon="-4.41334">
        <ele>24.17</ele>
        <time>2017-05-26T14:27:28Z</time>
      </trkpt>
      <trkpt lat="48.10653" lon="-4.41334">
        <ele>24.17</ele>
        <time>2017-05-26T14:27:48Z</time>
      </trkpt>
      <trkpt lat="48.10653" lon="-4.41334">
        <ele>24.17</ele>
        <time>2017-05-26T14:28:17Z</time>
      </trkpt>
      <trkpt lat="48.10653" lon="-4.41334">
        <ele>24.17</ele>
        <time>2017-05-26T14:28:47Z</time>
      </trkpt>
      <trkpt lat="48.10654" lon="-4.41335">
        <ele>24.17</ele>
        <time>2017-05-26T14:29:24Z</time>
      </trkpt>
      <trkpt lat="48.10654" lon="-4.41335">
        <ele>24.17</ele>
        <time>2017-05-26T14:30:00Z</time>
      </trkpt>
      <trkpt lat="48.10654" lon="-4.41335">
        <ele>24.17</ele>
        <time>2017-05-26T14:30:29Z</time>
      </trkpt>
      <trkpt lat="48.10654" lon="-4.41335">
        <ele>24.17</ele>
        <time>2017-05-26T14:30:59Z</time>
      </trkpt>
      <trkpt lat="48.10654" lon="-4.41331">
        <ele>24.17</ele>
        <time>2017-05-26T14:31:16Z</time>
      </trkpt>
      <trkpt lat="48.10655" lon="-4.41326">
        <ele>24.17</ele>
        <time>2017-05-26T14:31:34Z</time>
      </trkpt>
      <trkpt lat="48.10656" lon="-4.41323">
        <ele>23.69</ele>
        <time>2017-05-26T14:31:52Z</time>
      </trkpt>
      <trkpt lat="48.10658" lon="-4.41314">
        <ele>21.77</ele>
        <time>2017-05-26T14:32:00Z</time>
      </trkpt>
      <trkpt lat="48.10665" lon="-4.41291">
        <ele>19.36</ele>
        <time>2017-05-26T14:32:15Z</time>
      </trkpt>
      <trkpt lat="48.10664" lon="-4.41282">
        <ele>18.88</ele>
        <time>2017-05-26T14:32:21Z</time>
      </trkpt>
      <trkpt lat="48.10656" lon="-4.41265">
        <ele>17.92</ele>
        <time>2017-05-26T14:32:32Z</time>
      </trkpt>
      <trkpt lat="48.10653" lon="-4.41255">
        <ele>16.48</ele>
        <time>2017-05-26T14:32:38Z</time>
      </trkpt>
      <trkpt lat="48.10646" lon="-4.41237">
        <ele>15.04</ele>
        <time>2017-05-26T14:32:52Z</time>
      </trkpt>
      <trkpt lat="48.10644" lon="-4.41215">
        <ele>16</ele>
        <time>2017-05-26T14:33:04Z</time>
      </trkpt>
      <trkpt lat="48.10644" lon="-4.41215">
        <ele>16</ele>
        <time>2017-05-26T14:33:06Z</time>
      </trkpt>
      <trkpt lat="48.10643" lon="-4.41202">
        <ele>15.52</ele>
        <time>2017-05-26T14:33:16Z</time>
      </trkpt>
      <trkpt lat="48.10643" lon="-4.41197">
        <ele>14.08</ele>
        <time>2017-05-26T14:33:23Z</time>
      </trkpt>
      <trkpt lat="48.10642" lon="-4.41192">
        <ele>13.12</ele>
        <time>2017-05-26T14:33:26Z</time>
      </trkpt>
      <trkpt lat="48.10642" lon="-4.41188">
        <ele>11.67</ele>
        <time>2017-05-26T14:33:29Z</time>
      </trkpt>
      <trkpt lat="48.10641" lon="-4.41183">
        <ele>10.23</ele>
        <time>2017-05-26T14:33:36Z</time>
      </trkpt>
      <trkpt lat="48.1064" lon="-4.4118">
        <ele>10.23</ele>
        <time>2017-05-26T14:33:38Z</time>
      </trkpt>
      <trkpt lat="48.10635" lon="-4.41174">
        <ele>10.23</ele>
        <time>2017-05-26T14:33:43Z</time>
      </trkpt>
      <trkpt lat="48.10633" lon="-4.41168">
        <ele>10.23</ele>
        <time>2017-05-26T14:33:47Z</time>
      </trkpt>
      <trkpt lat="48.10633" lon="-4.41159">
        <ele>11.19</ele>
        <time>2017-05-26T14:33:53Z</time>
      </trkpt>
      <trkpt lat="48.10628" lon="-4.41139">
        <ele>10.23</ele>
        <time>2017-05-26T14:34:04Z</time>
      </trkpt>
      <trkpt lat="48.10626" lon="-4.41128">
        <ele>11.19</ele>
        <time>2017-05-26T14:34:11Z</time>
      </trkpt>
      <trkpt lat="48.10626" lon="-4.41125">
        <ele>11.19</ele>
        <time>2017-05-26T14:34:13Z</time>
      </trkpt>
      <trkpt lat="48.10621" lon="-4.41112">
        <ele>9.27</ele>
        <time>2017-05-26T14:34:22Z</time>
      </trkpt>
      <trkpt lat="48.10616" lon="-4.41093">
        <ele>8.79</ele>
        <time>2017-05-26T14:34:34Z</time>
      </trkpt>
      <trkpt lat="48.10612" lon="-4.41069">
        <ele>8.31</ele>
        <time>2017-05-26T14:34:50Z</time>
      </trkpt>
      <trkpt lat="48.10606" lon="-4.41051">
        <ele>6.87</ele>
        <time>2017-05-26T14:35:01Z</time>
      </trkpt>
      <trkpt lat="48.10606" lon="-4.41049">
        <ele>7.35</ele>
        <time>2017-05-26T14:35:03Z</time>
      </trkpt>
      <trkpt lat="48.10599" lon="-4.41039">
        <ele>8.31</ele>
        <time>2017-05-26T14:35:12Z</time>
      </trkpt>
      <trkpt lat="48.10598" lon="-4.41035">
        <ele>8.31</ele>
        <time>2017-05-26T14:35:14Z</time>
      </trkpt>
      <trkpt lat="48.10585" lon="-4.4102">
        <ele>7.35</ele>
        <time>2017-05-26T14:35:30Z</time>
      </trkpt>
      <trkpt lat="48.10574" lon="-4.41005">
        <ele>5.91</ele>
        <time>2017-05-26T14:35:43Z</time>
      </trkpt>
      <trkpt lat="48.10573" lon="-4.41003">
        <ele>5.91</ele>
        <time>2017-05-26T14:35:45Z</time>
      </trkpt>
      <trkpt lat="48.10571" lon="-4.40996">
        <ele>6.39</ele>
        <time>2017-05-26T14:35:50Z</time>
      </trkpt>
      <trkpt lat="48.10565" lon="-4.40978">
        <ele>8.79</ele>
        <time>2017-05-26T14:36:01Z</time>
      </trkpt>
      <trkpt lat="48.10564" lon="-4.40963">
        <ele>9.75</ele>
        <time>2017-05-26T14:36:14Z</time>
      </trkpt>
      <trkpt lat="48.10561" lon="-4.40948">
        <ele>7.83</ele>
        <time>2017-05-26T14:36:26Z</time>
      </trkpt>
      <trkpt lat="48.1056" lon="-4.40947">
        <ele>8.31</ele>
        <time>2017-05-26T14:36:27Z</time>
      </trkpt>
      <trkpt lat="48.10555" lon="-4.40936">
        <ele>9.75</ele>
        <time>2017-05-26T14:36:35Z</time>
      </trkpt>
      <trkpt lat="48.10551" lon="-4.40932">
        <ele>10.71</ele>
        <time>2017-05-26T14:36:40Z</time>
      </trkpt>
      <trkpt lat="48.1054" lon="-4.40925">
        <ele>11.67</ele>
        <time>2017-05-26T14:36:55Z</time>
      </trkpt>
      <trkpt lat="48.10519" lon="-4.40904">
        <ele>9.27</ele>
        <time>2017-05-26T14:37:12Z</time>
      </trkpt>
      <trkpt lat="48.10509" lon="-4.4089">
        <ele>7.35</ele>
        <time>2017-05-26T14:37:23Z</time>
      </trkpt>
      <trkpt lat="48.10493" lon="-4.40881">
        <ele>5.42</ele>
        <time>2017-05-26T14:37:37Z</time>
      </trkpt>
      <trkpt lat="48.10493" lon="-4.40878">
        <ele>7.83</ele>
        <time>2017-05-26T14:38:02Z</time>
      </trkpt>
      <trkpt lat="48.10493" lon="-4.40878">
        <ele>8.31</ele>
        <time>2017-05-26T14:38:33Z</time>
      </trkpt>
      <trkpt lat="48.10493" lon="-4.40875">
        <ele>9.27</ele>
        <time>2017-05-26T14:39:02Z</time>
      </trkpt>
      <trkpt lat="48.10493" lon="-4.40875">
        <ele>9.27</ele>
        <time>2017-05-26T14:39:32Z</time>
      </trkpt>
      <trkpt lat="48.10483" lon="-4.40865">
        <ele>7.83</ele>
        <time>2017-05-26T14:39:52Z</time>
      </trkpt>
      <trkpt lat="48.10481" lon="-4.40863">
        <ele>7.83</ele>
        <time>2017-05-26T14:39:54Z</time>
      </trkpt>
      <trkpt lat="48.10465" lon="-4.4084">
        <ele>4.94</ele>
        <time>2017-05-26T14:40:12Z</time>
      </trkpt>
      <trkpt lat="48.10443" lon="-4.40834">
        <ele>-0.82</ele>
        <time>2017-05-26T14:40:33Z</time>
      </trkpt>
      <trkpt lat="48.10445" lon="-4.40812">
        <ele>8.31</ele>
        <time>2017-05-26T14:40:44Z</time>
      </trkpt>
      <trkpt lat="48.10445" lon="-4.40788">
        <ele>4.94</ele>
        <time>2017-05-26T14:41:02Z</time>
      </trkpt>
      <trkpt lat="48.10436" lon="-4.40779">
        <ele>1.58</ele>
        <time>2017-05-26T14:41:11Z</time>
      </trkpt>
      <trkpt lat="48.10427" lon="-4.40772">
        <ele>-0.34</ele>
        <time>2017-05-26T14:41:28Z</time>
      </trkpt>
      <trkpt lat="48.10425" lon="-4.40734">
        <ele>2.06</ele>
        <time>2017-05-26T14:41:43Z</time>
      </trkpt>
      <trkpt lat="48.10423" lon="-4.4072">
        <ele>2.06</ele>
        <time>2017-05-26T14:41:50Z</time>
      </trkpt>
      <trkpt lat="48.10406" lon="-4.40718">
        <ele>0.14</ele>
        <time>2017-05-26T14:42:06Z</time>
      </trkpt>
      <trkpt lat="48.10398" lon="-4.40717">
        <ele>-1.3</ele>
        <time>2017-05-26T14:42:11Z</time>
      </trkpt>
      <trkpt lat="48.10379" lon="-4.4071">
        <ele>-3.71</ele>
        <time>2017-05-26T14:42:34Z</time>
      </trkpt>
      <trkpt lat="48.10378" lon="-4.40711">
        <ele>-5.15</ele>
        <time>2017-05-26T14:42:49Z</time>
      </trkpt>
      <trkpt lat="48.1037" lon="-4.40708">
        <ele>-6.11</ele>
        <time>2017-05-26T14:42:55Z</time>
      </trkpt>
      <trkpt lat="48.10359" lon="-4.4071">
        <ele>-9.48</ele>
        <time>2017-05-26T14:43:07Z</time>
      </trkpt>
      <trkpt lat="48.10348" lon="-4.40711">
        <ele>-8.51</ele>
        <time>2017-05-26T14:43:17Z</time>
      </trkpt>
      <trkpt lat="48.10336" lon="-4.40709">
        <ele>-4.19</ele>
        <time>2017-05-26T14:43:23Z</time>
      </trkpt>
      <trkpt lat="48.10316" lon="-4.40709">
        <ele>-2.75</ele>
        <time>2017-05-26T14:43:39Z</time>
      </trkpt>
      <trkpt lat="48.10316" lon="-4.40703">
        <ele>-2.27</ele>
        <time>2017-05-26T14:43:41Z</time>
      </trkpt>
      <trkpt lat="48.10318" lon="-4.40695">
        <ele>-1.3</ele>
        <time>2017-05-26T14:43:44Z</time>
      </trkpt>
      <trkpt lat="48.10321" lon="-4.40694">
        <ele>-0.34</ele>
        <time>2017-05-26T14:43:46Z</time>
      </trkpt>
      <trkpt lat="48.10339" lon="-4.40676">
        <ele>4.46</ele>
        <time>2017-05-26T14:44:02Z</time>
      </trkpt>
      <trkpt lat="48.10342" lon="-4.40666">
        <ele>4.94</ele>
        <time>2017-05-26T14:44:07Z</time>
      </trkpt>
      <trkpt lat="48.10343" lon="-4.40655">
        <ele>5.42</ele>
        <time>2017-05-26T14:44:11Z</time>
      </trkpt>
      <trkpt lat="48.10345" lon="-4.40647">
        <ele>6.87</ele>
        <time>2017-05-26T14:44:17Z</time>
      </trkpt>
      <trkpt lat="48.1035" lon="-4.40634">
        <ele>8.31</ele>
        <time>2017-05-26T14:44:26Z</time>
      </trkpt>
      <trkpt lat="48.10352" lon="-4.40619">
        <ele>8.79</ele>
        <time>2017-05-26T14:44:35Z</time>
      </trkpt>
      <trkpt lat="48.10352" lon="-4.406">
        <ele>11.19</ele>
        <time>2017-05-26T14:44:50Z</time>
      </trkpt>
      <trkpt lat="48.10356" lon="-4.40571">
        <ele>8.79</ele>
        <time>2017-05-26T14:45:03Z</time>
      </trkpt>
      <trkpt lat="48.1036" lon="-4.40546">
        <ele>8.31</ele>
        <time>2017-05-26T14:45:19Z</time>
      </trkpt>
      <trkpt lat="48.10361" lon="-4.4053">
        <ele>8.79</ele>
        <time>2017-05-26T14:45:28Z</time>
      </trkpt>
      <trkpt lat="48.1036" lon="-4.40528">
        <ele>8.79</ele>
        <time>2017-05-26T14:45:30Z</time>
      </trkpt>
      <trkpt lat="48.10365" lon="-4.40495">
        <ele>13.6</ele>
        <time>2017-05-26T14:45:47Z</time>
      </trkpt>
      <trkpt lat="48.10364" lon="-4.40489">
        <ele>14.56</ele>
        <time>2017-05-26T14:45:51Z</time>
      </trkpt>
      <trkpt lat="48.10364" lon="-4.40465">
        <ele>15.04</ele>
        <time>2017-05-26T14:46:08Z</time>
      </trkpt>
      <trkpt lat="48.10365" lon="-4.40458">
        <ele>14.56</ele>
        <time>2017-05-26T14:46:10Z</time>
      </trkpt>
      <trkpt lat="48.10365" lon="-4.40434">
        <ele>12.63</ele>
        <time>2017-05-26T14:46:25Z</time>
      </trkpt>
      <trkpt lat="48.10371" lon="-4.40424">
        <ele>9.75</ele>
        <time>2017-05-26T14:46:38Z</time>
      </trkpt>
      <trkpt lat="48.1039" lon="-4.40424">
        <ele>6.39</ele>
        <time>2017-05-26T14:46:56Z</time>
      </trkpt>
      <trkpt lat="48.10406" lon="-4.40418">
        <ele>3.98</ele>
        <time>2017-05-26T14:47:11Z</time>
      </trkpt>
      <trkpt lat="48.10426" lon="-4.40414">
        <ele>7.35</ele>
        <time>2017-05-26T14:47:28Z</time>
      </trkpt>
      <trkpt lat="48.10433" lon="-4.40414">
        <ele>8.31</ele>
        <time>2017-05-26T14:47:34Z</time>
      </trkpt>
      <trkpt lat="48.10441" lon="-4.40417">
        <ele>9.75</ele>
        <time>2017-05-26T14:47:42Z</time>
      </trkpt>
      <trkpt lat="48.10444" lon="-4.40416">
        <ele>10.23</ele>
        <time>2017-05-26T14:47:44Z</time>
      </trkpt>
      <trkpt lat="48.1046" lon="-4.40414">
        <ele>13.12</ele>
        <time>2017-05-26T14:47:56Z</time>
      </trkpt>
      <trkpt lat="48.10465" lon="-4.40408">
        <ele>13.6</ele>
        <time>2017-05-26T14:48:01Z</time>
      </trkpt>
      <trkpt lat="48.10477" lon="-4.40395">
        <ele>14.08</ele>
        <time>2017-05-26T14:48:13Z</time>
      </trkpt>
      <trkpt lat="48.10487" lon="-4.40399">
        <ele>13.6</ele>
        <time>2017-05-26T14:48:21Z</time>
      </trkpt>
      <trkpt lat="48.10506" lon="-4.40402">
        <ele>15.52</ele>
        <time>2017-05-26T14:48:35Z</time>
      </trkpt>
      <trkpt lat="48.10509" lon="-4.404">
        <ele>16</ele>
        <time>2017-05-26T14:48:41Z</time>
      </trkpt>
      <trkpt lat="48.10517" lon="-4.40395">
        <ele>16</ele>
        <time>2017-05-26T14:48:48Z</time>
      </trkpt>
      <trkpt lat="48.10532" lon="-4.40383">
        <ele>16.96</ele>
        <time>2017-05-26T14:49:03Z</time>
      </trkpt>
      <trkpt lat="48.10535" lon="-4.40371">
        <ele>19.84</ele>
        <time>2017-05-26T14:49:21Z</time>
      </trkpt>
      <trkpt lat="48.10538" lon="-4.40355">
        <ele>16.96</ele>
        <time>2017-05-26T14:49:35Z</time>
      </trkpt>
      <trkpt lat="48.1053" lon="-4.40337">
        <ele>17.92</ele>
        <time>2017-05-26T14:49:51Z</time>
      </trkpt>
      <trkpt lat="48.1053" lon="-4.40336">
        <ele>17.92</ele>
        <time>2017-05-26T14:49:54Z</time>
      </trkpt>
      <trkpt lat="48.10526" lon="-4.40312">
        <ele>22.73</ele>
        <time>2017-05-26T14:50:09Z</time>
      </trkpt>
      <trkpt lat="48.10528" lon="-4.40299">
        <ele>26.57</ele>
        <time>2017-05-26T14:50:22Z</time>
      </trkpt>
      <trkpt lat="48.1053" lon="-4.40277">
        <ele>23.21</ele>
        <time>2017-05-26T14:50:33Z</time>
      </trkpt>
      <trkpt lat="48.10522" lon="-4.40265">
        <ele>22.73</ele>
        <time>2017-05-26T14:50:42Z</time>
      </trkpt>
      <trkpt lat="48.10522" lon="-4.40255">
        <ele>23.21</ele>
        <time>2017-05-26T14:50:49Z</time>
      </trkpt>
      <trkpt lat="48.1052" lon="-4.40242">
        <ele>24.17</ele>
        <time>2017-05-26T14:50:58Z</time>
      </trkpt>
      <trkpt lat="48.1052" lon="-4.4022">
        <ele>28.98</ele>
        <time>2017-05-26T14:51:12Z</time>
      </trkpt>
      <trkpt lat="48.10516" lon="-4.40203">
        <ele>31.86</ele>
        <time>2017-05-26T14:51:29Z</time>
      </trkpt>
      <trkpt lat="48.10514" lon="-4.40195">
        <ele>31.38</ele>
        <time>2017-05-26T14:51:48Z</time>
      </trkpt>
      <trkpt lat="48.10509" lon="-4.40183">
        <ele>34.26</ele>
        <time>2017-05-26T14:52:05Z</time>
      </trkpt>
      <trkpt lat="48.10508" lon="-4.40178">
        <ele>34.26</ele>
        <time>2017-05-26T14:52:08Z</time>
      </trkpt>
      <trkpt lat="48.10502" lon="-4.40162">
        <ele>34.74</ele>
        <time>2017-05-26T14:52:20Z</time>
      </trkpt>
      <trkpt lat="48.10504" lon="-4.40153">
        <ele>35.71</ele>
        <time>2017-05-26T14:52:25Z</time>
      </trkpt>
      <trkpt lat="48.1051" lon="-4.40135">
        <ele>36.67</ele>
        <time>2017-05-26T14:52:39Z</time>
      </trkpt>
      <trkpt lat="48.10512" lon="-4.40121">
        <ele>32.34</ele>
        <time>2017-05-26T14:52:51Z</time>
      </trkpt>
      <trkpt lat="48.10514" lon="-4.40116">
        <ele>31.38</ele>
        <time>2017-05-26T14:52:57Z</time>
      </trkpt>
      <trkpt lat="48.10516" lon="-4.40112">
        <ele>30.9</ele>
        <time>2017-05-26T14:53:00Z</time>
      </trkpt>
      <trkpt lat="48.10517" lon="-4.40098">
        <ele>29.94</ele>
        <time>2017-05-26T14:53:05Z</time>
      </trkpt>
      <trkpt lat="48.10517" lon="-4.40077">
        <ele>28.02</ele>
        <time>2017-05-26T14:53:18Z</time>
      </trkpt>
      <trkpt lat="48.10516" lon="-4.40063">
        <ele>27.05</ele>
        <time>2017-05-26T14:53:29Z</time>
      </trkpt>
      <trkpt lat="48.10516" lon="-4.40054">
        <ele>27.53</ele>
        <time>2017-05-26T14:53:33Z</time>
      </trkpt>
      <trkpt lat="48.10518" lon="-4.40045">
        <ele>28.02</ele>
        <time>2017-05-26T14:53:37Z</time>
      </trkpt>
      <trkpt lat="48.10519" lon="-4.40039">
        <ele>28.5</ele>
        <time>2017-05-26T14:53:39Z</time>
      </trkpt>
      <trkpt lat="48.10522" lon="-4.40017">
        <ele>23.21</ele>
        <time>2017-05-26T14:53:57Z</time>
      </trkpt>
      <trkpt lat="48.10523" lon="-4.40004">
        <ele>20.32</ele>
        <time>2017-05-26T14:54:05Z</time>
      </trkpt>
      <trkpt lat="48.10522" lon="-4.40001">
        <ele>19.84</ele>
        <time>2017-05-26T14:54:07Z</time>
      </trkpt>
      <trkpt lat="48.1052" lon="-4.39995">
        <ele>19.36</ele>
        <time>2017-05-26T14:54:10Z</time>
      </trkpt>
      <trkpt lat="48.10516" lon="-4.39987">
        <ele>18.88</ele>
        <time>2017-05-26T14:54:15Z</time>
      </trkpt>
      <trkpt lat="48.10514" lon="-4.39984">
        <ele>18.88</ele>
        <time>2017-05-26T14:54:19Z</time>
      </trkpt>
      <trkpt lat="48.10506" lon="-4.39964">
        <ele>15.04</ele>
        <time>2017-05-26T14:54:34Z</time>
      </trkpt>
      <trkpt lat="48.10504" lon="-4.39958">
        <ele>14.56</ele>
        <time>2017-05-26T14:54:37Z</time>
      </trkpt>
      <trkpt lat="48.10498" lon="-4.39945">
        <ele>15.04</ele>
        <time>2017-05-26T14:54:46Z</time>
      </trkpt>
      <trkpt lat="48.1049" lon="-4.39935">
        <ele>14.56</ele>
        <time>2017-05-26T14:54:56Z</time>
      </trkpt>
      <trkpt lat="48.10485" lon="-4.3992">
        <ele>16.48</ele>
        <time>2017-05-26T14:55:11Z</time>
      </trkpt>
      <trkpt lat="48.10481" lon="-4.39916">
        <ele>17.92</ele>
        <time>2017-05-26T14:55:28Z</time>
      </trkpt>
      <trkpt lat="48.10481" lon="-4.39916">
        <ele>18.4</ele>
        <time>2017-05-26T14:55:57Z</time>
      </trkpt>
      <trkpt lat="48.1048" lon="-4.39914">
        <ele>17.44</ele>
        <time>2017-05-26T14:56:13Z</time>
      </trkpt>
      <trkpt lat="48.10472" lon="-4.39892">
        <ele>18.88</ele>
        <time>2017-05-26T14:56:24Z</time>
      </trkpt>
      <trkpt lat="48.10464" lon="-4.39881">
        <ele>24.65</ele>
        <time>2017-05-26T14:56:38Z</time>
      </trkpt>
      <trkpt lat="48.1046" lon="-4.39857">
        <ele>21.29</ele>
        <time>2017-05-26T14:56:52Z</time>
      </trkpt>
      <trkpt lat="48.10457" lon="-4.39841">
        <ele>21.77</ele>
        <time>2017-05-26T14:57:00Z</time>
      </trkpt>
      <trkpt lat="48.10458" lon="-4.3983">
        <ele>21.77</ele>
        <time>2017-05-26T14:57:04Z</time>
      </trkpt>
      <trkpt lat="48.10459" lon="-4.39819">
        <ele>23.21</ele>
        <time>2017-05-26T14:57:08Z</time>
      </trkpt>
      <trkpt lat="48.10461" lon="-4.39816">
        <ele>23.69</ele>
        <time>2017-05-26T14:57:10Z</time>
      </trkpt>
      <trkpt lat="48.10466" lon="-4.39804">
        <ele>24.65</ele>
        <time>2017-05-26T14:57:20Z</time>
      </trkpt>
      <trkpt lat="48.10465" lon="-4.39794">
        <ele>23.69</ele>
        <time>2017-05-26T14:57:25Z</time>
      </trkpt>
      <trkpt lat="48.10468" lon="-4.39789">
        <ele>23.21</ele>
        <time>2017-05-26T14:57:28Z</time>
      </trkpt>
      <trkpt lat="48.1047" lon="-4.3977">
        <ele>18.4</ele>
        <time>2017-05-26T14:57:43Z</time>
      </trkpt>
      <trkpt lat="48.10458" lon="-4.39741">
        <ele>15.52</ele>
        <time>2017-05-26T14:58:03Z</time>
      </trkpt>
      <trkpt lat="48.1045" lon="-4.39728">
        <ele>15.04</ele>
        <time>2017-05-26T14:58:12Z</time>
      </trkpt>
      <trkpt lat="48.10447" lon="-4.39719">
        <ele>16</ele>
        <time>2017-05-26T14:58:15Z</time>
      </trkpt>
      <trkpt lat="48.10436" lon="-4.39697">
        <ele>22.73</ele>
        <time>2017-05-26T14:58:30Z</time>
      </trkpt>
      <trkpt lat="48.10429" lon="-4.39672">
        <ele>24.65</ele>
        <time>2017-05-26T14:58:45Z</time>
      </trkpt>
      <trkpt lat="48.10423" lon="-4.39652">
        <ele>22.73</ele>
        <time>2017-05-26T14:58:57Z</time>
      </trkpt>
      <trkpt lat="48.10434" lon="-4.39626">
        <ele>28.02</ele>
        <time>2017-05-26T14:59:12Z</time>
      </trkpt>
      <trkpt lat="48.10436" lon="-4.39623">
        <ele>28.5</ele>
        <time>2017-05-26T14:59:14Z</time>
      </trkpt>
      <trkpt lat="48.10449" lon="-4.3961">
        <ele>28.02</ele>
        <time>2017-05-26T14:59:27Z</time>
      </trkpt>
      <trkpt lat="48.10453" lon="-4.39604">
        <ele>27.05</ele>
        <time>2017-05-26T14:59:44Z</time>
      </trkpt>
      <trkpt lat="48.1045" lon="-4.39605">
        <ele>27.53</ele>
        <time>2017-05-26T15:00:09Z</time>
      </trkpt>
      <trkpt lat="48.1045" lon="-4.39604">
        <ele>28.02</ele>
        <time>2017-05-26T15:00:30Z</time>
      </trkpt>
      <trkpt lat="48.10451" lon="-4.39606">
        <ele>26.57</ele>
        <time>2017-05-26T15:01:05Z</time>
      </trkpt>
      <trkpt lat="48.10451" lon="-4.39605">
        <ele>27.05</ele>
        <time>2017-05-26T15:01:29Z</time>
      </trkpt>
      <trkpt lat="48.10451" lon="-4.39605">
        <ele>26.57</ele>
        <time>2017-05-26T15:01:54Z</time>
      </trkpt>
      <trkpt lat="48.10451" lon="-4.39606">
        <ele>26.09</ele>
        <time>2017-05-26T15:02:19Z</time>
      </trkpt>
      <trkpt lat="48.10451" lon="-4.39606">
        <ele>26.09</ele>
        <time>2017-05-26T15:02:49Z</time>
      </trkpt>
      <trkpt lat="48.10451" lon="-4.39606">
        <ele>26.09</ele>
        <time>2017-05-26T15:03:22Z</time>
      </trkpt>
      <trkpt lat="48.10451" lon="-4.39606">
        <ele>26.57</ele>
        <time>2017-05-26T15:03:48Z</time>
      </trkpt>
      <trkpt lat="48.10447" lon="-4.39602">
        <ele>27.05</ele>
        <time>2017-05-26T15:04:11Z</time>
      </trkpt>
      <trkpt lat="48.10444" lon="-4.39601">
        <ele>27.53</ele>
        <time>2017-05-26T15:04:16Z</time>
      </trkpt>
      <trkpt lat="48.10431" lon="-4.39595">
        <ele>30.42</ele>
        <time>2017-05-26T15:04:32Z</time>
      </trkpt>
      <trkpt lat="48.10428" lon="-4.39592">
        <ele>30.9</ele>
        <time>2017-05-26T15:04:36Z</time>
      </trkpt>
      <trkpt lat="48.1042" lon="-4.39577">
        <ele>31.86</ele>
        <time>2017-05-26T15:04:48Z</time>
      </trkpt>
      <trkpt lat="48.10419" lon="-4.39571">
        <ele>33.3</ele>
        <time>2017-05-26T15:04:52Z</time>
      </trkpt>
      <trkpt lat="48.10419" lon="-4.39554">
        <ele>35.23</ele>
        <time>2017-05-26T15:05:04Z</time>
      </trkpt>
      <trkpt lat="48.10415" lon="-4.39526">
        <ele>37.63</ele>
        <time>2017-05-26T15:05:21Z</time>
      </trkpt>
      <trkpt lat="48.10403" lon="-4.39501">
        <ele>41.47</ele>
        <time>2017-05-26T15:05:39Z</time>
      </trkpt>
      <trkpt lat="48.10402" lon="-4.39496">
        <ele>41.95</ele>
        <time>2017-05-26T15:05:42Z</time>
      </trkpt>
      <trkpt lat="48.10402" lon="-4.39483">
        <ele>41.95</ele>
        <time>2017-05-26T15:05:50Z</time>
      </trkpt>
      <trkpt lat="48.10394" lon="-4.39462">
        <ele>42.92</ele>
        <time>2017-05-26T15:06:04Z</time>
      </trkpt>
      <trkpt lat="48.1039" lon="-4.39442">
        <ele>43.88</ele>
        <time>2017-05-26T15:06:21Z</time>
      </trkpt>
      <trkpt lat="48.10395" lon="-4.39417">
        <ele>45.32</ele>
        <time>2017-05-26T15:06:37Z</time>
      </trkpt>
      <trkpt lat="48.104" lon="-4.39397">
        <ele>45.32</ele>
        <time>2017-05-26T15:06:50Z</time>
      </trkpt>
      <trkpt lat="48.10404" lon="-4.39376">
        <ele>45.8</ele>
        <time>2017-05-26T15:07:08Z</time>
      </trkpt>
      <trkpt lat="48.10404" lon="-4.39364">
        <ele>45.32</ele>
        <time>2017-05-26T15:07:17Z</time>
      </trkpt>
      <trkpt lat="48.10405" lon="-4.39355">
        <ele>46.28</ele>
        <time>2017-05-26T15:07:23Z</time>
      </trkpt>
      <trkpt lat="48.10409" lon="-4.39345">
        <ele>47.24</ele>
        <time>2017-05-26T15:07:30Z</time>
      </trkpt>
      <trkpt lat="48.10415" lon="-4.39339">
        <ele>46.76</ele>
        <time>2017-05-26T15:07:38Z</time>
      </trkpt>
      <trkpt lat="48.10418" lon="-4.39314">
        <ele>48.68</ele>
        <time>2017-05-26T15:07:52Z</time>
      </trkpt>
      <trkpt lat="48.10422" lon="-4.39302">
        <ele>48.2</ele>
        <time>2017-05-26T15:08:00Z</time>
      </trkpt>
      <trkpt lat="48.10425" lon="-4.39291">
        <ele>47.24</ele>
        <time>2017-05-26T15:08:05Z</time>
      </trkpt>
      <trkpt lat="48.10426" lon="-4.39278">
        <ele>47.72</ele>
        <time>2017-05-26T15:08:15Z</time>
      </trkpt>
      <trkpt lat="48.1043" lon="-4.39268">
        <ele>47.72</ele>
        <time>2017-05-26T15:08:21Z</time>
      </trkpt>
      <trkpt lat="48.1043" lon="-4.39259">
        <ele>46.28</ele>
        <time>2017-05-26T15:08:26Z</time>
      </trkpt>
      <trkpt lat="48.10433" lon="-4.39243">
        <ele>46.28</ele>
        <time>2017-05-26T15:08:36Z</time>
      </trkpt>
      <trkpt lat="48.10432" lon="-4.39224">
        <ele>47.72</ele>
        <time>2017-05-26T15:08:46Z</time>
      </trkpt>
      <trkpt lat="48.10432" lon="-4.392">
        <ele>49.16</ele>
        <time>2017-05-26T15:08:59Z</time>
      </trkpt>
      <trkpt lat="48.10431" lon="-4.39195">
        <ele>50.61</ele>
        <time>2017-05-26T15:09:03Z</time>
      </trkpt>
      <trkpt lat="48.10434" lon="-4.3917">
        <ele>50.13</ele>
        <time>2017-05-26T15:09:19Z</time>
      </trkpt>
      <trkpt lat="48.10437" lon="-4.39155">
        <ele>49.16</ele>
        <time>2017-05-26T15:09:33Z</time>
      </trkpt>
      <trkpt lat="48.10437" lon="-4.39153">
        <ele>49.16</ele>
        <time>2017-05-26T15:09:37Z</time>
      </trkpt>
      <trkpt lat="48.10438" lon="-4.39152">
        <ele>49.16</ele>
        <time>2017-05-26T15:09:39Z</time>
      </trkpt>
      <trkpt lat="48.10441" lon="-4.39142">
        <ele>48.2</ele>
        <time>2017-05-26T15:09:45Z</time>
      </trkpt>
      <trkpt lat="48.10445" lon="-4.39128">
        <ele>48.68</ele>
        <time>2017-05-26T15:09:58Z</time>
      </trkpt>
      <trkpt lat="48.10451" lon="-4.39116">
        <ele>43.4</ele>
        <time>2017-05-26T15:10:14Z</time>
      </trkpt>
      <trkpt lat="48.10456" lon="-4.39104">
        <ele>37.15</ele>
        <time>2017-05-26T15:10:26Z</time>
      </trkpt>
      <trkpt lat="48.10457" lon="-4.39102">
        <ele>36.19</ele>
        <time>2017-05-26T15:10:28Z</time>
      </trkpt>
      <trkpt lat="48.10461" lon="-4.39097">
        <ele>34.74</ele>
        <time>2017-05-26T15:10:34Z</time>
      </trkpt>
      <trkpt lat="48.10458" lon="-4.39083">
        <ele>29.94</ele>
        <time>2017-05-26T15:10:50Z</time>
      </trkpt>
      <trkpt lat="48.10456" lon="-4.39077">
        <ele>28.98</ele>
        <time>2017-05-26T15:11:05Z</time>
      </trkpt>
      <trkpt lat="48.10453" lon="-4.39068">
        <ele>27.53</ele>
        <time>2017-05-26T15:11:16Z</time>
      </trkpt>
      <trkpt lat="48.1045" lon="-4.39063">
        <ele>26.57</ele>
        <time>2017-05-26T15:11:25Z</time>
      </trkpt>
      <trkpt lat="48.10448" lon="-4.39059">
        <ele>26.09</ele>
        <time>2017-05-26T15:11:29Z</time>
      </trkpt>
      <trkpt lat="48.10448" lon="-4.39055">
        <ele>25.61</ele>
        <time>2017-05-26T15:11:31Z</time>
      </trkpt>
      <trkpt lat="48.10447" lon="-4.39051">
        <ele>23.69</ele>
        <time>2017-05-26T15:11:35Z</time>
      </trkpt>
      <trkpt lat="48.10446" lon="-4.39041">
        <ele>20.32</ele>
        <time>2017-05-26T15:11:42Z</time>
      </trkpt>
      <trkpt lat="48.10441" lon="-4.39032">
        <ele>20.81</ele>
        <time>2017-05-26T15:11:51Z</time>
      </trkpt>
      <trkpt lat="48.10439" lon="-4.39026">
        <ele>19.84</ele>
        <time>2017-05-26T15:12:00Z</time>
      </trkpt>
      <trkpt lat="48.10441" lon="-4.39016">
        <ele>18.4</ele>
        <time>2017-05-26T15:12:11Z</time>
      </trkpt>
      <trkpt lat="48.10443" lon="-4.39007">
        <ele>17.92</ele>
        <time>2017-05-26T15:12:17Z</time>
      </trkpt>
      <trkpt lat="48.10446" lon="-4.38988">
        <ele>22.73</ele>
        <time>2017-05-26T15:12:31Z</time>
      </trkpt>
      <trkpt lat="48.10448" lon="-4.38971">
        <ele>27.05</ele>
        <time>2017-05-26T15:12:46Z</time>
      </trkpt>
      <trkpt lat="48.10451" lon="-4.38949">
        <ele>27.53</ele>
        <time>2017-05-26T15:13:01Z</time>
      </trkpt>
      <trkpt lat="48.10456" lon="-4.38929">
        <ele>26.09</ele>
        <time>2017-05-26T15:13:14Z</time>
      </trkpt>
      <trkpt lat="48.10458" lon="-4.38925">
        <ele>25.61</ele>
        <time>2017-05-26T15:13:17Z</time>
      </trkpt>
      <trkpt lat="48.10463" lon="-4.3891">
        <ele>25.13</ele>
        <time>2017-05-26T15:13:29Z</time>
      </trkpt>
      <trkpt lat="48.10466" lon="-4.38907">
        <ele>24.65</ele>
        <time>2017-05-26T15:13:32Z</time>
      </trkpt>
      <trkpt lat="48.10468" lon="-4.38898">
        <ele>24.17</ele>
        <time>2017-05-26T15:13:37Z</time>
      </trkpt>
      <trkpt lat="48.1047" lon="-4.38891">
        <ele>23.21</ele>
        <time>2017-05-26T15:13:42Z</time>
      </trkpt>
      <trkpt lat="48.10473" lon="-4.38874">
        <ele>22.73</ele>
        <time>2017-05-26T15:13:51Z</time>
      </trkpt>
      <trkpt lat="48.10473" lon="-4.38873">
        <ele>22.73</ele>
        <time>2017-05-26T15:13:52Z</time>
      </trkpt>
      <trkpt lat="48.10477" lon="-4.38859">
        <ele>21.77</ele>
        <time>2017-05-26T15:14:01Z</time>
      </trkpt>
      <trkpt lat="48.1048" lon="-4.38855">
        <ele>21.29</ele>
        <time>2017-05-26T15:14:04Z</time>
      </trkpt>
      <trkpt lat="48.10479" lon="-4.3883">
        <ele>21.77</ele>
        <time>2017-05-26T15:14:19Z</time>
      </trkpt>
      <trkpt lat="48.10479" lon="-4.38826">
        <ele>21.77</ele>
        <time>2017-05-26T15:14:22Z</time>
      </trkpt>
      <trkpt lat="48.10478" lon="-4.38801">
        <ele>24.65</ele>
        <time>2017-05-26T15:14:36Z</time>
      </trkpt>
      <trkpt lat="48.10478" lon="-4.38795">
        <ele>24.65</ele>
        <time>2017-05-26T15:14:42Z</time>
      </trkpt>
      <trkpt lat="48.10482" lon="-4.38782">
        <ele>24.65</ele>
        <time>2017-05-26T15:14:55Z</time>
      </trkpt>
      <trkpt lat="48.10482" lon="-4.38776">
        <ele>24.17</ele>
        <time>2017-05-26T15:15:01Z</time>
      </trkpt>
      <trkpt lat="48.10483" lon="-4.38768">
        <ele>24.17</ele>
        <time>2017-05-26T15:15:06Z</time>
      </trkpt>
      <trkpt lat="48.1048" lon="-4.38753">
        <ele>26.09</ele>
        <time>2017-05-26T15:15:20Z</time>
      </trkpt>
      <trkpt lat="48.1048" lon="-4.38741">
        <ele>29.46</ele>
        <time>2017-05-26T15:15:33Z</time>
      </trkpt>
      <trkpt lat="48.10481" lon="-4.38736">
        <ele>30.42</ele>
        <time>2017-05-26T15:15:37Z</time>
      </trkpt>
      <trkpt lat="48.10485" lon="-4.38725">
        <ele>31.86</ele>
        <time>2017-05-26T15:15:53Z</time>
      </trkpt>
      <trkpt lat="48.10485" lon="-4.38718">
        <ele>32.82</ele>
        <time>2017-05-26T15:16:11Z</time>
      </trkpt>
      <trkpt lat="48.10488" lon="-4.38708">
        <ele>33.3</ele>
        <time>2017-05-26T15:16:30Z</time>
      </trkpt>
      <trkpt lat="48.10489" lon="-4.38707">
        <ele>33.3</ele>
        <time>2017-05-26T15:16:33Z</time>
      </trkpt>
      <trkpt lat="48.10491" lon="-4.38707">
        <ele>33.78</ele>
        <time>2017-05-26T15:16:35Z</time>
      </trkpt>
      <trkpt lat="48.10493" lon="-4.38702">
        <ele>34.26</ele>
        <time>2017-05-26T15:16:39Z</time>
      </trkpt>
      <trkpt lat="48.10506" lon="-4.38688">
        <ele>36.67</ele>
        <time>2017-05-26T15:16:52Z</time>
      </trkpt>
      <trkpt lat="48.10519" lon="-4.38675">
        <ele>38.11</ele>
        <time>2017-05-26T15:17:08Z</time>
      </trkpt>
      <trkpt lat="48.10521" lon="-4.38673">
        <ele>38.59</ele>
        <time>2017-05-26T15:17:11Z</time>
      </trkpt>
      <trkpt lat="48.10522" lon="-4.38668">
        <ele>38.59</ele>
        <time>2017-05-26T15:17:15Z</time>
      </trkpt>
      <trkpt lat="48.10522" lon="-4.38653">
        <ele>38.11</ele>
        <time>2017-05-26T15:17:27Z</time>
      </trkpt>
      <trkpt lat="48.10512" lon="-4.38629">
        <ele>39.55</ele>
        <time>2017-05-26T15:17:43Z</time>
      </trkpt>
      <trkpt lat="48.1051" lon="-4.38628">
        <ele>40.03</ele>
        <time>2017-05-26T15:17:45Z</time>
      </trkpt>
      <trkpt lat="48.10501" lon="-4.38612">
        <ele>41.47</ele>
        <time>2017-05-26T15:17:58Z</time>
      </trkpt>
      <trkpt lat="48.10503" lon="-4.38603">
        <ele>41.47</ele>
        <time>2017-05-26T15:18:03Z</time>
      </trkpt>
      <trkpt lat="48.10506" lon="-4.38586">
        <ele>39.55</ele>
        <time>2017-05-26T15:18:12Z</time>
      </trkpt>
      <trkpt lat="48.10509" lon="-4.38574">
        <ele>38.59</ele>
        <time>2017-05-26T15:18:19Z</time>
      </trkpt>
      <trkpt lat="48.10511" lon="-4.38569">
        <ele>38.11</ele>
        <time>2017-05-26T15:18:22Z</time>
      </trkpt>
      <trkpt lat="48.10514" lon="-4.38558">
        <ele>37.63</ele>
        <time>2017-05-26T15:18:28Z</time>
      </trkpt>
      <trkpt lat="48.10515" lon="-4.38551">
        <ele>37.63</ele>
        <time>2017-05-26T15:18:33Z</time>
      </trkpt>
      <trkpt lat="48.10517" lon="-4.38542">
        <ele>37.63</ele>
        <time>2017-05-26T15:18:37Z</time>
      </trkpt>
      <trkpt lat="48.10522" lon="-4.38525">
        <ele>38.11</ele>
        <time>2017-05-26T15:18:48Z</time>
      </trkpt>
      <trkpt lat="48.10527" lon="-4.38507">
        <ele>37.63</ele>
        <time>2017-05-26T15:18:57Z</time>
      </trkpt>
      <trkpt lat="48.10527" lon="-4.38504">
        <ele>38.11</ele>
        <time>2017-05-26T15:18:59Z</time>
      </trkpt>
      <trkpt lat="48.10535" lon="-4.3848">
        <ele>38.11</ele>
        <time>2017-05-26T15:19:13Z</time>
      </trkpt>
      <trkpt lat="48.1054" lon="-4.38463">
        <ele>37.63</ele>
        <time>2017-05-26T15:19:24Z</time>
      </trkpt>
      <trkpt lat="48.10548" lon="-4.38444">
        <ele>39.07</ele>
        <time>2017-05-26T15:19:38Z</time>
      </trkpt>
      <trkpt lat="48.10551" lon="-4.38436">
        <ele>40.51</ele>
        <time>2017-05-26T15:19:44Z</time>
      </trkpt>
      <trkpt lat="48.10555" lon="-4.3842">
        <ele>42.92</ele>
        <time>2017-05-26T15:19:58Z</time>
      </trkpt>
      <trkpt lat="48.10554" lon="-4.38409">
        <ele>44.36</ele>
        <time>2017-05-26T15:20:05Z</time>
      </trkpt>
      <trkpt lat="48.10552" lon="-4.38391">
        <ele>47.24</ele>
        <time>2017-05-26T15:20:13Z</time>
      </trkpt>
      <trkpt lat="48.10556" lon="-4.38378">
        <ele>47.24</ele>
        <time>2017-05-26T15:20:20Z</time>
      </trkpt>
      <trkpt lat="48.10559" lon="-4.38373">
        <ele>46.76</ele>
        <time>2017-05-26T15:20:24Z</time>
      </trkpt>
      <trkpt lat="48.10563" lon="-4.38356">
        <ele>45.8</ele>
        <time>2017-05-26T15:20:38Z</time>
      </trkpt>
      <trkpt lat="48.10567" lon="-4.38349">
        <ele>45.8</ele>
        <time>2017-05-26T15:20:43Z</time>
      </trkpt>
      <trkpt lat="48.10569" lon="-4.3834">
        <ele>45.32</ele>
        <time>2017-05-26T15:20:52Z</time>
      </trkpt>
      <trkpt lat="48.10564" lon="-4.38329">
        <ele>44.84</ele>
        <time>2017-05-26T15:21:05Z</time>
      </trkpt>
      <trkpt lat="48.10565" lon="-4.38324">
        <ele>43.88</ele>
        <time>2017-05-26T15:21:20Z</time>
      </trkpt>
      <trkpt lat="48.10566" lon="-4.38314">
        <ele>42.92</ele>
        <time>2017-05-26T15:21:28Z</time>
      </trkpt>
      <trkpt lat="48.10567" lon="-4.38301">
        <ele>40.51</ele>
        <time>2017-05-26T15:21:40Z</time>
      </trkpt>
      <trkpt lat="48.10572" lon="-4.3828">
        <ele>37.63</ele>
        <time>2017-05-26T15:21:54Z</time>
      </trkpt>
      <trkpt lat="48.1058" lon="-4.38266">
        <ele>37.63</ele>
        <time>2017-05-26T15:22:05Z</time>
      </trkpt>
      <trkpt lat="48.10589" lon="-4.3826">
        <ele>37.15</ele>
        <time>2017-05-26T15:22:11Z</time>
      </trkpt>
      <trkpt lat="48.10604" lon="-4.38241">
        <ele>35.23</ele>
        <time>2017-05-26T15:22:27Z</time>
      </trkpt>
      <trkpt lat="48.10604" lon="-4.3824">
        <ele>35.23</ele>
        <time>2017-05-26T15:22:28Z</time>
      </trkpt>
      <trkpt lat="48.10607" lon="-4.38231">
        <ele>34.74</ele>
        <time>2017-05-26T15:22:33Z</time>
      </trkpt>
      <trkpt lat="48.10609" lon="-4.38228">
        <ele>34.74</ele>
        <time>2017-05-26T15:22:36Z</time>
      </trkpt>
      <trkpt lat="48.10618" lon="-4.38215">
        <ele>32.82</ele>
        <time>2017-05-26T15:22:48Z</time>
      </trkpt>
      <trkpt lat="48.10625" lon="-4.382">
        <ele>30.42</ele>
        <time>2017-05-26T15:22:56Z</time>
      </trkpt>
      <trkpt lat="48.10629" lon="-4.38194">
        <ele>29.94</ele>
        <time>2017-05-26T15:23:00Z</time>
      </trkpt>
      <trkpt lat="48.10643" lon="-4.38168">
        <ele>29.46</ele>
        <time>2017-05-26T15:23:15Z</time>
      </trkpt>
      <trkpt lat="48.10643" lon="-4.38166">
        <ele>28.98</ele>
        <time>2017-05-26T15:23:16Z</time>
      </trkpt>
      <trkpt lat="48.10644" lon="-4.38164">
        <ele>28.5</ele>
        <time>2017-05-26T15:23:18Z</time>
      </trkpt>
      <trkpt lat="48.10653" lon="-4.38149">
        <ele>27.05</ele>
        <time>2017-05-26T15:23:27Z</time>
      </trkpt>
      <trkpt lat="48.10655" lon="-4.38145">
        <ele>27.05</ele>
        <time>2017-05-26T15:23:29Z</time>
      </trkpt>
      <trkpt lat="48.10669" lon="-4.38126">
        <ele>26.09</ele>
        <time>2017-05-26T15:23:45Z</time>
      </trkpt>
      <trkpt lat="48.1067" lon="-4.38125">
        <ele>26.57</ele>
        <time>2017-05-26T15:23:46Z</time>
      </trkpt>
      <trkpt lat="48.10676" lon="-4.38119">
        <ele>26.09</ele>
        <time>2017-05-26T15:23:53Z</time>
      </trkpt>
      <trkpt lat="48.10689" lon="-4.38106">
        <ele>25.61</ele>
        <time>2017-05-26T15:24:06Z</time>
      </trkpt>
      <trkpt lat="48.10691" lon="-4.38102">
        <ele>25.61</ele>
        <time>2017-05-26T15:24:10Z</time>
      </trkpt>
      <trkpt lat="48.10702" lon="-4.38085">
        <ele>24.17</ele>
        <time>2017-05-26T15:24:23Z</time>
      </trkpt>
      <trkpt lat="48.10712" lon="-4.38065">
        <ele>22.73</ele>
        <time>2017-05-26T15:24:36Z</time>
      </trkpt>
      <trkpt lat="48.10714" lon="-4.3806">
        <ele>22.25</ele>
        <time>2017-05-26T15:24:40Z</time>
      </trkpt>
      <trkpt lat="48.10712" lon="-4.38045">
        <ele>23.21</ele>
        <time>2017-05-26T15:24:54Z</time>
      </trkpt>
      <trkpt lat="48.10714" lon="-4.38037">
        <ele>25.13</ele>
        <time>2017-05-26T15:25:01Z</time>
      </trkpt>
      <trkpt lat="48.10717" lon="-4.38026">
        <ele>27.53</ele>
        <time>2017-05-26T15:25:12Z</time>
      </trkpt>
      <trkpt lat="48.1072" lon="-4.38021">
        <ele>28.5</ele>
        <time>2017-05-26T15:25:16Z</time>
      </trkpt>
      <trkpt lat="48.10732" lon="-4.38001">
        <ele>31.38</ele>
        <time>2017-05-26T15:25:29Z</time>
      </trkpt>
      <trkpt lat="48.1074" lon="-4.37992">
        <ele>31.86</ele>
        <time>2017-05-26T15:25:38Z</time>
      </trkpt>
      <trkpt lat="48.10748" lon="-4.37978">
        <ele>30.42</ele>
        <time>2017-05-26T15:25:49Z</time>
      </trkpt>
      <trkpt lat="48.10755" lon="-4.3796">
        <ele>29.46</ele>
        <time>2017-05-26T15:25:58Z</time>
      </trkpt>
      <trkpt lat="48.10756" lon="-4.37942">
        <ele>31.86</ele>
        <time>2017-05-26T15:26:08Z</time>
      </trkpt>
      <trkpt lat="48.10753" lon="-4.37921">
        <ele>34.74</ele>
        <time>2017-05-26T15:26:23Z</time>
      </trkpt>
      <trkpt lat="48.10749" lon="-4.37907">
        <ele>36.19</ele>
        <time>2017-05-26T15:26:37Z</time>
      </trkpt>
      <trkpt lat="48.10746" lon="-4.37901">
        <ele>37.15</ele>
        <time>2017-05-26T15:26:53Z</time>
      </trkpt>
      <trkpt lat="48.10743" lon="-4.37895">
        <ele>39.07</ele>
        <time>2017-05-26T15:27:08Z</time>
      </trkpt>
      <trkpt lat="48.1074" lon="-4.37887">
        <ele>41.95</ele>
        <time>2017-05-26T15:27:23Z</time>
      </trkpt>
      <trkpt lat="48.10741" lon="-4.37886">
        <ele>42.44</ele>
        <time>2017-05-26T15:27:43Z</time>
      </trkpt>
      <trkpt lat="48.10741" lon="-4.37886">
        <ele>42.92</ele>
        <time>2017-05-26T15:28:13Z</time>
      </trkpt>
      <trkpt lat="48.10741" lon="-4.37885">
        <ele>42.44</ele>
        <time>2017-05-26T15:28:42Z</time>
      </trkpt>
      <trkpt lat="48.10741" lon="-4.37885">
        <ele>43.4</ele>
        <time>2017-05-26T15:29:00Z</time>
      </trkpt>
      <trkpt lat="48.1074" lon="-4.37884">
        <ele>43.88</ele>
        <time>2017-05-26T15:29:31Z</time>
      </trkpt>
      <trkpt lat="48.1074" lon="-4.37882">
        <ele>43.88</ele>
        <time>2017-05-26T15:29:51Z</time>
      </trkpt>
      <trkpt lat="48.10729" lon="-4.37874">
        <ele>41.47</ele>
        <time>2017-05-26T15:30:05Z</time>
      </trkpt>
      <trkpt lat="48.10721" lon="-4.37859">
        <ele>40.99</ele>
        <time>2017-05-26T15:30:20Z</time>
      </trkpt>
      <trkpt lat="48.10727" lon="-4.37848">
        <ele>40.99</ele>
        <time>2017-05-26T15:30:34Z</time>
      </trkpt>
      <trkpt lat="48.10732" lon="-4.37844">
        <ele>41.95</ele>
        <time>2017-05-26T15:30:43Z</time>
      </trkpt>
      <trkpt lat="48.10734" lon="-4.37842">
        <ele>41.95</ele>
        <time>2017-05-26T15:30:46Z</time>
      </trkpt>
      <trkpt lat="48.10739" lon="-4.37827">
        <ele>44.84</ele>
        <time>2017-05-26T15:31:01Z</time>
      </trkpt>
      <trkpt lat="48.10741" lon="-4.37823">
        <ele>46.28</ele>
        <time>2017-05-26T15:31:08Z</time>
      </trkpt>
      <trkpt lat="48.10751" lon="-4.37812">
        <ele>47.24</ele>
        <time>2017-05-26T15:31:21Z</time>
      </trkpt>
      <trkpt lat="48.10757" lon="-4.37803">
        <ele>48.2</ele>
        <time>2017-05-26T15:31:35Z</time>
      </trkpt>
      <trkpt lat="48.10759" lon="-4.37802">
        <ele>49.16</ele>
        <time>2017-05-26T15:31:38Z</time>
      </trkpt>
      <trkpt lat="48.10764" lon="-4.37799">
        <ele>50.13</ele>
        <time>2017-05-26T15:31:51Z</time>
      </trkpt>
      <trkpt lat="48.10771" lon="-4.37796">
        <ele>47.24</ele>
        <time>2017-05-26T15:32:03Z</time>
      </trkpt>
      <trkpt lat="48.10775" lon="-4.37779">
        <ele>45.8</ele>
        <time>2017-05-26T15:32:17Z</time>
      </trkpt>
      <trkpt lat="48.10775" lon="-4.37769">
        <ele>44.84</ele>
        <time>2017-05-26T15:32:24Z</time>
      </trkpt>
      <trkpt lat="48.10775" lon="-4.37753">
        <ele>45.32</ele>
        <time>2017-05-26T15:32:33Z</time>
      </trkpt>
      <trkpt lat="48.10776" lon="-4.37749">
        <ele>45.32</ele>
        <time>2017-05-26T15:32:35Z</time>
      </trkpt>
      <trkpt lat="48.10783" lon="-4.37734">
        <ele>43.4</ele>
        <time>2017-05-26T15:32:50Z</time>
      </trkpt>
      <trkpt lat="48.10788" lon="-4.37733">
        <ele>42.92</ele>
        <time>2017-05-26T15:33:01Z</time>
      </trkpt>
      <trkpt lat="48.10794" lon="-4.37702">
        <ele>40.51</ele>
        <time>2017-05-26T15:33:18Z</time>
      </trkpt>
      <trkpt lat="48.10803" lon="-4.37682">
        <ele>39.07</ele>
        <time>2017-05-26T15:33:31Z</time>
      </trkpt>
      <trkpt lat="48.10805" lon="-4.37677">
        <ele>38.59</ele>
        <time>2017-05-26T15:33:35Z</time>
      </trkpt>
      <trkpt lat="48.10807" lon="-4.37669">
        <ele>38.11</ele>
        <time>2017-05-26T15:33:40Z</time>
      </trkpt>
      <trkpt lat="48.10807" lon="-4.37656">
        <ele>37.15</ele>
        <time>2017-05-26T15:33:48Z</time>
      </trkpt>
      <trkpt lat="48.10806" lon="-4.37653">
        <ele>37.15</ele>
        <time>2017-05-26T15:33:50Z</time>
      </trkpt>
      <trkpt lat="48.10806" lon="-4.37645">
        <ele>36.67</ele>
        <time>2017-05-26T15:33:55Z</time>
      </trkpt>
      <trkpt lat="48.10804" lon="-4.37625">
        <ele>36.67</ele>
        <time>2017-05-26T15:34:05Z</time>
      </trkpt>
      <trkpt lat="48.10806" lon="-4.37602">
        <ele>37.15</ele>
        <time>2017-05-26T15:34:17Z</time>
      </trkpt>
      <trkpt lat="48.10809" lon="-4.37569">
        <ele>40.03</ele>
        <time>2017-05-26T15:34:36Z</time>
      </trkpt>
      <trkpt lat="48.10809" lon="-4.37563">
        <ele>40.51</ele>
        <time>2017-05-26T15:34:40Z</time>
      </trkpt>
      <trkpt lat="48.10815" lon="-4.37552">
        <ele>40.51</ele>
        <time>2017-05-26T15:34:46Z</time>
      </trkpt>
      <trkpt lat="48.10821" lon="-4.37544">
        <ele>40.99</ele>
        <time>2017-05-26T15:34:55Z</time>
      </trkpt>
      <trkpt lat="48.10829" lon="-4.37528">
        <ele>40.03</ele>
        <time>2017-05-26T15:35:09Z</time>
      </trkpt>
      <trkpt lat="48.10836" lon="-4.37521">
        <ele>36.67</ele>
        <time>2017-05-26T15:35:21Z</time>
      </trkpt>
      <trkpt lat="48.10842" lon="-4.37513">
        <ele>31.38</ele>
        <time>2017-05-26T15:35:38Z</time>
      </trkpt>
      <trkpt lat="48.10851" lon="-4.37508">
        <ele>25.61</ele>
        <time>2017-05-26T15:35:53Z</time>
      </trkpt>
      <trkpt lat="48.10855" lon="-4.37508">
        <ele>24.17</ele>
        <time>2017-05-26T15:36:00Z</time>
      </trkpt>
      <trkpt lat="48.10865" lon="-4.375">
        <ele>21.29</ele>
        <time>2017-05-26T15:36:15Z</time>
      </trkpt>
      <trkpt lat="48.10879" lon="-4.37488">
        <ele>21.77</ele>
        <time>2017-05-26T15:36:29Z</time>
      </trkpt>
      <trkpt lat="48.10885" lon="-4.3748">
        <ele>22.25</ele>
        <time>2017-05-26T15:36:37Z</time>
      </trkpt>
      <trkpt lat="48.109" lon="-4.37473">
        <ele>22.25</ele>
        <time>2017-05-26T15:36:50Z</time>
      </trkpt>
      <trkpt lat="48.10915" lon="-4.37474">
        <ele>23.21</ele>
        <time>2017-05-26T15:37:07Z</time>
      </trkpt>
      <trkpt lat="48.10925" lon="-4.37467">
        <ele>25.61</ele>
        <time>2017-05-26T15:37:24Z</time>
      </trkpt>
      <trkpt lat="48.10933" lon="-4.37469">
        <ele>28.98</ele>
        <time>2017-05-26T15:37:43Z</time>
      </trkpt>
      <trkpt lat="48.10938" lon="-4.37469">
        <ele>30.9</ele>
        <time>2017-05-26T15:37:56Z</time>
      </trkpt>
      <trkpt lat="48.10949" lon="-4.3747">
        <ele>35.23</ele>
        <time>2017-05-26T15:38:12Z</time>
      </trkpt>
      <trkpt lat="48.10956" lon="-4.37462">
        <ele>36.19</ele>
        <time>2017-05-26T15:38:28Z</time>
      </trkpt>
      <trkpt lat="48.10957" lon="-4.37461">
        <ele>36.19</ele>
        <time>2017-05-26T15:38:29Z</time>
      </trkpt>
      <trkpt lat="48.10958" lon="-4.37445">
        <ele>37.15</ele>
        <time>2017-05-26T15:38:40Z</time>
      </trkpt>
      <trkpt lat="48.10964" lon="-4.37436">
        <ele>37.15</ele>
        <time>2017-05-26T15:38:48Z</time>
      </trkpt>
      <trkpt lat="48.10969" lon="-4.37427">
        <ele>35.23</ele>
        <time>2017-05-26T15:38:56Z</time>
      </trkpt>
      <trkpt lat="48.10974" lon="-4.37402">
        <ele>34.26</ele>
        <time>2017-05-26T15:39:10Z</time>
      </trkpt>
      <trkpt lat="48.10969" lon="-4.37379">
        <ele>37.15</ele>
        <time>2017-05-26T15:39:27Z</time>
      </trkpt>
      <trkpt lat="48.10968" lon="-4.37376">
        <ele>37.15</ele>
        <time>2017-05-26T15:39:29Z</time>
      </trkpt>
      <trkpt lat="48.10968" lon="-4.37369">
        <ele>38.11</ele>
        <time>2017-05-26T15:39:34Z</time>
      </trkpt>
      <trkpt lat="48.10972" lon="-4.37363">
        <ele>38.59</ele>
        <time>2017-05-26T15:39:38Z</time>
      </trkpt>
      <trkpt lat="48.10978" lon="-4.37349">
        <ele>38.11</ele>
        <time>2017-05-26T15:39:49Z</time>
      </trkpt>
      <trkpt lat="48.10983" lon="-4.37351">
        <ele>37.63</ele>
        <time>2017-05-26T15:39:57Z</time>
      </trkpt>
      <trkpt lat="48.10993" lon="-4.3734">
        <ele>35.71</ele>
        <time>2017-05-26T15:40:10Z</time>
      </trkpt>
      <trkpt lat="48.10992" lon="-4.3732">
        <ele>34.74</ele>
        <time>2017-05-26T15:40:22Z</time>
      </trkpt>
      <trkpt lat="48.10994" lon="-4.37317">
        <ele>34.74</ele>
        <time>2017-05-26T15:40:25Z</time>
      </trkpt>
      <trkpt lat="48.10995" lon="-4.37308">
        <ele>34.74</ele>
        <time>2017-05-26T15:40:29Z</time>
      </trkpt>
      <trkpt lat="48.10991" lon="-4.37286">
        <ele>35.71</ele>
        <time>2017-05-26T15:40:42Z</time>
      </trkpt>
      <trkpt lat="48.10994" lon="-4.37281">
        <ele>35.23</ele>
        <time>2017-05-26T15:40:46Z</time>
      </trkpt>
      <trkpt lat="48.11" lon="-4.37262">
        <ele>34.74</ele>
        <time>2017-05-26T15:40:59Z</time>
      </trkpt>
      <trkpt lat="48.11001" lon="-4.37261">
        <ele>34.74</ele>
        <time>2017-05-26T15:41:00Z</time>
      </trkpt>
      <trkpt lat="48.10995" lon="-4.37241">
        <ele>33.78</ele>
        <time>2017-05-26T15:41:17Z</time>
      </trkpt>
      <trkpt lat="48.10992" lon="-4.37235">
        <ele>33.3</ele>
        <time>2017-05-26T15:41:31Z</time>
      </trkpt>
      <trkpt lat="48.1099" lon="-4.37224">
        <ele>33.78</ele>
        <time>2017-05-26T15:41:37Z</time>
      </trkpt>
      <trkpt lat="48.10992" lon="-4.37218">
        <ele>32.34</ele>
        <time>2017-05-26T15:41:53Z</time>
      </trkpt>
      <trkpt lat="48.10991" lon="-4.37214">
        <ele>30.9</ele>
        <time>2017-05-26T15:42:06Z</time>
      </trkpt>
      <trkpt lat="48.10989" lon="-4.37209">
        <ele>29.46</ele>
        <time>2017-05-26T15:42:13Z</time>
      </trkpt>
      <trkpt lat="48.10986" lon="-4.37198">
        <ele>28.02</ele>
        <time>2017-05-26T15:42:18Z</time>
      </trkpt>
      <trkpt lat="48.10985" lon="-4.37193">
        <ele>27.53</ele>
        <time>2017-05-26T15:42:20Z</time>
      </trkpt>
      <trkpt lat="48.10979" lon="-4.37174">
        <ele>28.02</ele>
        <time>2017-05-26T15:42:28Z</time>
      </trkpt>
      <trkpt lat="48.10977" lon="-4.37147">
        <ele>30.42</ele>
        <time>2017-05-26T15:42:44Z</time>
      </trkpt>
      <trkpt lat="48.10975" lon="-4.37138">
        <ele>32.34</ele>
        <time>2017-05-26T15:42:53Z</time>
      </trkpt>
      <trkpt lat="48.10982" lon="-4.37117">
        <ele>30.9</ele>
        <time>2017-05-26T15:43:07Z</time>
      </trkpt>
      <trkpt lat="48.10983" lon="-4.37108">
        <ele>29.94</ele>
        <time>2017-05-26T15:43:17Z</time>
      </trkpt>
      <trkpt lat="48.10983" lon="-4.37102">
        <ele>29.46</ele>
        <time>2017-05-26T15:43:21Z</time>
      </trkpt>
      <trkpt lat="48.10984" lon="-4.37076">
        <ele>28.5</ele>
        <time>2017-05-26T15:43:35Z</time>
      </trkpt>
      <trkpt lat="48.10984" lon="-4.37072">
        <ele>28.5</ele>
        <time>2017-05-26T15:43:40Z</time>
      </trkpt>
      <trkpt lat="48.10981" lon="-4.37074">
        <ele>28.5</ele>
        <time>2017-05-26T15:43:54Z</time>
      </trkpt>
      <trkpt lat="48.1098" lon="-4.3707">
        <ele>28.98</ele>
        <time>2017-05-26T15:43:58Z</time>
      </trkpt>
      <trkpt lat="48.10971" lon="-4.37059">
        <ele>28.5</ele>
        <time>2017-05-26T15:44:16Z</time>
      </trkpt>
      <trkpt lat="48.10965" lon="-4.37045">
        <ele>28.5</ele>
        <time>2017-05-26T15:44:27Z</time>
      </trkpt>
      <trkpt lat="48.1096" lon="-4.37033">
        <ele>29.46</ele>
        <time>2017-05-26T15:44:39Z</time>
      </trkpt>
      <trkpt lat="48.10945" lon="-4.37005">
        <ele>31.86</ele>
        <time>2017-05-26T15:45:00Z</time>
      </trkpt>
      <trkpt lat="48.10935" lon="-4.36989">
        <ele>35.71</ele>
        <time>2017-05-26T15:45:13Z</time>
      </trkpt>
      <trkpt lat="48.10933" lon="-4.36979">
        <ele>37.15</ele>
        <time>2017-05-26T15:45:19Z</time>
      </trkpt>
      <trkpt lat="48.10934" lon="-4.36976">
        <ele>36.67</ele>
        <time>2017-05-26T15:45:21Z</time>
      </trkpt>
      <trkpt lat="48.10938" lon="-4.36951">
        <ele>37.15</ele>
        <time>2017-05-26T15:45:35Z</time>
      </trkpt>
      <trkpt lat="48.10943" lon="-4.36928">
        <ele>36.67</ele>
        <time>2017-05-26T15:45:51Z</time>
      </trkpt>
      <trkpt lat="48.10946" lon="-4.36924">
        <ele>35.23</ele>
        <time>2017-05-26T15:46:06Z</time>
      </trkpt>
      <trkpt lat="48.10957" lon="-4.36921">
        <ele>32.82</ele>
        <time>2017-05-26T15:46:22Z</time>
      </trkpt>
      <trkpt lat="48.10962" lon="-4.36918">
        <ele>29.46</ele>
        <time>2017-05-26T15:46:33Z</time>
      </trkpt>
      <trkpt lat="48.10961" lon="-4.36898">
        <ele>23.21</ele>
        <time>2017-05-26T15:46:46Z</time>
      </trkpt>
      <trkpt lat="48.10961" lon="-4.36872">
        <ele>20.32</ele>
        <time>2017-05-26T15:47:03Z</time>
      </trkpt>
      <trkpt lat="48.10961" lon="-4.3687">
        <ele>20.32</ele>
        <time>2017-05-26T15:47:04Z</time>
      </trkpt>
      <trkpt lat="48.10964" lon="-4.3686">
        <ele>19.36</ele>
        <time>2017-05-26T15:47:11Z</time>
      </trkpt>
      <trkpt lat="48.10964" lon="-4.36848">
        <ele>17.92</ele>
        <time>2017-05-26T15:47:19Z</time>
      </trkpt>
      <trkpt lat="48.10954" lon="-4.36827">
        <ele>17.92</ele>
        <time>2017-05-26T15:47:38Z</time>
      </trkpt>
      <trkpt lat="48.10944" lon="-4.36797">
        <ele>16.96</ele>
        <time>2017-05-26T15:47:58Z</time>
      </trkpt>
      <trkpt lat="48.10941" lon="-4.36787">
        <ele>16.48</ele>
        <time>2017-05-26T15:48:05Z</time>
      </trkpt>
      <trkpt lat="48.10941" lon="-4.36766">
        <ele>15.04</ele>
        <time>2017-05-26T15:48:21Z</time>
      </trkpt>
      <trkpt lat="48.10943" lon="-4.36747">
        <ele>14.08</ele>
        <time>2017-05-26T15:48:34Z</time>
      </trkpt>
      <trkpt lat="48.10937" lon="-4.36721">
        <ele>16.48</ele>
        <time>2017-05-26T15:48:50Z</time>
      </trkpt>
      <trkpt lat="48.10928" lon="-4.36697">
        <ele>18.4</ele>
        <time>2017-05-26T15:49:05Z</time>
      </trkpt>
      <trkpt lat="48.10922" lon="-4.36671">
        <ele>18.4</ele>
        <time>2017-05-26T15:49:22Z</time>
      </trkpt>
      <trkpt lat="48.10912" lon="-4.36644">
        <ele>19.84</ele>
        <time>2017-05-26T15:49:38Z</time>
      </trkpt>
      <trkpt lat="48.10898" lon="-4.36616">
        <ele>20.32</ele>
        <time>2017-05-26T15:49:59Z</time>
      </trkpt>
      <trkpt lat="48.10896" lon="-4.36603">
        <ele>20.32</ele>
        <time>2017-05-26T15:50:06Z</time>
      </trkpt>
      <trkpt lat="48.10897" lon="-4.36598">
        <ele>21.29</ele>
        <time>2017-05-26T15:50:09Z</time>
      </trkpt>
      <trkpt lat="48.10891" lon="-4.36571">
        <ele>20.32</ele>
        <time>2017-05-26T15:50:25Z</time>
      </trkpt>
      <trkpt lat="48.10887" lon="-4.36565">
        <ele>20.81</ele>
        <time>2017-05-26T15:50:30Z</time>
      </trkpt>
      <trkpt lat="48.10877" lon="-4.36549">
        <ele>21.77</ele>
        <time>2017-05-26T15:50:48Z</time>
      </trkpt>
      <trkpt lat="48.10878" lon="-4.36542">
        <ele>22.25</ele>
        <time>2017-05-26T15:50:52Z</time>
      </trkpt>
      <trkpt lat="48.10879" lon="-4.36534">
        <ele>22.73</ele>
        <time>2017-05-26T15:50:56Z</time>
      </trkpt>
      <trkpt lat="48.10878" lon="-4.36527">
        <ele>22.73</ele>
        <time>2017-05-26T15:50:59Z</time>
      </trkpt>
      <trkpt lat="48.10878" lon="-4.36523">
        <ele>22.73</ele>
        <time>2017-05-26T15:51:01Z</time>
      </trkpt>
      <trkpt lat="48.10879" lon="-4.3652">
        <ele>22.73</ele>
        <time>2017-05-26T15:51:03Z</time>
      </trkpt>
      <trkpt lat="48.10883" lon="-4.36495">
        <ele>22.25</ele>
        <time>2017-05-26T15:51:18Z</time>
      </trkpt>
      <trkpt lat="48.10883" lon="-4.36491">
        <ele>21.77</ele>
        <time>2017-05-26T15:51:20Z</time>
      </trkpt>
      <trkpt lat="48.10879" lon="-4.36472">
        <ele>21.77</ele>
        <time>2017-05-26T15:51:36Z</time>
      </trkpt>
      <trkpt lat="48.10878" lon="-4.3647">
        <ele>22.25</ele>
        <time>2017-05-26T15:51:41Z</time>
      </trkpt>
      <trkpt lat="48.10875" lon="-4.36447">
        <ele>23.69</ele>
        <time>2017-05-26T15:52:00Z</time>
      </trkpt>
      <trkpt lat="48.10875" lon="-4.3643">
        <ele>26.57</ele>
        <time>2017-05-26T15:52:17Z</time>
      </trkpt>
      <trkpt lat="48.10872" lon="-4.36412">
        <ele>27.53</ele>
        <time>2017-05-26T15:52:32Z</time>
      </trkpt>
      <trkpt lat="48.10872" lon="-4.36409">
        <ele>27.53</ele>
        <time>2017-05-26T15:52:37Z</time>
      </trkpt>
      <trkpt lat="48.10873" lon="-4.364">
        <ele>28.02</ele>
        <time>2017-05-26T15:52:43Z</time>
      </trkpt>
      <trkpt lat="48.10878" lon="-4.36394">
        <ele>28.02</ele>
        <time>2017-05-26T15:53:01Z</time>
      </trkpt>
      <trkpt lat="48.10881" lon="-4.36388">
        <ele>27.53</ele>
        <time>2017-05-26T15:53:10Z</time>
      </trkpt>
      <trkpt lat="48.10883" lon="-4.36374">
        <ele>24.65</ele>
        <time>2017-05-26T15:53:19Z</time>
      </trkpt>
      <trkpt lat="48.10891" lon="-4.36363">
        <ele>20.81</ele>
        <time>2017-05-26T15:53:32Z</time>
      </trkpt>
      <trkpt lat="48.10892" lon="-4.36356">
        <ele>18.88</ele>
        <time>2017-05-26T15:53:39Z</time>
      </trkpt>
      <trkpt lat="48.10892" lon="-4.3633">
        <ele>21.29</ele>
        <time>2017-05-26T15:53:57Z</time>
      </trkpt>
      <trkpt lat="48.10892" lon="-4.36323">
        <ele>22.25</ele>
        <time>2017-05-26T15:54:01Z</time>
      </trkpt>
      <trkpt lat="48.10892" lon="-4.36319">
        <ele>23.21</ele>
        <time>2017-05-26T15:54:04Z</time>
      </trkpt>
      <trkpt lat="48.10901" lon="-4.36305">
        <ele>23.69</ele>
        <time>2017-05-26T15:54:17Z</time>
      </trkpt>
      <trkpt lat="48.10908" lon="-4.36298">
        <ele>21.77</ele>
        <time>2017-05-26T15:54:29Z</time>
      </trkpt>
      <trkpt lat="48.10907" lon="-4.36281">
        <ele>19.36</ele>
        <time>2017-05-26T15:54:41Z</time>
      </trkpt>
      <trkpt lat="48.10909" lon="-4.36273">
        <ele>19.36</ele>
        <time>2017-05-26T15:54:46Z</time>
      </trkpt>
      <trkpt lat="48.10909" lon="-4.36259">
        <ele>18.4</ele>
        <time>2017-05-26T15:54:56Z</time>
      </trkpt>
      <trkpt lat="48.1091" lon="-4.36247">
        <ele>16.48</ele>
        <time>2017-05-26T15:55:03Z</time>
      </trkpt>
      <trkpt lat="48.10904" lon="-4.36231">
        <ele>12.63</ele>
        <time>2017-05-26T15:55:21Z</time>
      </trkpt>
      <trkpt lat="48.10902" lon="-4.36231">
        <ele>11.19</ele>
        <time>2017-05-26T15:55:40Z</time>
      </trkpt>
      <trkpt lat="48.10902" lon="-4.3623">
        <ele>10.71</ele>
        <time>2017-05-26T15:56:20Z</time>
      </trkpt>
      <trkpt lat="48.10902" lon="-4.36229">
        <ele>11.19</ele>
        <time>2017-05-26T15:56:55Z</time>
      </trkpt>
      <trkpt lat="48.10903" lon="-4.36229">
        <ele>11.19</ele>
        <time>2017-05-26T15:57:27Z</time>
      </trkpt>
      <trkpt lat="48.10902" lon="-4.36228">
        <ele>11.67</ele>
        <time>2017-05-26T15:58:00Z</time>
      </trkpt>
      <trkpt lat="48.10903" lon="-4.36229">
        <ele>13.6</ele>
        <time>2017-05-26T15:58:32Z</time>
      </trkpt>
      <trkpt lat="48.10904" lon="-4.36228">
        <ele>14.56</ele>
        <time>2017-05-26T15:59:01Z</time>
      </trkpt>
      <trkpt lat="48.10904" lon="-4.36228">
        <ele>14.56</ele>
        <time>2017-05-26T15:59:27Z</time>
      </trkpt>
      <trkpt lat="48.10904" lon="-4.36228">
        <ele>14.08</ele>
        <time>2017-05-26T15:59:58Z</time>
      </trkpt>
      <trkpt lat="48.10904" lon="-4.36228">
        <ele>13.6</ele>
        <time>2017-05-26T16:00:30Z</time>
      </trkpt>
      <trkpt lat="48.10903" lon="-4.36228">
        <ele>13.12</ele>
        <time>2017-05-26T16:00:58Z</time>
      </trkpt>
      <trkpt lat="48.10904" lon="-4.36228">
        <ele>12.63</ele>
        <time>2017-05-26T16:01:28Z</time>
      </trkpt>
      <trkpt lat="48.10904" lon="-4.36228">
        <ele>12.63</ele>
        <time>2017-05-26T16:01:54Z</time>
      </trkpt>
      <trkpt lat="48.10903" lon="-4.36229">
        <ele>13.12</ele>
        <time>2017-05-26T16:02:26Z</time>
      </trkpt>
      <trkpt lat="48.10903" lon="-4.36229">
        <ele>13.12</ele>
        <time>2017-05-26T16:02:58Z</time>
      </trkpt>
      <trkpt lat="48.10903" lon="-4.36229">
        <ele>13.12</ele>
        <time>2017-05-26T16:03:15Z</time>
      </trkpt>
      <trkpt lat="48.10903" lon="-4.36229">
        <ele>13.12</ele>
        <time>2017-05-26T16:03:38Z</time>
      </trkpt>
      <trkpt lat="48.10903" lon="-4.36229">
        <ele>13.12</ele>
        <time>2017-05-26T16:04:01Z</time>
      </trkpt>
      <trkpt lat="48.10903" lon="-4.36229">
        <ele>13.12</ele>
        <time>2017-05-26T16:04:26Z</time>
      </trkpt>
      <trkpt lat="48.10902" lon="-4.36225">
        <ele>13.12</ele>
        <time>2017-05-26T16:04:32Z</time>
      </trkpt>
      <trkpt lat="48.10895" lon="-4.36211">
        <ele>12.63</ele>
        <time>2017-05-26T16:04:44Z</time>
      </trkpt>
      <trkpt lat="48.10887" lon="-4.36207">
        <ele>11.19</ele>
        <time>2017-05-26T16:04:58Z</time>
      </trkpt>
      <trkpt lat="48.10873" lon="-4.362">
        <ele>8.79</ele>
        <time>2017-05-26T16:05:18Z</time>
      </trkpt>
      <trkpt lat="48.10855" lon="-4.36191">
        <ele>7.35</ele>
        <time>2017-05-26T16:05:34Z</time>
      </trkpt>
      <trkpt lat="48.10839" lon="-4.36186">
        <ele>5.91</ele>
        <time>2017-05-26T16:05:49Z</time>
      </trkpt>
      <trkpt lat="48.10829" lon="-4.36171">
        <ele>6.39</ele>
        <time>2017-05-26T16:06:05Z</time>
      </trkpt>
      <trkpt lat="48.10824" lon="-4.36166">
        <ele>5.91</ele>
        <time>2017-05-26T16:06:11Z</time>
      </trkpt>
      <trkpt lat="48.10815" lon="-4.36157">
        <ele>8.31</ele>
        <time>2017-05-26T16:06:25Z</time>
      </trkpt>
      <trkpt lat="48.10798" lon="-4.3615">
        <ele>9.75</ele>
        <time>2017-05-26T16:06:38Z</time>
      </trkpt>
      <trkpt lat="48.10773" lon="-4.36141">
        <ele>10.23</ele>
        <time>2017-05-26T16:06:54Z</time>
      </trkpt>
      <trkpt lat="48.10745" lon="-4.36126">
        <ele>11.19</ele>
        <time>2017-05-26T16:07:13Z</time>
      </trkpt>
      <trkpt lat="48.10722" lon="-4.36117">
        <ele>11.67</ele>
        <time>2017-05-26T16:07:27Z</time>
      </trkpt>
      <trkpt lat="48.10702" lon="-4.3611">
        <ele>10.23</ele>
        <time>2017-05-26T16:07:47Z</time>
      </trkpt>
      <trkpt lat="48.10677" lon="-4.36109">
        <ele>9.27</ele>
        <time>2017-05-26T16:08:04Z</time>
      </trkpt>
      <trkpt lat="48.10672" lon="-4.36104">
        <ele>9.27</ele>
        <time>2017-05-26T16:08:17Z</time>
      </trkpt>
      <trkpt lat="48.10672" lon="-4.3609">
        <ele>6.87</ele>
        <time>2017-05-26T16:08:33Z</time>
      </trkpt>
      <trkpt lat="48.10667" lon="-4.36077">
        <ele>6.39</ele>
        <time>2017-05-26T16:08:47Z</time>
      </trkpt>
      <trkpt lat="48.10665" lon="-4.36073">
        <ele>8.31</ele>
        <time>2017-05-26T16:09:06Z</time>
      </trkpt>
      <trkpt lat="48.10664" lon="-4.36071">
        <ele>8.31</ele>
        <time>2017-05-26T16:09:18Z</time>
      </trkpt>
      <trkpt lat="48.10664" lon="-4.36061">
        <ele>9.27</ele>
        <time>2017-05-26T16:09:25Z</time>
      </trkpt>
      <trkpt lat="48.10658" lon="-4.36043">
        <ele>8.31</ele>
        <time>2017-05-26T16:09:33Z</time>
      </trkpt>
      <trkpt lat="48.10647" lon="-4.36015">
        <ele>9.27</ele>
        <time>2017-05-26T16:09:49Z</time>
      </trkpt>
      <trkpt lat="48.10636" lon="-4.35979">
        <ele>13.12</ele>
        <time>2017-05-26T16:10:01Z</time>
      </trkpt>
      <trkpt lat="48.10632" lon="-4.35963">
        <ele>15.04</ele>
        <time>2017-05-26T16:10:07Z</time>
      </trkpt>
      <trkpt lat="48.10628" lon="-4.35954">
        <ele>14.56</ele>
        <time>2017-05-26T16:10:13Z</time>
      </trkpt>
      <trkpt lat="48.10616" lon="-4.35951">
        <ele>16</ele>
        <time>2017-05-26T16:10:29Z</time>
      </trkpt>
      <trkpt lat="48.10605" lon="-4.35953">
        <ele>21.77</ele>
        <time>2017-05-26T16:10:42Z</time>
      </trkpt>
      <trkpt lat="48.10599" lon="-4.35959">
        <ele>24.17</ele>
        <time>2017-05-26T16:10:47Z</time>
      </trkpt>
      <trkpt lat="48.10585" lon="-4.35963">
        <ele>25.61</ele>
        <time>2017-05-26T16:11:03Z</time>
      </trkpt>
      <trkpt lat="48.10584" lon="-4.35963">
        <ele>25.13</ele>
        <time>2017-05-26T16:11:04Z</time>
      </trkpt>
      <trkpt lat="48.10569" lon="-4.35966">
        <ele>23.69</ele>
        <time>2017-05-26T16:11:17Z</time>
      </trkpt>
      <trkpt lat="48.10561" lon="-4.35972">
        <ele>23.69</ele>
        <time>2017-05-26T16:11:21Z</time>
      </trkpt>
      <trkpt lat="48.10541" lon="-4.35953">
        <ele>26.09</ele>
        <time>2017-05-26T16:11:36Z</time>
      </trkpt>
      <trkpt lat="48.10535" lon="-4.35936">
        <ele>25.61</ele>
        <time>2017-05-26T16:11:46Z</time>
      </trkpt>
      <trkpt lat="48.10535" lon="-4.35936">
        <ele>26.57</ele>
        <time>2017-05-26T16:12:14Z</time>
      </trkpt>
      <trkpt lat="48.10534" lon="-4.35935">
        <ele>27.05</ele>
        <time>2017-05-26T16:12:15Z</time>
      </trkpt>
      <trkpt lat="48.10525" lon="-4.35912">
        <ele>26.57</ele>
        <time>2017-05-26T16:12:28Z</time>
      </trkpt>
      <trkpt lat="48.10524" lon="-4.35909">
        <ele>26.09</ele>
        <time>2017-05-26T16:12:30Z</time>
      </trkpt>
      <trkpt lat="48.10518" lon="-4.35904">
        <ele>27.05</ele>
        <time>2017-05-26T16:12:35Z</time>
      </trkpt>
      <trkpt lat="48.10514" lon="-4.3589">
        <ele>27.53</ele>
        <time>2017-05-26T16:12:45Z</time>
      </trkpt>
      <trkpt lat="48.10496" lon="-4.35854">
        <ele>28.98</ele>
        <time>2017-05-26T16:13:02Z</time>
      </trkpt>
      <trkpt lat="48.10491" lon="-4.35824">
        <ele>28.98</ele>
        <time>2017-05-26T16:13:14Z</time>
      </trkpt>
      <trkpt lat="48.1049" lon="-4.35819">
        <ele>29.46</ele>
        <time>2017-05-26T16:13:18Z</time>
      </trkpt>
      <trkpt lat="48.10491" lon="-4.35811">
        <ele>28.98</ele>
        <time>2017-05-26T16:13:27Z</time>
      </trkpt>
      <trkpt lat="48.10498" lon="-4.35791">
        <ele>23.69</ele>
        <time>2017-05-26T16:13:41Z</time>
      </trkpt>
      <trkpt lat="48.10473" lon="-4.35749">
        <ele>25.13</ele>
        <time>2017-05-26T16:13:58Z</time>
      </trkpt>
      <trkpt lat="48.10468" lon="-4.35744">
        <ele>25.13</ele>
        <time>2017-05-26T16:14:03Z</time>
      </trkpt>
      <trkpt lat="48.10463" lon="-4.35733">
        <ele>24.65</ele>
        <time>2017-05-26T16:14:08Z</time>
      </trkpt>
      <trkpt lat="48.10454" lon="-4.3572">
        <ele>23.21</ele>
        <time>2017-05-26T16:14:18Z</time>
      </trkpt>
      <trkpt lat="48.10443" lon="-4.35702">
        <ele>21.77</ele>
        <time>2017-05-26T16:14:30Z</time>
      </trkpt>
      <trkpt lat="48.10437" lon="-4.35698">
        <ele>21.29</ele>
        <time>2017-05-26T16:14:36Z</time>
      </trkpt>
      <trkpt lat="48.1042" lon="-4.35667">
        <ele>20.32</ele>
        <time>2017-05-26T16:14:53Z</time>
      </trkpt>
      <trkpt lat="48.10409" lon="-4.35643">
        <ele>21.29</ele>
        <time>2017-05-26T16:15:09Z</time>
      </trkpt>
      <trkpt lat="48.10387" lon="-4.35615">
        <ele>24.17</ele>
        <time>2017-05-26T16:15:26Z</time>
      </trkpt>
      <trkpt lat="48.10384" lon="-4.35607">
        <ele>23.69</ele>
        <time>2017-05-26T16:15:30Z</time>
      </trkpt>
      <trkpt lat="48.10388" lon="-4.35588">
        <ele>23.21</ele>
        <time>2017-05-26T16:15:38Z</time>
      </trkpt>
      <trkpt lat="48.10395" lon="-4.35575">
        <ele>20.81</ele>
        <time>2017-05-26T16:15:46Z</time>
      </trkpt>
      <trkpt lat="48.10401" lon="-4.35581">
        <ele>16.96</ele>
        <time>2017-05-26T16:15:58Z</time>
      </trkpt>
      <trkpt lat="48.10403" lon="-4.35578">
        <ele>13.6</ele>
        <time>2017-05-26T16:16:07Z</time>
      </trkpt>
      <trkpt lat="48.10408" lon="-4.3557">
        <ele>7.83</ele>
        <time>2017-05-26T16:16:20Z</time>
      </trkpt>
      <trkpt lat="48.10406" lon="-4.35567">
        <ele>7.35</ele>
        <time>2017-05-26T16:16:23Z</time>
      </trkpt>
      <trkpt lat="48.10404" lon="-4.35559">
        <ele>5.42</ele>
        <time>2017-05-26T16:16:28Z</time>
      </trkpt>
      <trkpt lat="48.10404" lon="-4.35533">
        <ele>5.91</ele>
        <time>2017-05-26T16:16:41Z</time>
      </trkpt>
      <trkpt lat="48.10401" lon="-4.35532">
        <ele>5.42</ele>
        <time>2017-05-26T16:16:44Z</time>
      </trkpt>
      <trkpt lat="48.10391" lon="-4.35519">
        <ele>5.42</ele>
        <time>2017-05-26T16:16:52Z</time>
      </trkpt>
      <trkpt lat="48.10386" lon="-4.35512">
        <ele>6.39</ele>
        <time>2017-05-26T16:16:58Z</time>
      </trkpt>
      <trkpt lat="48.10374" lon="-4.35494">
        <ele>6.87</ele>
        <time>2017-05-26T16:17:12Z</time>
      </trkpt>
      <trkpt lat="48.10373" lon="-4.35495">
        <ele>6.87</ele>
        <time>2017-05-26T16:17:33Z</time>
      </trkpt>
      <trkpt lat="48.10372" lon="-4.35494">
        <ele>6.87</ele>
        <time>2017-05-26T16:17:35Z</time>
      </trkpt>
      <trkpt lat="48.10367" lon="-4.35488">
        <ele>6.39</ele>
        <time>2017-05-26T16:17:40Z</time>
      </trkpt>
      <trkpt lat="48.10348" lon="-4.35473">
        <ele>5.91</ele>
        <time>2017-05-26T16:17:56Z</time>
      </trkpt>
      <trkpt lat="48.10334" lon="-4.35467">
        <ele>7.83</ele>
        <time>2017-05-26T16:18:06Z</time>
      </trkpt>
      <trkpt lat="48.10324" lon="-4.35463">
        <ele>8.31</ele>
        <time>2017-05-26T16:18:12Z</time>
      </trkpt>
      <trkpt lat="48.10307" lon="-4.3545">
        <ele>9.27</ele>
        <time>2017-05-26T16:18:28Z</time>
      </trkpt>
      <trkpt lat="48.10302" lon="-4.35445">
        <ele>9.27</ele>
        <time>2017-05-26T16:18:31Z</time>
      </trkpt>
      <trkpt lat="48.10294" lon="-4.3543">
        <ele>9.75</ele>
        <time>2017-05-26T16:18:41Z</time>
      </trkpt>
      <trkpt lat="48.10284" lon="-4.35407">
        <ele>6.87</ele>
        <time>2017-05-26T16:18:56Z</time>
      </trkpt>
      <trkpt lat="48.10283" lon="-4.35403">
        <ele>5.91</ele>
        <time>2017-05-26T16:18:58Z</time>
      </trkpt>
      <trkpt lat="48.10278" lon="-4.35394">
        <ele>5.42</ele>
        <time>2017-05-26T16:19:04Z</time>
      </trkpt>
      <trkpt lat="48.10276" lon="-4.3538">
        <ele>4.46</ele>
        <time>2017-05-26T16:19:11Z</time>
      </trkpt>
      <trkpt lat="48.10273" lon="-4.35359">
        <ele>5.42</ele>
        <time>2017-05-26T16:19:22Z</time>
      </trkpt>
      <trkpt lat="48.10271" lon="-4.35347">
        <ele>6.87</ele>
        <time>2017-05-26T16:19:27Z</time>
      </trkpt>
      <trkpt lat="48.10269" lon="-4.35331">
        <ele>6.87</ele>
        <time>2017-05-26T16:19:37Z</time>
      </trkpt>
      <trkpt lat="48.10263" lon="-4.35315">
        <ele>6.39</ele>
        <time>2017-05-26T16:19:45Z</time>
      </trkpt>
      <trkpt lat="48.1026" lon="-4.35306">
        <ele>5.42</ele>
        <time>2017-05-26T16:19:51Z</time>
      </trkpt>
      <trkpt lat="48.10248" lon="-4.35297">
        <ele>5.42</ele>
        <time>2017-05-26T16:20:01Z</time>
      </trkpt>
      <trkpt lat="48.10242" lon="-4.3529">
        <ele>6.39</ele>
        <time>2017-05-26T16:20:07Z</time>
      </trkpt>
      <trkpt lat="48.10226" lon="-4.35279">
        <ele>8.31</ele>
        <time>2017-05-26T16:20:20Z</time>
      </trkpt>
      <trkpt lat="48.10207" lon="-4.35266">
        <ele>9.75</ele>
        <time>2017-05-26T16:20:35Z</time>
      </trkpt>
      <trkpt lat="48.10205" lon="-4.35261">
        <ele>9.75</ele>
        <time>2017-05-26T16:20:39Z</time>
      </trkpt>
      <trkpt lat="48.10204" lon="-4.35257">
        <ele>9.27</ele>
        <time>2017-05-26T16:20:44Z</time>
      </trkpt>
      <trkpt lat="48.102" lon="-4.35238">
        <ele>9.27</ele>
        <time>2017-05-26T16:20:54Z</time>
      </trkpt>
      <trkpt lat="48.10195" lon="-4.35212">
        <ele>9.27</ele>
        <time>2017-05-26T16:21:09Z</time>
      </trkpt>
      <trkpt lat="48.10193" lon="-4.35188">
        <ele>6.87</ele>
        <time>2017-05-26T16:21:24Z</time>
      </trkpt>
      <trkpt lat="48.10193" lon="-4.35176">
        <ele>6.39</ele>
        <time>2017-05-26T16:21:31Z</time>
      </trkpt>
      <trkpt lat="48.10206" lon="-4.35161">
        <ele>4.94</ele>
        <time>2017-05-26T16:21:45Z</time>
      </trkpt>
      <trkpt lat="48.10207" lon="-4.35157">
        <ele>3.98</ele>
        <time>2017-05-26T16:21:47Z</time>
      </trkpt>
      <trkpt lat="48.10207" lon="-4.35145">
        <ele>3.02</ele>
        <time>2017-05-26T16:21:53Z</time>
      </trkpt>
      <trkpt lat="48.10211" lon="-4.35112">
        <ele>3.5</ele>
        <time>2017-05-26T16:22:11Z</time>
      </trkpt>
      <trkpt lat="48.10212" lon="-4.35088">
        <ele>4.46</ele>
        <time>2017-05-26T16:22:25Z</time>
      </trkpt>
      <trkpt lat="48.10211" lon="-4.35071">
        <ele>5.42</ele>
        <time>2017-05-26T16:22:35Z</time>
      </trkpt>
      <trkpt lat="48.10208" lon="-4.3506">
        <ele>6.39</ele>
        <time>2017-05-26T16:22:39Z</time>
      </trkpt>
      <trkpt lat="48.10209" lon="-4.35053">
        <ele>6.87</ele>
        <time>2017-05-26T16:22:43Z</time>
      </trkpt>
      <trkpt lat="48.10209" lon="-4.35044">
        <ele>7.83</ele>
        <time>2017-05-26T16:22:48Z</time>
      </trkpt>
      <trkpt lat="48.1021" lon="-4.3502">
        <ele>9.27</ele>
        <time>2017-05-26T16:23:00Z</time>
      </trkpt>
      <trkpt lat="48.1021" lon="-4.34989">
        <ele>11.19</ele>
        <time>2017-05-26T16:23:15Z</time>
      </trkpt>
      <trkpt lat="48.10212" lon="-4.3498">
        <ele>11.19</ele>
        <time>2017-05-26T16:23:21Z</time>
      </trkpt>
      <trkpt lat="48.1021" lon="-4.34968">
        <ele>10.23</ele>
        <time>2017-05-26T16:23:26Z</time>
      </trkpt>
      <trkpt lat="48.1021" lon="-4.34956">
        <ele>9.75</ele>
        <time>2017-05-26T16:23:33Z</time>
      </trkpt>
      <trkpt lat="48.1021" lon="-4.3495">
        <ele>9.27</ele>
        <time>2017-05-26T16:23:37Z</time>
      </trkpt>
      <trkpt lat="48.10212" lon="-4.34923">
        <ele>9.27</ele>
        <time>2017-05-26T16:23:51Z</time>
      </trkpt>
      <trkpt lat="48.10215" lon="-4.34897">
        <ele>9.75</ele>
        <time>2017-05-26T16:24:02Z</time>
      </trkpt>
      <trkpt lat="48.10231" lon="-4.34885">
        <ele>10.23</ele>
        <time>2017-05-26T16:24:16Z</time>
      </trkpt>
      <trkpt lat="48.10234" lon="-4.34876">
        <ele>11.67</ele>
        <time>2017-05-26T16:24:22Z</time>
      </trkpt>
      <trkpt lat="48.1023" lon="-4.34867">
        <ele>13.12</ele>
        <time>2017-05-26T16:24:27Z</time>
      </trkpt>
      <trkpt lat="48.10225" lon="-4.34861">
        <ele>15.04</ele>
        <time>2017-05-26T16:24:34Z</time>
      </trkpt>
      <trkpt lat="48.10213" lon="-4.34832">
        <ele>17.44</ele>
        <time>2017-05-26T16:24:51Z</time>
      </trkpt>
      <trkpt lat="48.10213" lon="-4.34815">
        <ele>18.4</ele>
        <time>2017-05-26T16:25:03Z</time>
      </trkpt>
      <trkpt lat="48.10213" lon="-4.34809">
        <ele>18.88</ele>
        <time>2017-05-26T16:25:07Z</time>
      </trkpt>
      <trkpt lat="48.10212" lon="-4.34797">
        <ele>17.92</ele>
        <time>2017-05-26T16:25:15Z</time>
      </trkpt>
      <trkpt lat="48.10207" lon="-4.34789">
        <ele>16.48</ele>
        <time>2017-05-26T16:25:31Z</time>
      </trkpt>
      <trkpt lat="48.10208" lon="-4.34783">
        <ele>15.04</ele>
        <time>2017-05-26T16:25:56Z</time>
      </trkpt>
      <trkpt lat="48.10211" lon="-4.34779">
        <ele>15.04</ele>
        <time>2017-05-26T16:26:17Z</time>
      </trkpt>
      <trkpt lat="48.10211" lon="-4.34779">
        <ele>15.04</ele>
        <time>2017-05-26T16:26:29Z</time>
      </trkpt>
      <trkpt lat="48.10198" lon="-4.34773">
        <ele>13.12</ele>
        <time>2017-05-26T16:26:43Z</time>
      </trkpt>
      <trkpt lat="48.1019" lon="-4.34769">
        <ele>12.15</ele>
        <time>2017-05-26T16:26:48Z</time>
      </trkpt>
      <trkpt lat="48.10168" lon="-4.34746">
        <ele>9.27</ele>
        <time>2017-05-26T16:27:05Z</time>
      </trkpt>
      <trkpt lat="48.10144" lon="-4.34728">
        <ele>13.6</ele>
        <time>2017-05-26T16:27:20Z</time>
      </trkpt>
      <trkpt lat="48.10121" lon="-4.34719">
        <ele>19.84</ele>
        <time>2017-05-26T16:27:40Z</time>
      </trkpt>
      <trkpt lat="48.10105" lon="-4.34703">
        <ele>25.61</ele>
        <time>2017-05-26T16:27:51Z</time>
      </trkpt>
      <trkpt lat="48.10105" lon="-4.34703">
        <ele>27.05</ele>
        <time>2017-05-26T16:27:53Z</time>
      </trkpt>
      <trkpt lat="48.10104" lon="-4.34706">
        <ele>29.46</ele>
        <time>2017-05-26T16:27:57Z</time>
      </trkpt>
      <trkpt lat="48.10098" lon="-4.34699">
        <ele>32.34</ele>
        <time>2017-05-26T16:28:04Z</time>
      </trkpt>
      <trkpt lat="48.10097" lon="-4.34695">
        <ele>32.34</ele>
        <time>2017-05-26T16:28:06Z</time>
      </trkpt>
      <trkpt lat="48.10096" lon="-4.34687">
        <ele>33.3</ele>
        <time>2017-05-26T16:28:10Z</time>
      </trkpt>
      <trkpt lat="48.10092" lon="-4.34679">
        <ele>34.26</ele>
        <time>2017-05-26T16:28:15Z</time>
      </trkpt>
      <trkpt lat="48.10087" lon="-4.34669">
        <ele>35.71</ele>
        <time>2017-05-26T16:28:22Z</time>
      </trkpt>
      <trkpt lat="48.10085" lon="-4.34656">
        <ele>37.63</ele>
        <time>2017-05-26T16:28:29Z</time>
      </trkpt>
      <trkpt lat="48.10075" lon="-4.34639">
        <ele>34.74</ele>
        <time>2017-05-26T16:28:43Z</time>
      </trkpt>
      <trkpt lat="48.10077" lon="-4.34636">
        <ele>31.38</ele>
        <time>2017-05-26T16:28:53Z</time>
      </trkpt>
      <trkpt lat="48.10074" lon="-4.34631">
        <ele>27.05</ele>
        <time>2017-05-26T16:29:00Z</time>
      </trkpt>
      <trkpt lat="48.10075" lon="-4.3463">
        <ele>25.13</ele>
        <time>2017-05-26T16:29:02Z</time>
      </trkpt>
      <trkpt lat="48.10075" lon="-4.34614">
        <ele>20.32</ele>
        <time>2017-05-26T16:29:12Z</time>
      </trkpt>
      <trkpt lat="48.10075" lon="-4.34611">
        <ele>19.36</ele>
        <time>2017-05-26T16:29:14Z</time>
      </trkpt>
      <trkpt lat="48.10067" lon="-4.3458">
        <ele>13.6</ele>
        <time>2017-05-26T16:29:29Z</time>
      </trkpt>
      <trkpt lat="48.10064" lon="-4.34551">
        <ele>18.88</ele>
        <time>2017-05-26T16:29:45Z</time>
      </trkpt>
      <trkpt lat="48.10062" lon="-4.34542">
        <ele>18.4</ele>
        <time>2017-05-26T16:29:49Z</time>
      </trkpt>
      <trkpt lat="48.10069" lon="-4.34502">
        <ele>18.88</ele>
        <time>2017-05-26T16:30:07Z</time>
      </trkpt>
      <trkpt lat="48.10076" lon="-4.34473">
        <ele>18.4</ele>
        <time>2017-05-26T16:30:21Z</time>
      </trkpt>
      <trkpt lat="48.10079" lon="-4.3446">
        <ele>20.32</ele>
        <time>2017-05-26T16:30:30Z</time>
      </trkpt>
      <trkpt lat="48.10092" lon="-4.34437">
        <ele>20.81</ele>
        <time>2017-05-26T16:30:47Z</time>
      </trkpt>
      <trkpt lat="48.10095" lon="-4.34434">
        <ele>20.81</ele>
        <time>2017-05-26T16:30:49Z</time>
      </trkpt>
      <trkpt lat="48.10098" lon="-4.34411">
        <ele>19.84</ele>
        <time>2017-05-26T16:31:03Z</time>
      </trkpt>
      <trkpt lat="48.10105" lon="-4.34386">
        <ele>15.52</ele>
        <time>2017-05-26T16:31:16Z</time>
      </trkpt>
      <trkpt lat="48.10103" lon="-4.34359">
        <ele>15.04</ele>
        <time>2017-05-26T16:31:28Z</time>
      </trkpt>
      <trkpt lat="48.10098" lon="-4.34344">
        <ele>14.56</ele>
        <time>2017-05-26T16:31:37Z</time>
      </trkpt>
      <trkpt lat="48.10094" lon="-4.34328">
        <ele>13.6</ele>
        <time>2017-05-26T16:31:45Z</time>
      </trkpt>
      <trkpt lat="48.10086" lon="-4.34322">
        <ele>14.08</ele>
        <time>2017-05-26T16:31:51Z</time>
      </trkpt>
      <trkpt lat="48.10083" lon="-4.3432">
        <ele>14.08</ele>
        <time>2017-05-26T16:31:53Z</time>
      </trkpt>
      <trkpt lat="48.10077" lon="-4.34316">
        <ele>13.6</ele>
        <time>2017-05-26T16:31:57Z</time>
      </trkpt>
      <trkpt lat="48.10062" lon="-4.34312">
        <ele>13.12</ele>
        <time>2017-05-26T16:32:07Z</time>
      </trkpt>
      <trkpt lat="48.1006" lon="-4.34312">
        <ele>12.63</ele>
        <time>2017-05-26T16:32:09Z</time>
      </trkpt>
      <trkpt lat="48.10043" lon="-4.34303">
        <ele>13.6</ele>
        <time>2017-05-26T16:32:26Z</time>
      </trkpt>
      <trkpt lat="48.10029" lon="-4.34299">
        <ele>14.08</ele>
        <time>2017-05-26T16:32:39Z</time>
      </trkpt>
      <trkpt lat="48.10018" lon="-4.34274">
        <ele>16.48</ele>
        <time>2017-05-26T16:32:52Z</time>
      </trkpt>
      <trkpt lat="48.10023" lon="-4.34232">
        <ele>19.84</ele>
        <time>2017-05-26T16:33:11Z</time>
      </trkpt>
      <trkpt lat="48.10027" lon="-4.34213">
        <ele>21.29</ele>
        <time>2017-05-26T16:33:21Z</time>
      </trkpt>
      <trkpt lat="48.10029" lon="-4.34207">
        <ele>21.77</ele>
        <time>2017-05-26T16:33:24Z</time>
      </trkpt>
      <trkpt lat="48.10035" lon="-4.34197">
        <ele>22.73</ele>
        <time>2017-05-26T16:33:30Z</time>
      </trkpt>
      <trkpt lat="48.10044" lon="-4.34168">
        <ele>22.73</ele>
        <time>2017-05-26T16:33:44Z</time>
      </trkpt>
      <trkpt lat="48.10051" lon="-4.34139">
        <ele>24.17</ele>
        <time>2017-05-26T16:34:00Z</time>
      </trkpt>
      <trkpt lat="48.10051" lon="-4.34135">
        <ele>23.21</ele>
        <time>2017-05-26T16:34:02Z</time>
      </trkpt>
      <trkpt lat="48.10043" lon="-4.34118">
        <ele>18.88</ele>
        <time>2017-05-26T16:34:12Z</time>
      </trkpt>
      <trkpt lat="48.10035" lon="-4.34107">
        <ele>16</ele>
        <time>2017-05-26T16:34:22Z</time>
      </trkpt>
      <trkpt lat="48.10028" lon="-4.34101">
        <ele>15.04</ele>
        <time>2017-05-26T16:34:28Z</time>
      </trkpt>
      <trkpt lat="48.10014" lon="-4.34096">
        <ele>14.56</ele>
        <time>2017-05-26T16:34:40Z</time>
      </trkpt>
      <trkpt lat="48.09994" lon="-4.34082">
        <ele>12.15</ele>
        <time>2017-05-26T16:34:55Z</time>
      </trkpt>
      <trkpt lat="48.0998" lon="-4.34069">
        <ele>12.63</ele>
        <time>2017-05-26T16:35:08Z</time>
      </trkpt>
      <trkpt lat="48.09976" lon="-4.34063">
        <ele>12.15</ele>
        <time>2017-05-26T16:35:13Z</time>
      </trkpt>
      <trkpt lat="48.09969" lon="-4.34054">
        <ele>10.71</ele>
        <time>2017-05-26T16:35:19Z</time>
      </trkpt>
      <trkpt lat="48.09966" lon="-4.3405">
        <ele>10.71</ele>
        <time>2017-05-26T16:35:22Z</time>
      </trkpt>
      <trkpt lat="48.09959" lon="-4.34048">
        <ele>9.27</ele>
        <time>2017-05-26T16:35:29Z</time>
      </trkpt>
      <trkpt lat="48.09942" lon="-4.34036">
        <ele>7.83</ele>
        <time>2017-05-26T16:35:41Z</time>
      </trkpt>
      <trkpt lat="48.09931" lon="-4.3403">
        <ele>3.5</ele>
        <time>2017-05-26T16:35:52Z</time>
      </trkpt>
      <trkpt lat="48.09925" lon="-4.34025">
        <ele>2.54</ele>
        <time>2017-05-26T16:35:59Z</time>
      </trkpt>
      <trkpt lat="48.09919" lon="-4.34019">
        <ele>2.06</ele>
        <time>2017-05-26T16:36:04Z</time>
      </trkpt>
      <trkpt lat="48.09911" lon="-4.34014">
        <ele>2.06</ele>
        <time>2017-05-26T16:36:12Z</time>
      </trkpt>
      <trkpt lat="48.09907" lon="-4.34008">
        <ele>2.06</ele>
        <time>2017-05-26T16:36:16Z</time>
      </trkpt>
      <trkpt lat="48.09893" lon="-4.33994">
        <ele>3.98</ele>
        <time>2017-05-26T16:36:30Z</time>
      </trkpt>
      <trkpt lat="48.09888" lon="-4.33988">
        <ele>5.42</ele>
        <time>2017-05-26T16:36:34Z</time>
      </trkpt>
      <trkpt lat="48.09881" lon="-4.33981">
        <ele>4.94</ele>
        <time>2017-05-26T16:36:39Z</time>
      </trkpt>
      <trkpt lat="48.09873" lon="-4.33969">
        <ele>4.94</ele>
        <time>2017-05-26T16:36:49Z</time>
      </trkpt>
      <trkpt lat="48.09871" lon="-4.33968">
        <ele>5.42</ele>
        <time>2017-05-26T16:36:56Z</time>
      </trkpt>
      <trkpt lat="48.09855" lon="-4.3395">
        <ele>4.94</ele>
        <time>2017-05-26T16:37:10Z</time>
      </trkpt>
      <trkpt lat="48.09853" lon="-4.33949">
        <ele>3.98</ele>
        <time>2017-05-26T16:37:14Z</time>
      </trkpt>
      <trkpt lat="48.09841" lon="-4.33947">
        <ele>2.54</ele>
        <time>2017-05-26T16:37:27Z</time>
      </trkpt>
      <trkpt lat="48.09841" lon="-4.33947">
        <ele>2.54</ele>
        <time>2017-05-26T16:37:28Z</time>
      </trkpt>
      <trkpt lat="48.09837" lon="-4.33942">
        <ele>2.06</ele>
        <time>2017-05-26T16:37:34Z</time>
      </trkpt>
      <trkpt lat="48.09832" lon="-4.33924">
        <ele>5.91</ele>
        <time>2017-05-26T16:37:48Z</time>
      </trkpt>
      <trkpt lat="48.09833" lon="-4.33926">
        <ele>5.42</ele>
        <time>2017-05-26T16:37:50Z</time>
      </trkpt>
      <trkpt lat="48.09835" lon="-4.33945">
        <ele>3.98</ele>
        <time>2017-05-26T16:38:03Z</time>
      </trkpt>
      <trkpt lat="48.09827" lon="-4.33951">
        <ele>3.02</ele>
        <time>2017-05-26T16:38:09Z</time>
      </trkpt>
      <trkpt lat="48.09824" lon="-4.33952">
        <ele>3.02</ele>
        <time>2017-05-26T16:38:11Z</time>
      </trkpt>
      <trkpt lat="48.09808" lon="-4.33962">
        <ele>3.98</ele>
        <time>2017-05-26T16:38:26Z</time>
      </trkpt>
      <trkpt lat="48.098" lon="-4.33968">
        <ele>3.98</ele>
        <time>2017-05-26T16:38:32Z</time>
      </trkpt>
      <trkpt lat="48.09789" lon="-4.33967">
        <ele>4.46</ele>
        <time>2017-05-26T16:38:40Z</time>
      </trkpt>
      <trkpt lat="48.09783" lon="-4.3398">
        <ele>4.94</ele>
        <time>2017-05-26T16:38:48Z</time>
      </trkpt>
      <trkpt lat="48.09779" lon="-4.33979">
        <ele>4.46</ele>
        <time>2017-05-26T16:38:51Z</time>
      </trkpt>
      <trkpt lat="48.09773" lon="-4.3398">
        <ele>4.46</ele>
        <time>2017-05-26T16:38:58Z</time>
      </trkpt>
      <trkpt lat="48.0976" lon="-4.34013">
        <ele>7.83</ele>
        <time>2017-05-26T16:39:15Z</time>
      </trkpt>
      <trkpt lat="48.09754" lon="-4.3403">
        <ele>8.31</ele>
        <time>2017-05-26T16:39:22Z</time>
      </trkpt>
      <trkpt lat="48.09765" lon="-4.34042">
        <ele>8.31</ele>
        <time>2017-05-26T16:39:36Z</time>
      </trkpt>
      <trkpt lat="48.0977" lon="-4.34052">
        <ele>10.23</ele>
        <time>2017-05-26T16:39:43Z</time>
      </trkpt>
      <trkpt lat="48.09771" lon="-4.34062">
        <ele>10.71</ele>
        <time>2017-05-26T16:39:48Z</time>
      </trkpt>
      <trkpt lat="48.09763" lon="-4.34096">
        <ele>8.31</ele>
        <time>2017-05-26T16:40:05Z</time>
      </trkpt>
      <trkpt lat="48.09757" lon="-4.3412">
        <ele>10.71</ele>
        <time>2017-05-26T16:40:19Z</time>
      </trkpt>
      <trkpt lat="48.09745" lon="-4.34148">
        <ele>13.12</ele>
        <time>2017-05-26T16:40:38Z</time>
      </trkpt>
      <trkpt lat="48.09732" lon="-4.3419">
        <ele>15.04</ele>
        <time>2017-05-26T16:40:58Z</time>
      </trkpt>
      <trkpt lat="48.09728" lon="-4.34196">
        <ele>14.56</ele>
        <time>2017-05-26T16:41:02Z</time>
      </trkpt>
      <trkpt lat="48.09726" lon="-4.34202">
        <ele>14.08</ele>
        <time>2017-05-26T16:41:06Z</time>
      </trkpt>
      <trkpt lat="48.09719" lon="-4.34222">
        <ele>14.08</ele>
        <time>2017-05-26T16:41:15Z</time>
      </trkpt>
      <trkpt lat="48.0971" lon="-4.34245">
        <ele>16.48</ele>
        <time>2017-05-26T16:41:31Z</time>
      </trkpt>
      <trkpt lat="48.09708" lon="-4.34252">
        <ele>16.48</ele>
        <time>2017-05-26T16:41:34Z</time>
      </trkpt>
      <trkpt lat="48.09703" lon="-4.34252">
        <ele>16.96</ele>
        <time>2017-05-26T16:41:37Z</time>
      </trkpt>
      <trkpt lat="48.09703" lon="-4.3425">
        <ele>16.96</ele>
        <time>2017-05-26T16:41:42Z</time>
      </trkpt>
      <trkpt lat="48.09696" lon="-4.34253">
        <ele>17.44</ele>
        <time>2017-05-26T16:41:48Z</time>
      </trkpt>
      <trkpt lat="48.09689" lon="-4.34249">
        <ele>16.96</ele>
        <time>2017-05-26T16:41:54Z</time>
      </trkpt>
      <trkpt lat="48.09685" lon="-4.34247">
        <ele>16.48</ele>
        <time>2017-05-26T16:41:57Z</time>
      </trkpt>
      <trkpt lat="48.09666" lon="-4.34234">
        <ele>12.63</ele>
        <time>2017-05-26T16:42:12Z</time>
      </trkpt>
      <trkpt lat="48.09665" lon="-4.34233">
        <ele>12.63</ele>
        <time>2017-05-26T16:42:13Z</time>
      </trkpt>
      <trkpt lat="48.0966" lon="-4.34228">
        <ele>11.67</ele>
        <time>2017-05-26T16:42:17Z</time>
      </trkpt>
      <trkpt lat="48.09654" lon="-4.34224">
        <ele>11.19</ele>
        <time>2017-05-26T16:42:21Z</time>
      </trkpt>
      <trkpt lat="48.09644" lon="-4.34216">
        <ele>9.75</ele>
        <time>2017-05-26T16:42:30Z</time>
      </trkpt>
      <trkpt lat="48.09639" lon="-4.34208">
        <ele>9.27</ele>
        <time>2017-05-26T16:42:35Z</time>
      </trkpt>
      <trkpt lat="48.09628" lon="-4.34199">
        <ele>8.79</ele>
        <time>2017-05-26T16:42:44Z</time>
      </trkpt>
      <trkpt lat="48.09618" lon="-4.34186">
        <ele>7.83</ele>
        <time>2017-05-26T16:42:56Z</time>
      </trkpt>
      <trkpt lat="48.09609" lon="-4.34173">
        <ele>4.94</ele>
        <time>2017-05-26T16:43:05Z</time>
      </trkpt>
      <trkpt lat="48.09604" lon="-4.3417">
        <ele>3.5</ele>
        <time>2017-05-26T16:43:09Z</time>
      </trkpt>
      <trkpt lat="48.0959" lon="-4.34163">
        <ele>1.1</ele>
        <time>2017-05-26T16:43:20Z</time>
      </trkpt>
      <trkpt lat="48.09589" lon="-4.34153">
        <ele>-0.34</ele>
        <time>2017-05-26T16:43:26Z</time>
      </trkpt>
      <trkpt lat="48.09597" lon="-4.34145">
        <ele>-3.23</ele>
        <time>2017-05-26T16:43:34Z</time>
      </trkpt>
      <trkpt lat="48.09601" lon="-4.34129">
        <ele>-3.71</ele>
        <time>2017-05-26T16:43:44Z</time>
      </trkpt>
      <trkpt lat="48.09604" lon="-4.34123">
        <ele>-2.75</ele>
        <time>2017-05-26T16:43:47Z</time>
      </trkpt>
      <trkpt lat="48.09607" lon="-4.34116">
        <ele>-2.27</ele>
        <time>2017-05-26T16:43:50Z</time>
      </trkpt>
      <trkpt lat="48.09619" lon="-4.3408">
        <ele>3.5</ele>
        <time>2017-05-26T16:44:06Z</time>
      </trkpt>
      <trkpt lat="48.0962" lon="-4.34078">
        <ele>3.5</ele>
        <time>2017-05-26T16:44:07Z</time>
      </trkpt>
      <trkpt lat="48.09629" lon="-4.34078">
        <ele>5.42</ele>
        <time>2017-05-26T16:44:17Z</time>
      </trkpt>
      <trkpt lat="48.09638" lon="-4.3406">
        <ele>6.39</ele>
        <time>2017-05-26T16:44:29Z</time>
      </trkpt>
      <trkpt lat="48.09653" lon="-4.34047">
        <ele>4.46</ele>
        <time>2017-05-26T16:44:43Z</time>
      </trkpt>
      <trkpt lat="48.09657" lon="-4.34043">
        <ele>3.5</ele>
        <time>2017-05-26T16:44:48Z</time>
      </trkpt>
      <trkpt lat="48.09663" lon="-4.34025">
        <ele>3.02</ele>
        <time>2017-05-26T16:44:57Z</time>
      </trkpt>
      <trkpt lat="48.09666" lon="-4.34015">
        <ele>2.54</ele>
        <time>2017-05-26T16:45:04Z</time>
      </trkpt>
      <trkpt lat="48.09665" lon="-4.34009">
        <ele>3.02</ele>
        <time>2017-05-26T16:45:12Z</time>
      </trkpt>
      <trkpt lat="48.09666" lon="-4.33993">
        <ele>3.98</ele>
        <time>2017-05-26T16:45:19Z</time>
      </trkpt>
      <trkpt lat="48.09666" lon="-4.33985">
        <ele>3.98</ele>
        <time>2017-05-26T16:45:23Z</time>
      </trkpt>
      <trkpt lat="48.09665" lon="-4.33975">
        <ele>3.02</ele>
        <time>2017-05-26T16:45:27Z</time>
      </trkpt>
      <trkpt lat="48.09668" lon="-4.33943">
        <ele>0.62</ele>
        <time>2017-05-26T16:45:45Z</time>
      </trkpt>
      <trkpt lat="48.09671" lon="-4.33905">
        <ele>1.1</ele>
        <time>2017-05-26T16:46:00Z</time>
      </trkpt>
      <trkpt lat="48.09676" lon="-4.33868">
        <ele>0.14</ele>
        <time>2017-05-26T16:46:15Z</time>
      </trkpt>
      <trkpt lat="48.09678" lon="-4.33852">
        <ele>1.1</ele>
        <time>2017-05-26T16:46:28Z</time>
      </trkpt>
      <trkpt lat="48.0967" lon="-4.33839">
        <ele>1.58</ele>
        <time>2017-05-26T16:46:36Z</time>
      </trkpt>
      <trkpt lat="48.09665" lon="-4.33837">
        <ele>2.06</ele>
        <time>2017-05-26T16:46:42Z</time>
      </trkpt>
      <trkpt lat="48.09664" lon="-4.33846">
        <ele>3.02</ele>
        <time>2017-05-26T16:46:46Z</time>
      </trkpt>
      <trkpt lat="48.09664" lon="-4.33858">
        <ele>4.94</ele>
        <time>2017-05-26T16:46:50Z</time>
      </trkpt>
      <trkpt lat="48.09663" lon="-4.33862">
        <ele>5.91</ele>
        <time>2017-05-26T16:46:52Z</time>
      </trkpt>
      <trkpt lat="48.09646" lon="-4.33862">
        <ele>9.27</ele>
        <time>2017-05-26T16:47:06Z</time>
      </trkpt>
      <trkpt lat="48.09644" lon="-4.33862">
        <ele>9.27</ele>
        <time>2017-05-26T16:47:08Z</time>
      </trkpt>
      <trkpt lat="48.0964" lon="-4.33856">
        <ele>9.75</ele>
        <time>2017-05-26T16:47:12Z</time>
      </trkpt>
      <trkpt lat="48.09632" lon="-4.33853">
        <ele>10.23</ele>
        <time>2017-05-26T16:47:17Z</time>
      </trkpt>
      <trkpt lat="48.09623" lon="-4.33847">
        <ele>11.19</ele>
        <time>2017-05-26T16:47:23Z</time>
      </trkpt>
      <trkpt lat="48.09596" lon="-4.33841">
        <ele>14.56</ele>
        <time>2017-05-26T16:47:39Z</time>
      </trkpt>
      <trkpt lat="48.09588" lon="-4.33838">
        <ele>12.63</ele>
        <time>2017-05-26T16:47:47Z</time>
      </trkpt>
      <trkpt lat="48.0958" lon="-4.33823">
        <ele>10.23</ele>
        <time>2017-05-26T16:47:59Z</time>
      </trkpt>
      <trkpt lat="48.09573" lon="-4.33815">
        <ele>10.71</ele>
        <time>2017-05-26T16:48:06Z</time>
      </trkpt>
      <trkpt lat="48.0957" lon="-4.33813">
        <ele>10.23</ele>
        <time>2017-05-26T16:48:08Z</time>
      </trkpt>
      <trkpt lat="48.09561" lon="-4.33796">
        <ele>7.35</ele>
        <time>2017-05-26T16:48:23Z</time>
      </trkpt>
      <trkpt lat="48.09558" lon="-4.33791">
        <ele>5.91</ele>
        <time>2017-05-26T16:48:33Z</time>
      </trkpt>
      <trkpt lat="48.09554" lon="-4.33788">
        <ele>5.42</ele>
        <time>2017-05-26T16:48:38Z</time>
      </trkpt>
      <trkpt lat="48.09544" lon="-4.33785">
        <ele>5.42</ele>
        <time>2017-05-26T16:48:46Z</time>
      </trkpt>
      <trkpt lat="48.09525" lon="-4.33772">
        <ele>6.39</ele>
        <time>2017-05-26T16:49:02Z</time>
      </trkpt>
      <trkpt lat="48.09522" lon="-4.33769">
        <ele>6.39</ele>
        <time>2017-05-26T16:49:07Z</time>
      </trkpt>
      <trkpt lat="48.09519" lon="-4.33764">
        <ele>6.39</ele>
        <time>2017-05-26T16:49:23Z</time>
      </trkpt>
      <trkpt lat="48.09512" lon="-4.3376">
        <ele>5.91</ele>
        <time>2017-05-26T16:49:41Z</time>
      </trkpt>
      <trkpt lat="48.09499" lon="-4.33752">
        <ele>4.94</ele>
        <time>2017-05-26T16:49:58Z</time>
      </trkpt>
      <trkpt lat="48.09481" lon="-4.33742">
        <ele>3.5</ele>
        <time>2017-05-26T16:50:12Z</time>
      </trkpt>
      <trkpt lat="48.09473" lon="-4.33731">
        <ele>3.02</ele>
        <time>2017-05-26T16:50:20Z</time>
      </trkpt>
      <trkpt lat="48.09457" lon="-4.33707">
        <ele>5.42</ele>
        <time>2017-05-26T16:50:36Z</time>
      </trkpt>
      <trkpt lat="48.09453" lon="-4.33696">
        <ele>4.94</ele>
        <time>2017-05-26T16:50:49Z</time>
      </trkpt>
      <trkpt lat="48.09443" lon="-4.3368">
        <ele>2.54</ele>
        <time>2017-05-26T16:51:01Z</time>
      </trkpt>
      <trkpt lat="48.09435" lon="-4.3367">
        <ele>0.14</ele>
        <time>2017-05-26T16:51:17Z</time>
      </trkpt>
      <trkpt lat="48.09431" lon="-4.33663">
        <ele>-1.3</ele>
        <time>2017-05-26T16:51:32Z</time>
      </trkpt>
      <trkpt lat="48.09436" lon="-4.33658">
        <ele>-0.82</ele>
        <time>2017-05-26T16:51:49Z</time>
      </trkpt>
      <trkpt lat="48.09437" lon="-4.33656">
        <ele>-1.3</ele>
        <time>2017-05-26T16:52:12Z</time>
      </trkpt>
      <trkpt lat="48.09436" lon="-4.3366">
        <ele>-0.34</ele>
        <time>2017-05-26T16:52:37Z</time>
      </trkpt>
      <trkpt lat="48.09435" lon="-4.33658">
        <ele>-0.82</ele>
        <time>2017-05-26T16:52:59Z</time>
      </trkpt>
      <trkpt lat="48.09437" lon="-4.33653">
        <ele>-0.82</ele>
        <time>2017-05-26T16:53:17Z</time>
      </trkpt>
      <trkpt lat="48.09438" lon="-4.33647">
        <ele>2.06</ele>
        <time>2017-05-26T16:53:47Z</time>
      </trkpt>
      <trkpt lat="48.09441" lon="-4.33633">
        <ele>4.46</ele>
        <time>2017-05-26T16:54:06Z</time>
      </trkpt>
      <trkpt lat="48.09443" lon="-4.33627">
        <ele>4.46</ele>
        <time>2017-05-26T16:54:18Z</time>
      </trkpt>
      <trkpt lat="48.09448" lon="-4.33601">
        <ele>3.98</ele>
        <time>2017-05-26T16:54:37Z</time>
      </trkpt>
      <trkpt lat="48.09452" lon="-4.33577">
        <ele>0.62</ele>
        <time>2017-05-26T16:54:51Z</time>
      </trkpt>
      <trkpt lat="48.09456" lon="-4.33563">
        <ele>-0.34</ele>
        <time>2017-05-26T16:55:02Z</time>
      </trkpt>
      <trkpt lat="48.0946" lon="-4.33548">
        <ele>0.62</ele>
        <time>2017-05-26T16:55:17Z</time>
      </trkpt>
      <trkpt lat="48.09461" lon="-4.33537">
        <ele>0.14</ele>
        <time>2017-05-26T16:55:31Z</time>
      </trkpt>
      <trkpt lat="48.09462" lon="-4.33537">
        <ele>0.62</ele>
        <time>2017-05-26T16:55:45Z</time>
      </trkpt>
      <trkpt lat="48.09463" lon="-4.33538">
        <ele>2.06</ele>
        <time>2017-05-26T16:55:52Z</time>
      </trkpt>
      <trkpt lat="48.09466" lon="-4.33513">
        <ele>2.06</ele>
        <time>2017-05-26T16:56:05Z</time>
      </trkpt>
      <trkpt lat="48.09467" lon="-4.33509">
        <ele>3.02</ele>
        <time>2017-05-26T16:56:19Z</time>
      </trkpt>
      <trkpt lat="48.0947" lon="-4.33495">
        <ele>4.46</ele>
        <time>2017-05-26T16:56:36Z</time>
      </trkpt>
      <trkpt lat="48.09472" lon="-4.33492">
        <ele>4.94</ele>
        <time>2017-05-26T16:56:38Z</time>
      </trkpt>
      <trkpt lat="48.09478" lon="-4.33486">
        <ele>6.39</ele>
        <time>2017-05-26T16:56:42Z</time>
      </trkpt>
      <trkpt lat="48.09494" lon="-4.33489">
        <ele>8.31</ele>
        <time>2017-05-26T16:56:55Z</time>
      </trkpt>
      <trkpt lat="48.09504" lon="-4.33493">
        <ele>9.75</ele>
        <time>2017-05-26T16:57:02Z</time>
      </trkpt>
      <trkpt lat="48.09516" lon="-4.335">
        <ele>9.75</ele>
        <time>2017-05-26T16:57:12Z</time>
      </trkpt>
      <trkpt lat="48.09531" lon="-4.33503">
        <ele>8.79</ele>
        <time>2017-05-26T16:57:24Z</time>
      </trkpt>
      <trkpt lat="48.09535" lon="-4.33504">
        <ele>8.31</ele>
        <time>2017-05-26T16:57:27Z</time>
      </trkpt>
      <trkpt lat="48.0954" lon="-4.33507">
        <ele>7.83</ele>
        <time>2017-05-26T16:57:41Z</time>
      </trkpt>
      <trkpt lat="48.09541" lon="-4.33506">
        <ele>7.83</ele>
        <time>2017-05-26T16:58:02Z</time>
      </trkpt>
      <trkpt lat="48.09541" lon="-4.33506">
        <ele>6.87</ele>
        <time>2017-05-26T16:58:11Z</time>
      </trkpt>
      <trkpt lat="48.09543" lon="-4.33506">
        <ele>6.87</ele>
        <time>2017-05-26T16:58:13Z</time>
      </trkpt>
      <trkpt lat="48.09561" lon="-4.33513">
        <ele>3.5</ele>
        <time>2017-05-26T16:58:26Z</time>
      </trkpt>
      <trkpt lat="48.09586" lon="-4.33519">
        <ele>3.98</ele>
        <time>2017-05-26T16:58:42Z</time>
      </trkpt>
      <trkpt lat="48.09595" lon="-4.33523">
        <ele>3.5</ele>
        <time>2017-05-26T16:58:47Z</time>
      </trkpt>
      <trkpt lat="48.09608" lon="-4.33527">
        <ele>3.5</ele>
        <time>2017-05-26T16:59:02Z</time>
      </trkpt>
      <trkpt lat="48.0962" lon="-4.33534">
        <ele>5.42</ele>
        <time>2017-05-26T16:59:11Z</time>
      </trkpt>
      <trkpt lat="48.09629" lon="-4.33534">
        <ele>5.91</ele>
        <time>2017-05-26T16:59:16Z</time>
      </trkpt>
      <trkpt lat="48.09643" lon="-4.33538">
        <ele>4.94</ele>
        <time>2017-05-26T16:59:29Z</time>
      </trkpt>
      <trkpt lat="48.09651" lon="-4.33538">
        <ele>3.98</ele>
        <time>2017-05-26T16:59:40Z</time>
      </trkpt>
      <trkpt lat="48.09663" lon="-4.3351">
        <ele>1.1</ele>
        <time>2017-05-26T16:59:52Z</time>
      </trkpt>
      <trkpt lat="48.09664" lon="-4.33507">
        <ele>0.62</ele>
        <time>2017-05-26T16:59:54Z</time>
      </trkpt>
      <trkpt lat="48.09667" lon="-4.33484">
        <ele>-7.07</ele>
        <time>2017-05-26T17:00:12Z</time>
      </trkpt>
      <trkpt lat="48.09665" lon="-4.33476">
        <ele>-7.55</ele>
        <time>2017-05-26T17:00:15Z</time>
      </trkpt>
      <trkpt lat="48.09677" lon="-4.33444">
        <ele>-7.55</ele>
        <time>2017-05-26T17:00:31Z</time>
      </trkpt>
      <trkpt lat="48.09677" lon="-4.33443">
        <ele>-7.07</ele>
        <time>2017-05-26T17:00:32Z</time>
      </trkpt>
      <trkpt lat="48.0968" lon="-4.33429">
        <ele>-7.07</ele>
        <time>2017-05-26T17:00:42Z</time>
      </trkpt>
      <trkpt lat="48.09684" lon="-4.33427">
        <ele>-6.11</ele>
        <time>2017-05-26T17:00:44Z</time>
      </trkpt>
      <trkpt lat="48.09688" lon="-4.33425">
        <ele>-5.15</ele>
        <time>2017-05-26T17:00:46Z</time>
      </trkpt>
      <trkpt lat="48.09686" lon="-4.33409">
        <ele>-6.59</ele>
        <time>2017-05-26T17:01:01Z</time>
      </trkpt>
      <trkpt lat="48.09685" lon="-4.33401">
        <ele>-2.75</ele>
        <time>2017-05-26T17:01:05Z</time>
      </trkpt>
      <trkpt lat="48.09684" lon="-4.33395">
        <ele>1.1</ele>
        <time>2017-05-26T17:01:08Z</time>
      </trkpt>
      <trkpt lat="48.09671" lon="-4.33375">
        <ele>4.94</ele>
        <time>2017-05-26T17:01:24Z</time>
      </trkpt>
      <trkpt lat="48.09659" lon="-4.33355">
        <ele>7.83</ele>
        <time>2017-05-26T17:01:39Z</time>
      </trkpt>
      <trkpt lat="48.09652" lon="-4.33346">
        <ele>7.35</ele>
        <time>2017-05-26T17:01:47Z</time>
      </trkpt>
      <trkpt lat="48.0965" lon="-4.3333">
        <ele>10.71</ele>
        <time>2017-05-26T17:01:56Z</time>
      </trkpt>
      <trkpt lat="48.09654" lon="-4.33325">
        <ele>11.19</ele>
        <time>2017-05-26T17:02:00Z</time>
      </trkpt>
      <trkpt lat="48.09661" lon="-4.33319">
        <ele>11.67</ele>
        <time>2017-05-26T17:02:06Z</time>
      </trkpt>
      <trkpt lat="48.09672" lon="-4.33296">
        <ele>12.63</ele>
        <time>2017-05-26T17:02:16Z</time>
      </trkpt>
      <trkpt lat="48.09685" lon="-4.33263">
        <ele>16.96</ele>
        <time>2017-05-26T17:02:29Z</time>
      </trkpt>
      <trkpt lat="48.09693" lon="-4.33251">
        <ele>18.4</ele>
        <time>2017-05-26T17:02:35Z</time>
      </trkpt>
      <trkpt lat="48.09697" lon="-4.33223">
        <ele>21.29</ele>
        <time>2017-05-26T17:02:47Z</time>
      </trkpt>
      <trkpt lat="48.09699" lon="-4.33207">
        <ele>22.73</ele>
        <time>2017-05-26T17:02:58Z</time>
      </trkpt>
      <trkpt lat="48.097" lon="-4.33206">
        <ele>22.73</ele>
        <time>2017-05-26T17:02:59Z</time>
      </trkpt>
      <trkpt lat="48.09704" lon="-4.33183">
        <ele>21.29</ele>
        <time>2017-05-26T17:03:17Z</time>
      </trkpt>
      <trkpt lat="48.09707" lon="-4.33141">
        <ele>18.4</ele>
        <time>2017-05-26T17:03:34Z</time>
      </trkpt>
      <trkpt lat="48.09688" lon="-4.33119">
        <ele>15.52</ele>
        <time>2017-05-26T17:03:51Z</time>
      </trkpt>
      <trkpt lat="48.09683" lon="-4.33117">
        <ele>14.56</ele>
        <time>2017-05-26T17:03:55Z</time>
      </trkpt>
      <trkpt lat="48.09665" lon="-4.331">
        <ele>14.08</ele>
        <time>2017-05-26T17:04:11Z</time>
      </trkpt>
      <trkpt lat="48.09659" lon="-4.33091">
        <ele>13.6</ele>
        <time>2017-05-26T17:04:20Z</time>
      </trkpt>
      <trkpt lat="48.09644" lon="-4.33083">
        <ele>15.52</ele>
        <time>2017-05-26T17:04:31Z</time>
      </trkpt>
      <trkpt lat="48.09641" lon="-4.3307">
        <ele>15.04</ele>
        <time>2017-05-26T17:04:36Z</time>
      </trkpt>
      <trkpt lat="48.0964" lon="-4.33055">
        <ele>13.6</ele>
        <time>2017-05-26T17:04:42Z</time>
      </trkpt>
      <trkpt lat="48.09641" lon="-4.33052">
        <ele>12.15</ele>
        <time>2017-05-26T17:04:50Z</time>
      </trkpt>
      <trkpt lat="48.09629" lon="-4.33038">
        <ele>8.79</ele>
        <time>2017-05-26T17:05:05Z</time>
      </trkpt>
      <trkpt lat="48.09624" lon="-4.33013">
        <ele>10.23</ele>
        <time>2017-05-26T17:05:18Z</time>
      </trkpt>
      <trkpt lat="48.09621" lon="-4.33002">
        <ele>15.52</ele>
        <time>2017-05-26T17:05:29Z</time>
      </trkpt>
      <trkpt lat="48.09618" lon="-4.32995">
        <ele>15.04</ele>
        <time>2017-05-26T17:05:33Z</time>
      </trkpt>
      <trkpt lat="48.09607" lon="-4.3297">
        <ele>16</ele>
        <time>2017-05-26T17:05:47Z</time>
      </trkpt>
      <trkpt lat="48.09592" lon="-4.32943">
        <ele>17.44</ele>
        <time>2017-05-26T17:06:03Z</time>
      </trkpt>
      <trkpt lat="48.09581" lon="-4.3292">
        <ele>17.44</ele>
        <time>2017-05-26T17:06:18Z</time>
      </trkpt>
      <trkpt lat="48.0958" lon="-4.32917">
        <ele>16.96</ele>
        <time>2017-05-26T17:06:20Z</time>
      </trkpt>
      <trkpt lat="48.09572" lon="-4.32899">
        <ele>14.08</ele>
        <time>2017-05-26T17:06:31Z</time>
      </trkpt>
      <trkpt lat="48.09567" lon="-4.32891">
        <ele>14.08</ele>
        <time>2017-05-26T17:06:35Z</time>
      </trkpt>
      <trkpt lat="48.09562" lon="-4.32879">
        <ele>13.12</ele>
        <time>2017-05-26T17:06:41Z</time>
      </trkpt>
      <trkpt lat="48.09558" lon="-4.32866">
        <ele>13.12</ele>
        <time>2017-05-26T17:06:58Z</time>
      </trkpt>
      <trkpt lat="48.09558" lon="-4.32866">
        <ele>13.6</ele>
        <time>2017-05-26T17:07:02Z</time>
      </trkpt>
      <trkpt lat="48.09555" lon="-4.32854">
        <ele>13.6</ele>
        <time>2017-05-26T17:07:09Z</time>
      </trkpt>
      <trkpt lat="48.09553" lon="-4.32852">
        <ele>14.08</ele>
        <time>2017-05-26T17:07:11Z</time>
      </trkpt>
      <trkpt lat="48.0954" lon="-4.32832">
        <ele>12.63</ele>
        <time>2017-05-26T17:07:27Z</time>
      </trkpt>
      <trkpt lat="48.0954" lon="-4.3283">
        <ele>12.63</ele>
        <time>2017-05-26T17:07:28Z</time>
      </trkpt>
      <trkpt lat="48.09537" lon="-4.32824">
        <ele>13.6</ele>
        <time>2017-05-26T17:07:31Z</time>
      </trkpt>
      <trkpt lat="48.09532" lon="-4.32824">
        <ele>16</ele>
        <time>2017-05-26T17:07:35Z</time>
      </trkpt>
      <trkpt lat="48.09521" lon="-4.32834">
        <ele>18.88</ele>
        <time>2017-05-26T17:07:41Z</time>
      </trkpt>
      <trkpt lat="48.0952" lon="-4.32829">
        <ele>20.32</ele>
        <time>2017-05-26T17:07:43Z</time>
      </trkpt>
      <trkpt lat="48.09523" lon="-4.32806">
        <ele>24.17</ele>
        <time>2017-05-26T17:07:52Z</time>
      </trkpt>
      <trkpt lat="48.0952" lon="-4.3279">
        <ele>23.69</ele>
        <time>2017-05-26T17:07:59Z</time>
      </trkpt>
      <trkpt lat="48.09516" lon="-4.32767">
        <ele>22.73</ele>
        <time>2017-05-26T17:08:11Z</time>
      </trkpt>
      <trkpt lat="48.09511" lon="-4.32738">
        <ele>19.36</ele>
        <time>2017-05-26T17:08:23Z</time>
      </trkpt>
      <trkpt lat="48.09509" lon="-4.32726">
        <ele>18.4</ele>
        <time>2017-05-26T17:08:37Z</time>
      </trkpt>
      <trkpt lat="48.09503" lon="-4.32725">
        <ele>17.92</ele>
        <time>2017-05-26T17:08:42Z</time>
      </trkpt>
      <trkpt lat="48.09479" lon="-4.32719">
        <ele>16.96</ele>
        <time>2017-05-26T17:08:57Z</time>
      </trkpt>
      <trkpt lat="48.09457" lon="-4.3271">
        <ele>16.48</ele>
        <time>2017-05-26T17:09:13Z</time>
      </trkpt>
      <trkpt lat="48.09438" lon="-4.32703">
        <ele>16</ele>
        <time>2017-05-26T17:09:28Z</time>
      </trkpt>
      <trkpt lat="48.09435" lon="-4.32704">
        <ele>16</ele>
        <time>2017-05-26T17:09:31Z</time>
      </trkpt>
      <trkpt lat="48.09425" lon="-4.32693">
        <ele>17.92</ele>
        <time>2017-05-26T17:09:45Z</time>
      </trkpt>
      <trkpt lat="48.09426" lon="-4.32694">
        <ele>18.4</ele>
        <time>2017-05-26T17:10:04Z</time>
      </trkpt>
      <trkpt lat="48.09426" lon="-4.32693">
        <ele>18.88</ele>
        <time>2017-05-26T17:10:07Z</time>
      </trkpt>
      <trkpt lat="48.0943" lon="-4.32679">
        <ele>20.32</ele>
        <time>2017-05-26T17:10:24Z</time>
      </trkpt>
      <trkpt lat="48.09433" lon="-4.3267">
        <ele>20.32</ele>
        <time>2017-05-26T17:10:32Z</time>
      </trkpt>
      <trkpt lat="48.09439" lon="-4.32663">
        <ele>21.29</ele>
        <time>2017-05-26T17:10:37Z</time>
      </trkpt>
      <trkpt lat="48.09441" lon="-4.32655">
        <ele>21.29</ele>
        <time>2017-05-26T17:10:41Z</time>
      </trkpt>
      <trkpt lat="48.09438" lon="-4.32643">
        <ele>24.65</ele>
        <time>2017-05-26T17:10:46Z</time>
      </trkpt>
      <trkpt lat="48.09436" lon="-4.32634">
        <ele>26.57</ele>
        <time>2017-05-26T17:10:51Z</time>
      </trkpt>
      <trkpt lat="48.09428" lon="-4.32625">
        <ele>27.53</ele>
        <time>2017-05-26T17:11:01Z</time>
      </trkpt>
      <trkpt lat="48.09423" lon="-4.32622">
        <ele>26.09</ele>
        <time>2017-05-26T17:11:05Z</time>
      </trkpt>
      <trkpt lat="48.09399" lon="-4.32619">
        <ele>22.25</ele>
        <time>2017-05-26T17:11:18Z</time>
      </trkpt>
      <trkpt lat="48.09374" lon="-4.32618">
        <ele>17.44</ele>
        <time>2017-05-26T17:11:33Z</time>
      </trkpt>
      <trkpt lat="48.09366" lon="-4.32609">
        <ele>16.48</ele>
        <time>2017-05-26T17:11:43Z</time>
      </trkpt>
      <trkpt lat="48.09355" lon="-4.32601">
        <ele>16</ele>
        <time>2017-05-26T17:11:51Z</time>
      </trkpt>
      <trkpt lat="48.09346" lon="-4.32596">
        <ele>14.56</ele>
        <time>2017-05-26T17:12:05Z</time>
      </trkpt>
      <trkpt lat="48.09347" lon="-4.32589">
        <ele>14.56</ele>
        <time>2017-05-26T17:12:09Z</time>
      </trkpt>
      <trkpt lat="48.09351" lon="-4.32581">
        <ele>14.56</ele>
        <time>2017-05-26T17:12:15Z</time>
      </trkpt>
      <trkpt lat="48.09352" lon="-4.3255">
        <ele>12.15</ele>
        <time>2017-05-26T17:12:32Z</time>
      </trkpt>
      <trkpt lat="48.09355" lon="-4.32516">
        <ele>10.23</ele>
        <time>2017-05-26T17:12:49Z</time>
      </trkpt>
      <trkpt lat="48.09358" lon="-4.32494">
        <ele>12.15</ele>
        <time>2017-05-26T17:13:00Z</time>
      </trkpt>
      <trkpt lat="48.09363" lon="-4.32472">
        <ele>10.23</ele>
        <time>2017-05-26T17:13:18Z</time>
      </trkpt>
      <trkpt lat="48.09364" lon="-4.32447">
        <ele>10.71</ele>
        <time>2017-05-26T17:13:33Z</time>
      </trkpt>
      <trkpt lat="48.09363" lon="-4.32436">
        <ele>13.12</ele>
        <time>2017-05-26T17:13:46Z</time>
      </trkpt>
      <trkpt lat="48.09364" lon="-4.32422">
        <ele>9.27</ele>
        <time>2017-05-26T17:14:00Z</time>
      </trkpt>
      <trkpt lat="48.09364" lon="-4.32417">
        <ele>7.35</ele>
        <time>2017-05-26T17:14:12Z</time>
      </trkpt>
      <trkpt lat="48.09364" lon="-4.32417">
        <ele>6.87</ele>
        <time>2017-05-26T17:14:13Z</time>
      </trkpt>
      <trkpt lat="48.09373" lon="-4.3242">
        <ele>6.87</ele>
        <time>2017-05-26T17:14:27Z</time>
      </trkpt>
      <trkpt lat="48.09373" lon="-4.3242">
        <ele>6.39</ele>
        <time>2017-05-26T17:14:38Z</time>
      </trkpt>
      <trkpt lat="48.0937" lon="-4.3242">
        <ele>6.87</ele>
        <time>2017-05-26T17:14:41Z</time>
      </trkpt>
      <trkpt lat="48.09367" lon="-4.32419">
        <ele>6.39</ele>
        <time>2017-05-26T17:14:49Z</time>
      </trkpt>
      <trkpt lat="48.09368" lon="-4.32418">
        <ele>5.91</ele>
        <time>2017-05-26T17:14:51Z</time>
      </trkpt>
      <trkpt lat="48.09376" lon="-4.32423">
        <ele>5.91</ele>
        <time>2017-05-26T17:15:05Z</time>
      </trkpt>
      <trkpt lat="48.09374" lon="-4.3242">
        <ele>7.35</ele>
        <time>2017-05-26T17:15:25Z</time>
      </trkpt>
      <trkpt lat="48.0938" lon="-4.32421">
        <ele>7.35</ele>
        <time>2017-05-26T17:15:33Z</time>
      </trkpt>
      <trkpt lat="48.09384" lon="-4.32425">
        <ele>5.91</ele>
        <time>2017-05-26T17:15:39Z</time>
      </trkpt>
      <trkpt lat="48.09393" lon="-4.32426">
        <ele>5.42</ele>
        <time>2017-05-26T17:15:56Z</time>
      </trkpt>
      <trkpt lat="48.09398" lon="-4.3243">
        <ele>5.91</ele>
        <time>2017-05-26T17:16:13Z</time>
      </trkpt>
      <trkpt lat="48.09393" lon="-4.32426">
        <ele>5.91</ele>
        <time>2017-05-26T17:16:17Z</time>
      </trkpt>
      <trkpt lat="48.09384" lon="-4.32426">
        <ele>8.31</ele>
        <time>2017-05-26T17:16:26Z</time>
      </trkpt>
      <trkpt lat="48.09371" lon="-4.32422">
        <ele>11.19</ele>
        <time>2017-05-26T17:16:37Z</time>
      </trkpt>
      <trkpt lat="48.09364" lon="-4.32421">
        <ele>11.67</ele>
        <time>2017-05-26T17:16:42Z</time>
      </trkpt>
      <trkpt lat="48.09362" lon="-4.32424">
        <ele>11.67</ele>
        <time>2017-05-26T17:16:44Z</time>
      </trkpt>
      <trkpt lat="48.09358" lon="-4.32454">
        <ele>15.04</ele>
        <time>2017-05-26T17:17:00Z</time>
      </trkpt>
      <trkpt lat="48.09342" lon="-4.3245">
        <ele>17.92</ele>
        <time>2017-05-26T17:17:12Z</time>
      </trkpt>
      <trkpt lat="48.09335" lon="-4.32447">
        <ele>17.92</ele>
        <time>2017-05-26T17:17:15Z</time>
      </trkpt>
      <trkpt lat="48.09328" lon="-4.3244">
        <ele>18.4</ele>
        <time>2017-05-26T17:17:23Z</time>
      </trkpt>
      <trkpt lat="48.09323" lon="-4.32438">
        <ele>18.4</ele>
        <time>2017-05-26T17:17:26Z</time>
      </trkpt>
      <trkpt lat="48.09312" lon="-4.3243">
        <ele>17.44</ele>
        <time>2017-05-26T17:17:37Z</time>
      </trkpt>
      <trkpt lat="48.09304" lon="-4.32424">
        <ele>17.92</ele>
        <time>2017-05-26T17:17:43Z</time>
      </trkpt>
      <trkpt lat="48.09297" lon="-4.32417">
        <ele>17.44</ele>
        <time>2017-05-26T17:17:47Z</time>
      </trkpt>
      <trkpt lat="48.09292" lon="-4.32399">
        <ele>17.44</ele>
        <time>2017-05-26T17:18:02Z</time>
      </trkpt>
      <trkpt lat="48.0929" lon="-4.32395">
        <ele>17.44</ele>
        <time>2017-05-26T17:18:04Z</time>
      </trkpt>
      <trkpt lat="48.09282" lon="-4.32365">
        <ele>17.44</ele>
        <time>2017-05-26T17:18:17Z</time>
      </trkpt>
      <trkpt lat="48.09276" lon="-4.32336">
        <ele>16.96</ele>
        <time>2017-05-26T17:18:27Z</time>
      </trkpt>
      <trkpt lat="48.09271" lon="-4.32318">
        <ele>20.32</ele>
        <time>2017-05-26T17:18:40Z</time>
      </trkpt>
      <trkpt lat="48.09271" lon="-4.32317">
        <ele>20.32</ele>
        <time>2017-05-26T17:18:41Z</time>
      </trkpt>
      <trkpt lat="48.09268" lon="-4.32312">
        <ele>20.81</ele>
        <time>2017-05-26T17:18:44Z</time>
      </trkpt>
      <trkpt lat="48.09258" lon="-4.32284">
        <ele>17.44</ele>
        <time>2017-05-26T17:18:56Z</time>
      </trkpt>
      <trkpt lat="48.09253" lon="-4.3227">
        <ele>16</ele>
        <time>2017-05-26T17:19:06Z</time>
      </trkpt>
      <trkpt lat="48.09253" lon="-4.32267">
        <ele>16</ele>
        <time>2017-05-26T17:19:08Z</time>
      </trkpt>
      <trkpt lat="48.0925" lon="-4.32252">
        <ele>15.52</ele>
        <time>2017-05-26T17:19:14Z</time>
      </trkpt>
      <trkpt lat="48.09247" lon="-4.32241">
        <ele>16.48</ele>
        <time>2017-05-26T17:19:19Z</time>
      </trkpt>
      <trkpt lat="48.0924" lon="-4.32224">
        <ele>19.84</ele>
        <time>2017-05-26T17:19:33Z</time>
      </trkpt>
      <trkpt lat="48.09229" lon="-4.32209">
        <ele>18.88</ele>
        <time>2017-05-26T17:19:43Z</time>
      </trkpt>
      <trkpt lat="48.09216" lon="-4.32201">
        <ele>17.44</ele>
        <time>2017-05-26T17:19:57Z</time>
      </trkpt>
      <trkpt lat="48.09208" lon="-4.32198">
        <ele>16.48</ele>
        <time>2017-05-26T17:20:05Z</time>
      </trkpt>
      <trkpt lat="48.09183" lon="-4.32196">
        <ele>14.08</ele>
        <time>2017-05-26T17:20:22Z</time>
      </trkpt>
      <trkpt lat="48.09157" lon="-4.32192">
        <ele>14.08</ele>
        <time>2017-05-26T17:20:39Z</time>
      </trkpt>
      <trkpt lat="48.09145" lon="-4.32184">
        <ele>13.6</ele>
        <time>2017-05-26T17:20:47Z</time>
      </trkpt>
      <trkpt lat="48.0914" lon="-4.32182">
        <ele>14.08</ele>
        <time>2017-05-26T17:20:53Z</time>
      </trkpt>
      <trkpt lat="48.09129" lon="-4.3216">
        <ele>14.08</ele>
        <time>2017-05-26T17:21:04Z</time>
      </trkpt>
      <trkpt lat="48.09124" lon="-4.32153">
        <ele>13.12</ele>
        <time>2017-05-26T17:21:10Z</time>
      </trkpt>
      <trkpt lat="48.09124" lon="-4.32143">
        <ele>11.67</ele>
        <time>2017-05-26T17:21:18Z</time>
      </trkpt>
      <trkpt lat="48.09131" lon="-4.32129">
        <ele>11.19</ele>
        <time>2017-05-26T17:21:25Z</time>
      </trkpt>
      <trkpt lat="48.09138" lon="-4.32107">
        <ele>9.27</ele>
        <time>2017-05-26T17:21:37Z</time>
      </trkpt>
      <trkpt lat="48.09137" lon="-4.3208">
        <ele>5.91</ele>
        <time>2017-05-26T17:21:51Z</time>
      </trkpt>
      <trkpt lat="48.09139" lon="-4.32067">
        <ele>3.5</ele>
        <time>2017-05-26T17:22:02Z</time>
      </trkpt>
      <trkpt lat="48.09138" lon="-4.32065">
        <ele>5.42</ele>
        <time>2017-05-26T17:22:16Z</time>
      </trkpt>
      <trkpt lat="48.09152" lon="-4.32067">
        <ele>11.67</ele>
        <time>2017-05-26T17:22:29Z</time>
      </trkpt>
      <trkpt lat="48.09153" lon="-4.32067">
        <ele>11.67</ele>
        <time>2017-05-26T17:22:33Z</time>
      </trkpt>
      <trkpt lat="48.09156" lon="-4.32063">
        <ele>11.67</ele>
        <time>2017-05-26T17:22:36Z</time>
      </trkpt>
      <trkpt lat="48.09161" lon="-4.3204">
        <ele>12.15</ele>
        <time>2017-05-26T17:22:48Z</time>
      </trkpt>
      <trkpt lat="48.09166" lon="-4.32036">
        <ele>13.12</ele>
        <time>2017-05-26T17:22:54Z</time>
      </trkpt>
      <trkpt lat="48.09174" lon="-4.32042">
        <ele>15.52</ele>
        <time>2017-05-26T17:23:08Z</time>
      </trkpt>
      <trkpt lat="48.09174" lon="-4.32046">
        <ele>15.04</ele>
        <time>2017-05-26T17:23:29Z</time>
      </trkpt>
      <trkpt lat="48.09174" lon="-4.32046">
        <ele>15.04</ele>
        <time>2017-05-26T17:23:30Z</time>
      </trkpt>
      <trkpt lat="48.09174" lon="-4.32041">
        <ele>15.04</ele>
        <time>2017-05-26T17:23:39Z</time>
      </trkpt>
      <trkpt lat="48.09175" lon="-4.32044">
        <ele>14.56</ele>
        <time>2017-05-26T17:24:00Z</time>
      </trkpt>
      <trkpt lat="48.09175" lon="-4.32044">
        <ele>14.56</ele>
        <time>2017-05-26T17:24:29Z</time>
      </trkpt>
      <trkpt lat="48.09175" lon="-4.32044">
        <ele>14.08</ele>
        <time>2017-05-26T17:25:03Z</time>
      </trkpt>
      <trkpt lat="48.09175" lon="-4.32044">
        <ele>14.08</ele>
        <time>2017-05-26T17:25:37Z</time>
      </trkpt>
      <trkpt lat="48.09174" lon="-4.32044">
        <ele>14.56</ele>
        <time>2017-05-26T17:25:46Z</time>
      </trkpt>
      <trkpt lat="48.09177" lon="-4.32041">
        <ele>16</ele>
        <time>2017-05-26T17:26:00Z</time>
      </trkpt>
      <trkpt lat="48.09177" lon="-4.32041">
        <ele>16.48</ele>
        <time>2017-05-26T17:26:04Z</time>
      </trkpt>
      <trkpt lat="48.09172" lon="-4.32045">
        <ele>16.48</ele>
        <time>2017-05-26T17:26:24Z</time>
      </trkpt>
      <trkpt lat="48.09172" lon="-4.32045">
        <ele>16.96</ele>
        <time>2017-05-26T17:26:51Z</time>
      </trkpt>
      <trkpt lat="48.09174" lon="-4.32044">
        <ele>16</ele>
        <time>2017-05-26T17:27:06Z</time>
      </trkpt>
    </trkseg>
  </trk>
</gpx>